[[{"header":{"parameterUnit":"m.s-1","parameterCategory":1,"la1":31.0,"la2":29.5877,"lo1":-88.7671,"lo2":-86.6584,"dy":0.0162,"dx":0.0185,"nx":115,"ny":88,"refTime":"2024-03-16T18:00:00:Z","depth":0,"parameterNumber":2,"parameterNumberName":"U-component_of_WINDS"},"data":[0.0,0.0,0.0,0.0,0.0,0.0,0.0,0.0,0.0,0.0,0.0,0.0,0.0,0.0,0.0,0.0,0.0,0.0,0.0,0.0,0.0,0.0,0.0,0.0,0.0,0.0,0.0,0.0,0.0,0.0,0.0,0.0,0.0,0.0,0.0,0.0,0.0,0.0,0.0,0.0,0.0,0.0,0.0,0.0,0.0,0.0,0.0,0.0,0.0,0.0,0.0,0.0,0.0,0.0,0.0,0.0,0.0,0.0,0.0,0.0,0.0,0.0,0.0,0.0,0.0,0.0,0.0,0.0,0.0,0.0,0.0,0.0,0.0,0.0,0.0,0.0,0.0,0.0,0.0,0.0,0.0,0.0,0.0,0.0,0.0,0.0,0.0,0.0,0.0,0.0,0.0,0.0,0.0,0.0,0.0,0.0,0.0,0.0,0.0,0.0,0.0,0.0,0.0,0.0,0.0,0.0,0.0,0.0,0.0,0.0,0.0,0.0,0.0,0.0,0.0,0.0,0.0,0.0,0.0,0.0,0.0,0.0,0.0,0.0,0.0,0.0,0.0,0.0,0.0,0.0,0.0,0.0,0.0,0.0,0.0,0.0,0.0,0.0,0.0,0.0,0.0,0.0,0.0,0.0,0.0,0.0,0.0,0.0,0.0,0.0,0.0,0.0,0.0,0.0,0.0,0.0,0.0,0.0,0.0,0.0,0.0,0.0,0.0,0.0,0.0,0.0,0.0,0.0,0.0,0.0,0.0,0.0,0.0,0.0,0.0,0.0,0.0,0.0,0.0,0.0,0.0,0.0,0.0,0.0,0.0,0.0,0.0,0.0,0.0,0.0,0.0,0.0,0.0,0.0,0.0,0.0,0.0,0.0,0.0,0.0,0.0,0.0,0.0,0.0,0.0,0.0,0.0,0.0,0.0,0.0,0.0,0.0,0.0,0.0,0.0,0.0,0.0,0.0,0.0,0.0,0.0,0.0,0.0,0.0,0.0,0.0,0.0,0.0,0.0,0.0,0.0,0.0,0.0,0.0,0.0,0.0,0.0,0.0,0.0,0.0,0.0,0.0,0.0,0.0,0.0,0.0,0.0,0.0,0.0,0.0,0.0,0.0,0.0,0.0,0.0,0.0,0.0,0.0,0.0,0.0,0.0,0.0,0.0,0.0,0.0,0.0,0.0,0.0,0.0,0.0,0.0,0.0,0.0,0.0,0.0,0.0,0.0,0.0,0.0,0.0,0.0,0.0,0.0,0.0,0.0,0.0,0.0,0.0,0.0,0.0,0.0,0.0,0.0,0.0,0.0,0.0,0.0,0.0,0.0,0.0,0.0,0.0,0.0,0.0,0.0,0.0,0.0,0.0,0.0,0.0,0.0,0.0,0.0,0.0,0.0,0.0,0.0,0.0,0.0,0.0,0.0,0.0,0.0,0.0,0.0,0.0,0.0,0.0,0.0,0.0,0.0,0.0,0.0,0.0,0.0,0.0,0.0,0.0,0.0,0.0,0.0,0.0,0.0,0.0,0.0,0.0,0.0,0.0,0.0,0.0,0.0,0.0,0.0,0.0,0.0,0.0,0.0,0.0,0.0,0.0,0.0,0.0,0.0,0.0,0.0,0.0,0.0,0.0,0.0,0.0,0.0,0.0,0.0,0.0,0.0,0.0,0.0,0.0,0.0,0.0,0.0,0.0,0.0,0.0,0.0,0.0,0.0,0.0,0.0,0.0,0.0,0.0,0.0,0.0,0.0,0.0,0.0,0.0,0.0,0.0,0.0,0.0,0.0,0.0,0.0,0.0,0.0,0.0,0.0,0.0,0.0,0.0,0.0,0.0,0.0,0.0,0.0,0.0,0.0,0.0,0.0,0.0,0.0,0.0,0.0,0.0,0.0,0.0,0.0,0.0,0.0,0.0,0.0,0.0,0.0,0.0,0.0,0.0,0.0,0.0,0.0,0.0,0.0,0.0,0.0,0.0,0.0,0.0,0.0,0.0,0.0,0.0,0.0,0.0,0.0,0.0,0.0,0.0,0.0,0.0,0.0,0.0,0.0,0.0,0.0,0.0,0.0,0.0,0.0,0.0,0.0,0.0,0.0,0.0,0.0,0.0,0.0,0.0,0.0,0.0,0.0,0.0,0.0,0.0,0.0,0.0,0.0,0.0,0.0,0.0,0.0,0.0,0.0,0.0,0.0,0.0,0.0,0.0,0.0,0.0,0.0,0.0,0.0,0.0,0.0,0.0,0.0,0.0,0.0,0.0,0.0,0.0,0.0,0.0,0.0,0.0,0.0,0.0,0.0,0.0,0.0,0.0,0.0,0.0,0.0,0.0,0.0,0.0,0.0,0.0,0.0,0.0,0.0,0.0,0.0,0.0,0.0,0.0,0.0,0.0,0.0,0.0,0.0,0.0,0.0,0.0,0.0,0.0,0.0,0.0,0.0,0.0,0.0,0.0,0.0,0.0,0.0,0.0,0.0,0.0,0.0,0.0,0.0,0.0,0.0,0.0,0.0,0.0,0.0,0.0,0.0,0.0,0.0,0.0,0.0,0.0,0.0,0.0,0.0,0.0,0.0,0.0,0.0,0.0,0.0,0.0,0.0,0.0,0.0,0.0,0.0,0.0,0.0,0.0,0.0,0.0,0.0,0.0,0.0,0.0,0.0,0.0,0.0,0.0,0.0,0.0,0.0,0.0,0.0,0.0,0.0,0.0,0.0,0.0,0.0,0.0,0.0,0.0,0.0,0.0,0.0,0.0,0.0,0.0,0.0,0.0,0.0,0.0,0.0,0.0,0.0,0.0,0.0,0.0,0.0,0.0,0.0,0.0,0.0,0.0,0.0,0.0,0.0,0.0,0.0,0.0,0.0,0.0,0.0,0.0,0.0,0.0,0.0,0.0,0.0,0.0,0.0,0.0,0.0,0.0,0.0,0.0,0.0,0.0,0.0,0.0,0.0,0.0,0.0,0.0,0.0,0.0,0.0,0.0,0.0,0.0,0.0,0.0,0.0,0.0,0.0,0.0,0.0,0.0,0.0,0.0,0.0,0.0,0.0,0.0,0.0,0.0,0.0,0.0,0.0,0.0,0.0,0.0,0.0,0.0,0.0,0.0,0.0,0.0,0.0,0.0,0.0,0.0,0.0,0.0,0.0,0.0,0.0,0.0,0.0,0.0,0.0,0.0,0.0,0.0,0.0,0.0,0.0,0.0,0.0,0.0,0.0,0.0,0.0,0.0,0.0,0.0,0.0,0.0,0.0,0.0,0.0,0.0,0.0,0.0,0.0,0.0,0.0,0.0,0.0,0.0,0.0,0.0,0.0,0.0,0.0,0.0,0.0,0.0,0.0,0.0,0.0,0.0,0.0,0.0,0.0,0.0,0.0,0.0,0.0,0.0,0.0,0.0,0.0,0.0,0.0,0.0,0.0,0.0,0.0,0.0,0.0,0.0,0.0,0.0,0.0,0.0,0.0,0.0,0.0,0.0,0.0,0.0,0.0,0.0,0.0,0.0,0.0,0.0,0.0,0.0,0.0,0.0,0.0,0.0,0.0,0.0,0.0,0.0,0.0,0.0,0.0,0.0,0.0,0.0,0.0,0.0,0.0,0.0,0.0,0.0,0.0,0.0,0.0,0.0,0.0,0.0,0.0,0.0,0.0,0.0,0.0,0.0,0.0,0.0,0.0,0.0,0.0,0.0,0.0,0.0,0.0,0.0,0.0,0.0,0.0,0.0,0.0,0.0,0.0,0.0,0.0,0.0,0.0,0.0,0.0,0.0,0.0,0.0,0.0,0.0,0.0,0.0,0.0,0.0,0.0,0.0,0.0,0.0,0.0,0.0,0.0,0.0,0.0,0.0,0.0,0.0,0.0,0.0,0.0,0.0,0.0,0.0,0.0,0.0,0.0,0.0,0.0,0.0,0.0,0.0,0.0,0.0,0.0,0.0,0.0,0.0,0.0,0.0,0.0,0.0,0.0,0.0,0.0,0.0,0.0,0.0,0.0,0.0,0.0,0.0,0.0,0.0,0.0,0.0,0.0,0.0,0.0,0.0,0.0,0.0,0.0,0.0,0.0,0.0,0.0,0.0,0.0,0.0,0.0,0.0,0.0,0.0,0.0,0.0,0.0,0.0,0.0,0.0,0.0,0.0,0.0,0.0,0.0,0.0,0.0,0.0,0.0,0.0,0.0,0.0,0.0,0.0,0.0,0.0,0.0,0.0,0.0,0.0,0.0,0.0,0.0,0.0,0.0,0.0,0.0,0.0,0.0,0.0,0.0,0.0,1.4858,0.0,0.0,0.0,0.0,0.0,0.0,0.0,0.0,0.0,0.0,0.0,0.0,0.0,0.0,0.0,0.0,0.0,0.0,0.0,0.0,0.0,0.0,0.0,0.0,0.0,0.0,0.0,0.0,0.0,0.0,0.0,0.0,0.0,0.0,0.0,0.0,0.0,0.0,0.0,0.0,0.0,0.0,0.0,0.0,0.0,0.0,0.0,0.0,0.0,0.0,0.0,0.0,0.0,0.0,0.0,0.0,0.0,0.0,0.0,0.0,0.0,0.0,0.0,0.0,0.0,0.0,0.0,0.0,0.0,0.0,0.0,0.0,0.0,0.0,0.0,0.0,0.0,0.0,0.0,0.0,0.0,0.0,0.0,0.0,0.0,0.0,0.0,0.0,0.0,0.0,0.0,0.0,0.0,0.0,0.0,0.0,0.0,0.0,0.0,0.0,0.0,0.0,0.0,0.0,0.0,0.0,0.0,0.0,0.0,0.0,1.6737,1.6454,1.5753,1.5037,1.4258,0.0,0.0,0.0,0.0,0.0,0.0,0.0,0.0,0.0,0.0,0.0,0.0,0.0,0.0,0.0,0.0,0.0,0.0,0.0,0.0,0.0,0.0,0.0,0.0,0.0,0.0,0.0,0.0,0.0,0.0,0.0,0.0,0.0,0.0,0.0,0.0,0.0,0.0,0.0,0.0,0.0,0.0,0.0,0.0,0.0,0.0,0.0,0.0,0.0,0.0,0.0,0.0,0.0,0.0,0.0,0.0,0.0,0.0,0.0,0.0,0.0,0.0,0.0,0.0,0.0,0.0,0.0,0.0,0.0,0.0,0.0,0.0,0.0,0.0,0.0,0.0,0.0,0.0,0.0,0.0,0.0,0.0,0.0,0.0,0.0,0.0,0.0,0.0,0.0,0.0,0.0,0.0,0.0,0.0,0.0,0.0,0.0,0.0,0.0,0.0,0.0,0.0,0.0,0.0,0.0,0.0,0.0,0.0,0.0,0.0,0.0,0.0,1.473,1.3823,1.315,0.0,0.0,0.0,0.0,0.0,0.0,0.0,0.0,0.0,0.0,0.0,0.0,0.0,0.0,0.0,0.0,0.0,0.0,0.0,0.0,0.0,0.0,0.0,0.0,0.0,0.0,0.0,0.0,0.0,0.0,0.0,0.0,0.0,0.0,0.0,0.0,0.0,0.0,0.0,0.0,0.0,0.0,0.0,0.0,0.0,0.0,0.0,0.0,0.0,0.0,0.0,0.0,0.0,0.0,0.0,0.0,0.0,0.0,0.0,0.0,0.0,0.0,0.0,0.0,0.0,0.0,0.0,0.0,0.0,0.0,0.0,0.0,0.0,0.0,0.0,0.0,0.0,0.0,0.0,0.0,0.0,0.0,0.0,0.0,0.0,0.0,0.0,0.0,0.0,0.0,0.0,0.0,0.0,0.0,0.0,0.0,0.0,0.0,0.0,0.0,0.0,0.0,0.0,0.0,0.0,0.0,0.0,0.0,0.0,0.0,1.4571,1.3928,1.3331,0.0,1.1166,0.0,0.0,0.0,0.0,0.0,0.0,0.0,0.0,0.0,0.0,0.0,0.0,0.0,0.0,0.0,0.0,0.0,0.0,0.0,0.0,0.0,0.0,0.0,0.0,0.0,0.0,0.0,0.0,0.0,0.0,0.0,0.0,0.0,0.0,0.0,0.0,0.0,0.0,0.0,0.0,0.0,0.0,0.0,0.0,0.0,0.0,0.0,0.0,0.0,0.0,0.0,0.0,0.0,0.0,0.0,0.0,0.0,0.0,0.0,0.0,0.0,0.0,0.0,0.0,0.0,0.0,0.0,0.0,0.0,0.0,0.0,0.0,0.0,0.0,0.0,0.0,0.0,0.0,0.0,0.0,0.0,0.0,0.0,0.0,0.0,0.0,0.0,0.0,0.0,0.0,0.0,0.0,0.0,0.0,0.0,0.0,0.0,0.0,0.0,0.0,0.0,0.0,0.0,0.0,0.0,0.0,0.0,0.0,0.0,0.0,1.2383,1.2307,1.1847,1.1358,0.0,0.0,0.0,0.0,0.0,0.0,0.0,0.0,0.0,0.0,0.0,0.0,0.0,0.0,0.0,0.0,0.0,0.0,0.0,0.0,0.0,0.0,0.0,0.0,0.0,0.0,0.0,0.0,0.0,0.0,0.0,0.0,0.0,0.0,0.0,0.0,0.0,0.0,0.0,0.0,0.0,0.0,0.0,0.0,0.0,0.0,0.0,0.0,0.0,0.0,0.0,0.0,0.0,0.0,0.0,0.0,0.0,0.0,0.0,0.0,0.0,0.0,0.0,0.0,0.0,0.0,0.0,0.0,0.0,0.0,0.0,0.0,0.0,0.0,0.0,0.0,0.0,0.0,0.0,0.0,0.0,0.0,0.0,0.0,0.0,0.0,0.0,0.0,0.0,0.0,0.0,0.0,0.0,0.0,0.0,0.0,0.0,0.0,0.0,0.0,0.0,0.0,0.0,0.0,0.0,0.0,0.0,0.0,0.0,0.0,1.0558,1.0309,1.0449,1.0017,0.9765,0.9765,0.0,0.0,0.0,0.0,0.0,0.0,0.0,0.0,0.0,0.0,0.0,0.0,0.0,0.0,0.0,0.0,0.0,0.0,0.0,0.0,0.0,0.0,0.0,0.0,0.0,0.0,0.0,0.0,0.0,0.0,0.0,0.0,0.0,0.0,0.0,0.0,0.0,0.0,0.0,0.0,0.0,0.0,0.0,0.0,0.0,0.0,0.0,0.0,0.0,0.0,0.0,0.0,0.0,0.0,0.0,0.0,0.0,0.0,0.0,0.0,0.0,0.0,0.0,0.0,0.0,0.0,0.0,0.0,0.0,0.0,0.0,0.0,0.0,0.0,0.0,0.0,0.0,0.0,0.0,0.0,0.0,0.0,0.0,0.0,0.0,0.0,0.0,0.0,0.0,0.0,0.0,0.0,0.0,0.0,0.0,0.0,0.0,0.0,0.0,0.0,0.0,0.0,0.0,0.0,0.0,0.0,0.0,0.0,0.8574,0.8525,0.8518,0.8418,0.7675,0.7272,0.0,0.0,0.0,0.0,0.0,0.0,0.0,0.0,0.0,0.0,0.0,0.0,0.0,0.0,0.0,0.0,0.0,0.0,0.0,0.0,0.0,0.0,0.0,0.0,0.0,0.0,0.0,0.0,0.0,0.0,0.0,0.0,0.0,0.0,0.0,0.0,0.0,0.0,0.0,0.0,0.0,0.0,0.0,0.0,0.0,0.0,0.0,0.0,0.0,0.0,0.0,0.0,0.0,0.0,0.0,0.0,0.0,0.0,0.0,0.0,0.0,0.0,0.0,0.0,0.0,0.0,0.0,0.0,0.0,0.0,0.0,0.0,0.0,0.0,0.0,0.0,0.0,0.0,0.0,0.0,0.0,0.0,0.0,0.0,0.0,0.0,0.0,0.0,0.0,0.0,0.0,0.0,0.0,0.0,0.0,0.0,0.0,0.0,0.0,0.0,0.0,0.0,0.0,0.0,0.0,0.0,0.0,0.0,0.0,0.669,0.729,0.726,0.6635,0.6358,0.611,0.0,0.0,0.0,0.0,0.0,0.0,0.0,0.0,0.0,0.0,0.0,0.0,0.0,0.0,0.0,0.0,0.0,0.0,0.0,0.0,0.0,0.0,0.0,0.0,0.0,0.0,0.0,0.0,0.0,0.0,0.0,0.0,0.0,0.0,0.0,0.0,0.0,0.0,0.0,0.0,0.0,0.0,0.0,0.0,0.0,0.0,0.0,0.0,0.0,0.0,0.0,0.0,0.0,0.0,0.0,0.0,0.0,0.0,0.0,0.0,0.0,0.0,0.0,0.0,0.0,0.0,0.0,0.0,0.0,0.0,0.0,0.0,0.0,0.0,0.0,0.0,0.0,0.0,0.0,0.0,0.0,0.0,0.0,0.0,0.0,0.0,0.0,0.0,0.0,0.0,0.0,0.0,0.0,0.0,0.0,0.0,0.0,0.0,0.0,0.0,0.0,0.0,0.0,0.0,0.0,0.0,0.0,0.0,0.0,0.4837,0.0,0.5433,0.4875,0.4407,0.3965,0.0,0.0,0.0,0.0,0.0,0.0,0.0,0.0,0.0,0.0,0.0,0.0,0.0,0.0,0.0,0.0,0.0,0.0,0.0,0.0,0.0,0.0,0.0,0.0,0.0,0.0,0.0,0.0,0.0,0.0,0.0,0.0,0.0,0.0,0.0,0.0,0.0,0.0,0.0,0.0,0.0,0.0,0.0,0.0,0.0,0.0,0.0,0.0,0.0,0.0,0.0,0.0,0.0,0.0,0.0,0.0,0.0,0.0,0.0,0.0,0.0,0.0,0.0,0.0,0.0,0.0,0.0,0.0,0.0,0.0,0.0,0.0,0.0,0.0,0.0,0.0,0.0,0.0,0.0,0.0,0.0,0.0,0.0,0.0,0.0,0.0,0.0,0.0,0.0,0.0,0.0,0.0,0.0,0.0,0.0,0.0,0.0,0.0,0.0,0.0,0.0,0.0,0.0,0.0,0.0,0.0,0.0,0.0,0.2137,0.2995,0.2941,0.2926,0.3017,0.1649,0.0611,0.0,0.0,0.0,0.0,0.0,0.0,0.0,0.0,0.0,0.0,0.0,0.0,0.0,0.0,0.0,0.0,0.0,0.0,0.0,0.0,0.0,0.0,0.0,0.0,0.0,0.0,0.0,0.0,0.0,0.0,0.0,0.0,0.0,0.0,0.0,0.0,0.0,0.0,0.0,0.0,0.0,0.0,0.0,0.0,0.0,0.0,0.0,0.0,0.0,0.0,0.0,0.0,0.0,0.0,0.0,0.0,0.0,0.0,0.0,0.0,0.0,0.0,0.0,0.0,0.0,0.0,0.0,0.0,0.0,0.0,0.0,0.0,0.0,0.0,0.0,0.0,0.0,0.0,0.0,0.0,0.0,0.0,0.0,0.0,0.0,0.0,0.0,0.0,0.0,0.0,0.0,0.0,0.0,0.0,0.0,0.0,0.0,0.0,0.0,0.0,0.0,0.0,0.0,0.0,0.0,0.0,0.0,0.0,0.0,0.0192,0.0679,0.0389,-0.0726,-0.1277,-0.2052,0.0,0.0,0.0,0.0,0.0,0.0,0.0,0.0,0.0,0.0,0.0,0.0,0.0,0.0,0.0,0.0,0.0,0.0,0.0,0.0,0.0,0.0,0.0,0.0,0.0,0.0,0.0,0.0,0.0,0.0,0.0,0.0,0.0,0.0,0.0,0.0,0.0,0.0,0.0,0.0,0.0,0.0,0.0,0.0,0.0,0.0,0.0,0.0,0.0,0.0,0.0,0.0,0.0,0.0,0.0,0.0,0.0,0.0,0.0,0.0,0.0,0.0,0.0,0.0,0.0,0.0,0.0,0.0,0.0,0.0,0.0,0.0,0.0,0.0,0.0,0.0,0.0,0.0,0.0,0.0,0.0,0.0,0.0,0.0,0.0,0.0,0.0,0.0,0.0,0.0,0.0,0.0,0.0,0.0,0.0,0.0,0.0,0.0,0.0,0.0,0.0,0.0,0.0,0.0,0.0,0.0,0.0,0.0,0.0,-0.245,-0.2051,-0.2623,-0.4276,-0.468,-0.5351,-0.6464,0.0,0.0,0.0,0.0,0.0,0.0,0.0,0.0,0.0,0.0,0.0,0.0,0.0,0.0,0.0,0.0,0.0,0.0,0.0,0.0,0.0,0.0,0.0,0.0,0.0,0.0,0.0,0.0,0.0,0.0,0.0,0.0,0.0,0.0,0.0,0.0,0.0,0.0,0.0,0.0,0.0,0.0,0.0,0.0,0.0,0.0,0.0,0.0,0.0,0.0,0.0,0.0,0.0,0.0,0.0,0.0,0.0,0.0,0.0,0.0,0.0,0.0,0.0,0.0,0.0,0.0,0.0,0.0,0.0,0.0,0.0,0.0,0.0,0.0,0.0,0.0,0.0,0.0,0.0,0.0,0.0,0.0,0.0,0.0,0.0,0.0,0.0,0.0,0.0,0.0,0.0,0.0,0.0,0.0,0.0,0.0,0.0,0.0,0.0,0.0,0.0,0.0,0.0,0.0,0.0,0.0,0.0,0.0,-0.4701,-0.4994,-0.5887,-0.7429,-0.8147,-0.9001,0.0,0.0,0.0,0.0,0.0,0.0,0.0,0.0,0.0,0.0,0.0,0.0,0.0,0.0,0.0,0.0,0.0,0.0,0.0,0.0,0.0,0.0,0.0,0.0,0.0,0.0,0.0,0.0,0.0,0.0,0.0,0.0,0.0,0.0,0.0,0.0,0.0,0.0,0.0,0.0,0.0,0.0,0.0,0.0,0.0,0.0,0.0,0.0,0.0,0.0,0.0,0.0,0.0,0.0,0.0,0.0,0.0,0.0,0.0,0.0,0.0,0.0,0.0,0.0,0.0,0.0,0.0,0.0,0.0,0.0,0.0,0.0,0.0,0.0,0.0,0.0,0.0,0.0,0.0,0.0,0.0,0.0,0.0,0.0,0.0,0.0,0.0,0.0,0.0,0.0,0.0,0.0,0.0,0.0,0.0,0.0,0.0,0.0,0.0,0.0,0.0,0.0,0.0,0.0,0.0,0.0,0.0,0.0,0.0,-0.5154,-0.6346,-0.7957,-0.9945,-0.9649,-1.017,0.0,0.0,0.0,0.0,0.0,0.0,0.0,0.0,0.0,0.0,0.0,0.0,0.0,0.0,0.0,0.0,0.0,0.0,0.0,0.0,0.0,0.0,0.0,0.0,0.0,0.0,0.0,0.0,0.0,0.0,0.0,0.0,0.0,0.0,0.0,0.0,0.0,0.0,0.0,0.0,0.0,0.0,0.0,0.0,0.0,0.0,0.0,0.0,0.0,0.0,0.0,0.0,0.0,0.0,0.0,0.0,0.0,0.0,0.0,0.0,0.0,0.0,0.0,0.0,0.0,0.0,0.0,0.0,0.0,0.0,0.0,0.0,0.0,0.0,0.0,0.0,0.0,0.0,0.0,0.0,0.0,0.0,0.0,0.0,0.0,0.0,0.0,0.0,0.0,0.0,0.0,0.0,0.0,0.0,0.0,0.0,0.0,0.0,0.0,0.0,0.0,0.0,0.0,0.0,0.0,0.0,0.0,0.0,-0.4351,-0.4942,-0.6013,-0.7544,-0.9514,-1.0272,-1.1202,0.0,0.0,0.0,0.0,0.0,0.0,0.0,0.0,0.0,0.0,0.0,0.0,0.0,0.0,0.0,0.0,0.0,0.0,0.0,0.0,0.0,0.0,0.0,0.0,0.0,0.0,0.0,0.0,0.0,0.0,0.0,0.0,0.0,0.0,0.0,0.0,0.0,0.0,0.0,0.0,0.0,0.0,0.0,0.0,0.0,0.0,0.0,0.0,0.0,0.0,0.0,0.0,0.0,0.0,0.0,0.0,0.0,0.0,0.0,0.0,0.0,0.0,0.0,0.0,0.0,0.0,0.0,0.0,0.0,0.0,0.0,0.0,0.0,0.0,0.0,0.0,0.0,0.0,0.0,0.0,0.0,0.0,0.0,0.0,0.0,0.0,0.0,0.0,0.0,0.0,0.0,0.0,0.0,0.0,0.0,0.0,0.0,0.0,0.0,0.0,0.0,0.0,0.0,0.0,0.0,0.0,0.0,0.0,-0.3792,-0.4212,-0.4645,-0.5598,-0.7242,-0.9873,-1.164,0.0,0.0,0.0,0.0,0.0,0.0,0.0,0.0,0.0,0.0,0.0,0.0,0.0,0.0,0.0,0.0,0.0,0.0,0.0,0.0,0.0,0.0,0.0,0.0,0.0,0.0,0.0,0.0,0.0,0.0,0.0,0.0,0.0,0.0,0.0,0.0,0.0,0.0,0.0,0.0,0.0,0.0,0.0,0.0,0.0,0.0,0.0,0.0,0.0,0.0,0.0,0.0,0.0,0.0,0.0,0.0,0.0,0.0,0.0,0.0,0.0,0.0,0.0,0.0,0.0,0.0,0.0,0.0,0.0,0.0,0.0,0.0,0.0,0.0,0.0,0.0,0.0,0.0,0.0,0.0,0.0,0.0,0.0,0.0,0.0,0.0,0.0,0.0,0.0,0.0,0.0,0.0,0.0,0.0,0.0,0.0,0.0,0.0,0.0,0.0,0.0,0.0,0.0,0.0,0.0,0.0,0.0,0.0,-0.3394,-0.307,-0.3162,-0.3732,-0.4824,-0.7446,-0.9473,0.0,0.0,0.0,0.0,0.0,0.0,0.0,0.0,0.0,0.0,0.0,0.0,0.0,0.0,0.0,0.0,0.0,0.0,0.0,0.0,0.0,0.0,0.0,0.0,0.0,0.0,0.0,0.0,0.0,0.0,0.0,0.0,0.0,0.0,0.0,0.0,0.0,0.0,0.0,0.0,0.0,0.0,0.0,0.0,0.0,0.0,0.0,0.0,-2.9008,0.0,0.0,0.0,0.0,0.0,0.0,0.0,0.0,0.0,0.0,0.0,0.0,0.0,0.0,0.0,0.0,0.0,0.0,0.0,0.0,0.0,0.0,0.0,0.0,0.0,0.0,0.0,0.0,0.0,0.0,0.0,0.0,0.0,0.0,0.0,0.0,0.0,0.0,0.0,0.0,0.0,0.0,0.0,0.0,0.0,0.0,0.0,0.0,0.0,0.0,0.0,0.0,0.0,0.0,0.0,0.0,0.0,0.0,0.0,-0.3127,-0.2796,-0.2196,-0.2277,-0.317,-0.5513,-0.7517,0.0,0.0,0.0,0.0,0.0,0.0,0.0,0.0,0.0,0.0,0.0,0.0,0.0,0.0,0.0,0.0,0.0,0.0,0.0,0.0,0.0,0.0,0.0,0.0,0.0,0.0,0.0,0.0,0.0,0.0,0.0,0.0,0.0,0.0,0.0,0.0,0.0,0.0,0.0,0.0,0.0,0.0,0.0,0.0,0.0,0.0,0.0,0.0,0.0,0.0,0.0,0.0,0.0,0.0,0.0,0.0,0.0,0.0,0.0,0.0,0.0,0.0,0.0,0.0,0.0,0.0,0.0,0.0,0.0,0.0,0.0,0.0,0.0,0.0,0.0,0.0,0.0,0.0,0.0,0.0,0.0,0.0,0.0,0.0,0.0,0.0,0.0,0.0,0.0,0.0,0.0,0.0,0.0,0.0,0.0,0.0,0.0,0.0,0.0,0.0,0.0,0.0,0.0,0.0,0.0,0.0,0.0,-0.3206,-0.2984,-0.2746,-0.155,-0.1324,-0.219,-0.4296,-0.6144,-0.7721,0.0,0.0,0.0,0.0,0.0,0.0,0.0,0.0,0.0,0.0,0.0,0.0,0.0,0.0,0.0,0.0,0.0,0.0,0.0,0.0,0.0,0.0,0.0,0.0,0.0,0.0,0.0,0.0,0.0,0.0,0.0,0.0,0.0,0.0,0.0,0.0,0.0,0.0,-1.7964,-2.3508,0.0,0.0,0.0,0.0,0.0,0.0,0.0,0.0,-3.179,0.0,0.0,0.0,0.0,0.0,0.0,0.0,0.0,0.0,0.0,0.0,0.0,0.0,0.0,0.0,0.0,0.0,0.0,0.0,0.0,0.0,0.0,0.0,0.0,0.0,0.0,0.0,0.0,0.0,0.0,0.0,0.0,0.0,0.0,0.0,0.0,0.0,0.0,0.0,0.0,0.0,0.0,0.0,0.0,0.0,0.0,0.0,0.0,0.0,0.0,0.0,0.0,0.0,0.0,0.0,0.0,-0.5346,-0.4368,-0.3301,-0.2182,-0.1318,-0.1556,-0.2962,-0.4558,-0.6352,-0.8352,0.0,0.0,0.0,0.0,0.0,0.0,0.0,0.0,0.0,0.0,0.0,0.0,0.0,0.0,0.0,0.0,0.0,0.0,0.0,0.0,0.0,0.0,0.0,0.0,0.0,0.0,0.0,0.0,0.0,0.0,0.0,0.0,0.0,0.0,0.0,0.0,0.0,0.0,0.0,-2.6298,-2.8552,0.0,0.0,0.0,0.0,0.0,0.0,0.0,0.0,-3.2131,0.0,0.0,0.0,0.0,0.0,0.0,0.0,0.0,0.0,0.0,0.0,0.0,0.0,0.0,0.0,0.0,0.0,0.0,0.0,0.0,0.0,0.0,0.0,0.0,0.0,0.0,0.0,0.0,0.0,0.0,0.0,0.0,0.0,0.0,0.0,0.0,0.0,0.0,0.0,0.0,0.0,0.0,0.0,0.0,0.0,0.0,0.0,0.0,0.0,0.0,0.0,0.0,0.0,0.0,0.0,-0.6653,-0.521,-0.3958,-0.2934,-0.2052,-0.2273,-0.3727,-0.5541,-0.7664,0.0,0.0,0.0,0.0,0.0,0.0,0.0,0.0,0.0,0.0,0.0,0.0,0.0,0.0,0.0,0.0,0.0,0.0,0.0,0.0,0.0,0.0,0.0,0.0,0.0,0.0,0.0,0.0,0.0,0.0,0.0,0.0,0.0,0.0,0.0,0.0,0.0,0.0,0.0,0.0,-2.7394,-2.9206,-3.1526,0.0,0.0,0.0,0.0,0.0,0.0,-3.2501,-3.286,0.0,0.0,0.0,0.0,0.0,0.0,0.0,0.0,0.0,0.0,0.0,0.0,0.0,0.0,0.0,0.0,0.0,0.0,0.0,0.0,0.0,0.0,0.0,0.0,0.0,0.0,0.0,0.0,0.0,0.0,0.0,0.0,0.0,0.0,0.0,0.0,0.0,0.0,0.0,0.0,0.0,0.0,0.0,0.0,0.0,0.0,0.0,0.0,0.0,0.0,0.0,0.0,0.0,0.0,0.0,-0.7519,-0.5945,-0.4794,-0.4036,-0.3091,-0.3369,-0.4903,-0.6862,-0.9234,0.0,0.0,0.0,0.0,0.0,0.0,0.0,0.0,0.0,0.0,0.0,0.0,0.0,0.0,0.0,0.0,0.0,0.0,0.0,0.0,0.0,0.0,0.0,0.0,0.0,0.0,0.0,0.0,0.0,0.0,0.0,0.0,0.0,0.0,0.0,0.0,0.0,0.0,0.0,0.0,0.0,-2.9757,-3.1951,-3.1763,0.0,0.0,0.0,0.0,-3.2054,-3.3165,0.0,0.0,0.0,0.0,0.0,0.0,0.0,0.0,0.0,0.0,0.0,0.0,0.0,0.0,0.0,0.0,0.0,0.0,0.0,0.0,0.0,0.0,0.0,0.0,0.0,0.0,0.0,0.0,0.0,0.0,0.0,0.0,0.0,0.0,0.0,0.0,0.0,0.0,0.0,0.0,0.0,0.0,0.0,0.0,0.0,0.0,0.0,0.0,0.0,0.0,0.0,0.0,0.0,0.0,0.0,0.0,-0.7665,-0.6595,-0.563,-0.4824,-0.4383,-0.5093,-0.706,-0.8546,-1.0592,0.0,0.0,0.0,0.0,0.0,0.0,0.0,0.0,0.0,0.0,0.0,0.0,0.0,0.0,0.0,0.0,0.0,0.0,0.0,0.0,0.0,0.0,0.0,0.0,0.0,0.0,0.0,0.0,0.0,0.0,0.0,0.0,0.0,0.0,0.0,0.0,0.0,0.0,0.0,0.0,0.0,-3.0346,-3.1679,-3.1544,-3.1194,0.0,0.0,-3.3271,-3.2906,-3.3794,0.0,0.0,0.0,0.0,0.0,0.0,0.0,0.0,0.0,0.0,0.0,0.0,0.0,0.0,0.0,0.0,0.0,0.0,0.0,0.0,0.0,0.0,0.0,0.0,0.0,0.0,0.0,0.0,0.0,0.0,0.0,0.0,0.0,0.0,0.0,0.0,0.0,0.0,0.0,0.0,0.0,0.0,0.0,0.0,0.0,0.0,0.0,0.0,0.0,0.0,0.0,0.0,0.0,0.0,0.0,-0.7589,-0.8548,-0.7608,-0.6913,-0.6627,-0.6169,-0.673,-0.8391,-0.9213,-1.0919,0.0,0.0,0.0,0.0,0.0,0.0,0.0,0.0,0.0,0.0,0.0,0.0,0.0,0.0,0.0,0.0,0.0,0.0,0.0,0.0,0.0,0.0,0.0,0.0,0.0,0.0,0.0,0.0,0.0,0.0,0.0,0.0,0.0,0.0,0.0,0.0,0.0,0.0,0.0,0.0,0.0,0.0,-3.1113,-3.162,0.0,0.0,0.0,-3.2979,-3.3086,0.0,0.0,0.0,0.0,0.0,0.0,0.0,0.0,0.0,0.0,0.0,0.0,0.0,0.0,0.0,0.0,0.0,0.0,0.0,0.0,0.0,0.0,0.0,0.0,0.0,0.0,0.0,0.0,0.0,0.0,0.0,0.0,0.0,0.0,0.0,0.0,0.0,0.0,0.0,0.0,0.0,0.0,0.0,0.0,0.0,0.0,0.0,0.0,0.0,0.0,0.0,0.0,0.0,0.0,0.0,0.0,0.0,-0.8264,-0.798,-0.7788,-0.7829,-0.765,-0.8119,-0.9336,-0.9851,0.0,0.0,0.0,0.0,0.0,0.0,0.0,0.0,0.0,0.0,0.0,0.0,0.0,0.0,0.0,0.0,0.0,0.0,0.0,0.0,0.0,0.0,0.0,0.0,0.0,0.0,0.0,-1.3729,0.0,0.0,0.0,0.0,0.0,0.0,0.0,0.0,0.0,0.0,0.0,0.0,0.0,0.0,-2.9625,-3.0617,-3.1572,-3.2219,0.0,0.0,-3.2687,-3.2995,-3.3833,-3.4126,0.0,0.0,0.0,0.0,0.0,0.0,0.0,0.0,0.0,0.0,0.0,0.0,0.0,0.0,0.0,0.0,0.0,0.0,0.0,0.0,0.0,0.0,0.0,0.0,0.0,0.0,0.0,0.0,0.0,0.0,0.0,0.0,0.0,0.0,0.0,0.0,0.0,0.0,0.0,0.0,0.0,0.0,0.0,0.0,0.0,0.0,0.0,0.0,0.0,0.0,0.0,0.0,0.0,0.0,-0.5333,-0.5639,-0.7149,-0.7894,-0.7747,-0.8332,-0.9141,-1.0139,-1.083,-1.2031,0.0,0.0,0.0,0.0,0.0,0.0,0.0,0.0,0.0,0.0,0.0,0.0,0.0,0.0,0.0,0.0,0.0,0.0,0.0,0.0,0.0,0.0,0.0,0.0,0.0,0.0,0.0,0.0,0.0,0.0,0.0,0.0,0.0,0.0,0.0,0.0,0.0,0.0,0.0,0.0,0.0,-2.9704,-3.035,-3.102,-3.1609,0.0,-3.2638,-3.294,-3.2665,-3.3266,-3.358,-3.3015,0.0,0.0,0.0,0.0,0.0,0.0,0.0,0.0,0.0,0.0,0.0,0.0,0.0,0.0,0.0,0.0,0.0,0.0,0.0,0.0,0.0,0.0,0.0,0.0,0.0,0.0,0.0,0.0,0.0,0.0,0.0,0.0,0.0,0.0,0.0,0.0,0.0,0.0,0.0,0.0,0.0,0.0,0.0,0.0,0.0,0.0,0.0,0.0,0.0,0.0,0.0,0.0,0.0,-0.4912,-0.6113,-0.7367,-0.8243,-0.8661,-0.9266,-1.0212,-1.1518,-1.1638,-1.2263,0.0,0.0,0.0,0.0,0.0,0.0,0.0,0.0,0.0,0.0,0.0,0.0,0.0,0.0,0.0,0.0,0.0,0.0,0.0,0.0,0.0,0.0,0.0,0.0,0.0,0.0,0.0,0.0,-1.55,-1.6393,-1.7297,0.0,0.0,0.0,0.0,0.0,0.0,0.0,0.0,0.0,0.0,-2.7771,-2.8299,-2.977,0.0,0.0,-3.1887,-3.2459,-3.1708,-3.2588,-3.2893,-3.1649,-3.1859,0.0,0.0,0.0,0.0,0.0,0.0,0.0,0.0,0.0,0.0,0.0,0.0,0.0,0.0,0.0,0.0,0.0,0.0,0.0,0.0,0.0,0.0,0.0,0.0,0.0,0.0,0.0,0.0,0.0,0.0,0.0,0.0,0.0,0.0,0.0,0.0,0.0,0.0,0.0,0.0,0.0,0.0,0.0,0.0,0.0,0.0,0.0,0.0,0.0,0.0,0.0,0.0,-0.4562,-0.5862,-0.7302,-0.8354,-0.8882,-0.9787,-1.0802,-1.1937,-1.1922,-1.2284,0.0,0.0,0.0,0.0,0.0,0.0,0.0,0.0,0.0,0.0,0.0,0.0,0.0,0.0,0.0,0.0,0.0,0.0,0.0,0.0,0.0,0.0,0.0,0.0,0.0,0.0,0.0,0.0,-1.6203,-1.67,-1.7533,0.0,0.0,0.0,0.0,0.0,0.0,0.0,0.0,0.0,0.0,-2.6572,-2.7087,-2.8634,-2.9816,-3.0135,-3.1081,-3.1628,-3.1196,-3.1757,-3.185,-3.0929,0.0,0.0,0.0,0.0,0.0,0.0,0.0,0.0,0.0,0.0,0.0,0.0,0.0,0.0,0.0,0.0,0.0,0.0,0.0,0.0,0.0,0.0,0.0,0.0,0.0,0.0,0.0,-0.6051,0.0,0.0,-0.6067,0.0,0.0,0.0,0.0,0.0,0.0,0.0,0.0,0.0,0.0,0.0,0.0,0.0,0.0,0.0,0.0,0.0,0.0,0.0,0.0,0.0,0.0,-0.4143,-0.4151,-0.6827,-0.8179,-0.8107,-0.9703,-1.0774,-1.1175,-1.1524,-1.191,-1.2377,0.0,0.0,0.0,0.0,0.0,0.0,0.0,0.0,0.0,0.0,0.0,0.0,0.0,0.0,0.0,0.0,0.0,0.0,0.0,0.0,0.0,0.0,0.0,0.0,0.0,0.0,-1.7401,-1.7544,-1.7501,0.0,0.0,0.0,0.0,0.0,0.0,0.0,0.0,0.0,-2.3395,-2.5116,-2.6533,-2.7083,-2.7797,-2.8731,-3.0036,-3.0293,-3.0508,-3.1197,-3.0695,-3.0441,0.0,0.0,0.0,0.0,0.0,0.0,0.0,0.0,0.0,0.0,0.0,0.0,0.0,0.0,0.0,0.0,0.0,0.0,0.0,0.0,0.0,0.0,0.0,0.0,0.0,0.0,0.0,-0.6569,-0.6485,0.0,0.0,0.0,0.0,0.0,0.0,0.0,0.0,0.0,0.0,0.0,-1.1806,-1.122,0.0,0.0,0.0,0.0,0.0,0.0,0.0,0.0,0.0,0.0,0.0,0.0,-0.4951,-0.5275,-0.7109,-0.8108,-0.8179,-0.9744,-1.0933,-1.1546,-1.1669,-1.2588,-1.4409,0.0,0.0,0.0,0.0,0.0,0.0,0.0,0.0,0.0,0.0,0.0,0.0,0.0,0.0,0.0,0.0,0.0,0.0,0.0,0.0,0.0,0.0,0.0,0.0,0.0,-1.7688,0.0,0.0,0.0,0.0,0.0,0.0,0.0,0.0,0.0,0.0,0.0,-2.1701,-2.157,-2.2911,-2.4142,-2.4683,-2.6216,-2.7759,0.0,0.0,0.0,0.0,0.0,0.0,0.0,0.0,0.0,0.0,0.0,0.0,0.0,0.0,-2.9965,-3.0408,-2.9669,-2.9144,-2.9642,0.0,0.0,0.0,0.0,0.0,0.0,0.0,0.0,0.0,0.0,0.0,0.0,0.0,0.0,-0.6902,-0.6851,-0.6803,0.0,0.0,0.0,0.0,0.0,0.0,0.0,0.0,-1.1994,-1.2894,-1.3121,-1.2459,-1.1444,-1.0046,-0.8745,-0.7599,0.0,0.0,0.0,0.0,0.0,0.0,0.0,0.0,-0.5538,-0.5782,-0.7351,-0.8158,-0.829,-0.9792,-1.087,-1.1344,-1.1958,-1.2974,-1.4627,-1.4985,-1.5588,0.0,0.0,0.0,0.0,0.0,0.0,0.0,0.0,0.0,0.0,0.0,0.0,0.0,0.0,0.0,0.0,0.0,0.0,0.0,0.0,0.0,0.0,0.0,-1.8221,0.0,0.0,0.0,0.0,0.0,0.0,0.0,0.0,0.0,-1.9983,-2.0534,-2.0853,-2.0834,-2.1575,-2.243,-2.3117,0.0,0.0,0.0,0.0,0.0,0.0,0.0,-2.9154,-2.8724,-2.8548,-2.8771,-2.9549,-2.9842,-3.0054,-3.0287,0.0,0.0,-2.9853,-2.9227,-2.8768,-2.9578,-2.9555,-2.9381,-2.9433,-2.9433,-2.9229,0.0,0.0,0.0,0.0,-0.9541,0.0,0.0,0.0,-0.7387,-0.7299,0.0,-0.7027,0.0,0.0,0.0,0.0,-0.8127,-0.8725,0.0,0.0,-1.1694,-1.2343,-1.2935,-1.1554,-1.0964,-1.0937,-0.8081,-0.661,-0.6332,-0.5669,0.0,0.0,0.0,0.0,0.0,0.0,-0.5888,-0.5706,-0.7408,-0.8305,-0.8195,-0.9758,-1.0588,-1.0658,-1.2197,-1.3033,-1.3074,-1.5253,-1.6106,-1.5279,-1.57,0.0,0.0,0.0,0.0,0.0,0.0,0.0,0.0,0.0,0.0,0.0,0.0,0.0,0.0,0.0,0.0,0.0,0.0,0.0,0.0,-1.9069,0.0,0.0,0.0,0.0,0.0,0.0,0.0,0.0,0.0,0.0,-2.0455,-2.0582,-2.0738,-2.1063,0.0,0.0,0.0,0.0,-2.3239,-2.4661,-2.6098,-2.7291,-2.8056,-2.8271,-2.8596,-2.9438,0.0,0.0,-2.8734,-2.9472,-2.9651,-2.9049,-2.826,-2.8093,-2.9577,-2.8774,-2.8188,-2.8809,-2.8478,-2.8085,-2.8118,-2.8834,-2.9117,-2.4544,0.0,0.0,0.0,0.0,-0.8412,-0.7787,-0.7838,-0.7733,-0.7662,-0.7614,-0.764,0.0,0.0,0.0,0.0,0.0,0.0,-0.9301,-0.9676,-1.0651,-1.1246,-1.1354,-1.0767,-1.0085,-0.9152,-0.8176,-0.7284,-0.6346,-0.5956,-0.5616,-0.5262,0.0,0.0,0.0,0.0,-0.5932,-0.6125,-0.7045,-0.7464,-0.7538,-0.9237,-1.0423,-1.1176,-1.2868,-1.4035,-1.4514,-1.6019,-1.718,-1.7745,-1.6793,0.0,0.0,0.0,0.0,0.0,0.0,0.0,0.0,0.0,0.0,0.0,0.0,0.0,0.0,0.0,0.0,0.0,0.0,0.0,-1.873,-1.8046,-1.7673,0.0,0.0,0.0,0.0,0.0,0.0,0.0,0.0,0.0,-1.9646,-2.0216,-2.0386,0.0,0.0,-2.14,-2.175,-2.2644,-2.3677,-2.4778,-2.5033,0.0,-2.5847,-2.5686,-2.572,-2.6305,-2.6627,-2.6918,-2.7162,-2.7359,-2.7411,-2.7242,-2.7027,-2.7037,-2.733,-2.7217,-2.7235,-2.788,-2.7904,-2.7991,-2.8614,-2.8927,-2.8996,-2.0213,-1.9423,-1.724,-1.4043,-1.0348,-0.8689,-0.8045,-0.8126,-0.8035,-0.7991,-0.7991,-0.8065,-0.8021,-0.7858,-0.7832,0.0,0.0,0.0,-0.8734,-0.911,-0.9763,-1.0298,-1.0519,-1.0139,-0.9419,-0.8397,-0.7813,-0.7155,-0.6437,-0.6342,-0.6251,-0.6156,0.0,-0.5442,-0.5872,-0.6084,-0.6162,-0.6239,-0.6931,-0.731,-0.7331,-0.9009,-1.0227,-1.0792,-1.2742,-1.4081,-1.475,-1.5905,-1.6999,-1.7954,-1.7051,-1.6745,0.0,0.0,0.0,0.0,0.0,0.0,0.0,0.0,0.0,0.0,0.0,-1.8939,-1.8927,0.0,0.0,0.0,-1.8689,-1.8519,-1.8561,-1.7852,0.0,0.0,0.0,0.0,0.0,0.0,0.0,-1.8848,-1.9033,-1.9238,-1.9502,-2.0112,-2.0373,-1.9625,-2.0256,-2.0849,-2.1022,0.0,-2.2541,-2.3182,-2.3568,-2.3897,-2.4357,-2.4515,-2.4616,-2.4646,-2.4968,-2.5288,-2.5276,-2.5358,-2.5288,-2.5288,-2.5276,-2.5276,-2.5276,-2.5288,-2.5779,-2.6947,-2.7229,-2.7417,-2.7934,-2.8233,-2.8505,-1.4308,-1.6922,-1.6977,-1.4471,-1.036,-0.8976,-0.8306,-0.8306,-0.8306,-0.8306,-0.8309,-0.8316,-0.8309,-0.8265,-0.8123,0.0,-0.7641,-0.777,-0.8313,-0.9173,-0.9084,-0.9429,-1.0284,-0.9397,-0.8778,-0.8258,-0.7123,-0.6632,-0.6715,-0.6715,-0.6719,-0.6709,-0.6368,-0.6083,-0.5901,-0.6393,-0.6461,-0.6057,-0.7011,-0.7462,-0.7364,-0.8985,-0.9863,-1.0009,-1.2151,-1.363,-1.4197,-1.5353,-1.6195,-1.6792,-1.6807,-1.6884,-1.7158,0.0,0.0,0.0,0.0,0.0,0.0,0.0,0.0,0.0,0.0,0.0,0.0,0.0,0.0,0.0,-1.8024,0.0,-1.8753,-1.8139,0.0,0.0,0.0,-1.7873,-1.8926,-1.8774,-1.8789,-1.9189,0.0,0.0,-1.9863,-2.0244,-2.0371,-1.9971,-1.9951,-2.0107,-2.0508,-2.0634,-2.0576,-2.084,-2.1839,-2.2835,-2.3223,-2.3946,-2.4404,-2.4125,-2.3776,-2.361,-2.3588,-2.3599,-2.3526,-2.3588,-2.3514,-2.3514,-2.3514,-2.3672,-2.4108,-2.5861,-2.6314,-2.6383,-2.6427,-2.7015,-2.7577,-0.9319,-1.2712,-1.2705,-1.1972,-1.0849,-0.9301,-0.8604,-0.8608,-0.8604,-0.8608,-0.8615,-0.873,-0.8611,-0.8426,-0.8248,-0.8113,-0.7936,-0.7967,-0.8,-0.8129,-0.798,-0.8007,-0.8106,-0.7654,-0.7417,-0.7208,-0.6956,-0.6875,-0.6875,-0.6875,-0.6875,-0.6783,-0.5861,-0.5697,-0.6325,-0.6349,-0.6315,-0.621,-0.6468,-0.7,-0.7711,-0.8866,-0.9797,-1.0601,-1.2566,-1.4009,-1.4915,-1.5887,-1.6807,-1.7628,-1.7402,-1.7096,-1.6842,-1.6485,0.0,0.0,0.0,0.0,0.0,0.0,0.0,0.0,0.0,-1.8313,-1.7634,0.0,-1.848,0.0,-1.7997,-1.7883,-1.7792,-1.7606,0.0,0.0,-1.8271,-1.8311,-1.8299,-1.8448,-1.8682,-1.8779,-1.8877,-1.9062,-1.9394,-1.9805,-2.0039,-1.9932,-2.0205,-2.0449,-2.0566,-2.0576,-2.0684,-2.0967,-2.1085,-2.1262,-2.174,-2.2294,-2.2851,-2.2998,-2.3241,-2.3526,-2.3514,-2.3514,-2.3514,-2.3514,-2.3514,-2.3514,-2.3441,-2.3514,-2.3599,-2.4181,-2.485,-2.537,-2.5382,-2.6126,-2.6642,-0.7505,-1.0362,-1.02,-1.0131,-1.0006,-0.9019,-0.8608,-0.8608,-0.8608,-0.8608,-0.8625,-0.8842,-0.874,-0.8515,-0.8374,-0.8143,-0.8045,-0.8038,-0.7957,-0.7807,-0.7665,-0.7482,-0.7261,-0.7037,-0.6895,-0.6827,-0.6827,-0.6865,-0.6926,-0.6929,-0.6963,-0.6934,-0.5734,-0.5636,-0.6599,-0.616,-0.5846,-0.5651,-0.6146,-0.6894,-0.7897,-0.8813,-0.9739,-1.0783,-1.2271,-1.3738,-1.5163,-1.572,-1.6567,-1.793,-1.7783,-1.7593,-1.7523,-1.7335,-1.7102,0.0,0.0,0.0,0.0,0.0,0.0,0.0,0.0,0.0,0.0,0.0,-1.7903,-1.7912,-1.7729,-1.762,-1.7693,-1.7666,-1.7754,-1.7988,-1.7849,-1.7824,-1.8222,-1.8136,-1.8204,-1.8825,-1.8926,-1.9014,-1.9258,-1.9482,-1.9707,-1.9893,-2.0127,-2.0352,-2.0527,-2.0576,-2.0664,-2.0879,-2.0723,-2.0723,-2.1162,-2.148,-2.1683,-2.1954,-2.2133,-2.2188,-2.2188,-2.2188,-2.2188,-2.2188,-2.2199,-2.2199,-2.2199,-2.2199,-2.2188,-2.2339,-2.301,-2.3666,-2.4047,-2.4811,-2.5394,-0.7166,-0.9476,-0.9217,-0.9154,-0.913,-0.8718,-0.8492,-0.8509,-0.8489,-0.8496,-0.8526,-0.8811,-0.8771,-0.8486,-0.8374,-0.8213,-0.8045,-0.8038,-0.7957,-0.7804,-0.7665,-0.7448,-0.717,-0.7111,-0.7055,-0.701,-0.7007,-0.7077,-0.7125,-0.7042,-0.7021,-0.7041,-0.5779,-0.5645,-0.6612,-0.5843,-0.5328,-0.5092,-0.6225,-0.7202,-0.8045,-0.9048,-0.9938,-1.0836,-1.1793,-1.3164,-1.4887,-1.5163,-1.6018,-1.7725,-1.793,-1.8138,-1.8338,-1.8361,-1.8216,0.0,-1.8226,0.0,0.0,0.0,0.0,0.0,0.0,0.0,0.0,-1.645,-1.6586,-1.7082,-1.7111,-1.7264,-1.7619,-1.7657,-1.7657,-1.7579,-1.6932,-1.6842,-1.7995,-1.7466,-1.7451,-1.8783,-1.8967,-1.8976,-1.9092,-1.9199,-1.9443,-1.9756,-1.998,-2.0195,-2.0478,-2.0576,-2.0576,-2.0576,-2.0576,-2.0723,-2.1103,-2.1162,-2.1123,-2.1162,-2.1017,-2.0586,-2.0722,-2.0722,-2.0644,-2.0644,-2.0712,-2.0722,-2.0566,-2.0644,-2.0644,-2.0799,-2.1375,-2.2051,-2.2678,-2.349,-2.3965,-0.6877,-1.0803,-1.0745,-1.0672,-1.0534,-0.9136,-0.8554,-0.8659,-0.8537,-0.855,-0.8676,-0.8859,-0.8771,-0.8489,-0.8479,-0.8319,-0.8041,-0.8038,-0.7957,-0.7807,-0.7665,-0.7502,-0.7413,-0.814,-0.8475,-0.8438,-0.8529,-0.8545,-0.8491,-0.7537,-0.7027,-0.7051,-0.5957,-0.5505,-0.5684,0.0,0.0,0.0,-0.7407,-0.8116,-0.8216,-0.9901,-1.0964,-1.1112,-1.1896,0.0,-1.3954,-1.4807,-1.5728,-1.6784,-1.7569,0.0,0.0,0.0,0.0,0.0,0.0,0.0,0.0,0.0,0.0,0.0,-1.6202,-1.5538,-1.5532,-1.5155,-1.5078,-1.5583,-1.5625,-1.5651,-1.572,-1.5737,-1.5728,-1.5728,-1.5587,-1.5613,-1.5822,-1.5689,-1.6016,-1.6994,-1.7073,-1.7381,-1.8103,-1.8838,-1.9297,-1.936,-2.001,-2.0439,-2.0624,-2.0576,-2.0576,-2.0576,-2.0576,-2.0732,-2.1162,-2.0937,-2.085,-2.1055,-2.0859,-2.0596,-2.0576,-2.0576,-2.0576,-2.0576,-2.0576,-2.0576,-2.0576,-2.0576,-2.0576,-2.0576,-2.0789,-2.1024,-2.1607,-2.2441,-2.2912,-0.7603,-1.1224,-1.1688,-1.1608,0.0,-0.9843,-0.9338,-0.9414,-0.8793,-0.8608,-0.8818,-0.8747,-0.8628,-0.8479,-0.83,-0.815,-0.8038,-0.7963,-0.7845,-0.7702,-0.8102,-0.8307,-0.8143,-0.9192,-0.9749,-0.9749,-0.9148,-0.889,-0.8803,-0.7665,-0.7139,-0.7051,-0.5983,-0.5714,-0.6245,-0.6708,-0.7079,-0.7432,-0.7992,-0.8617,-0.9546,-1.064,-1.142,-1.196,-1.2372,0.0,0.0,0.0,0.0,0.0,0.0,0.0,0.0,-1.6714,0.0,-1.7825,-1.7506,-1.7688,-1.8507,-1.743,-1.6629,-1.652,-1.5225,-1.4654,-1.518,-1.4991,-1.4965,-1.5138,-1.5163,-1.5163,-1.5163,-1.5163,-1.5163,-1.5163,-1.4736,-1.4593,-1.5021,-1.4736,-1.4871,-1.572,-1.5939,-1.6079,-1.6524,-1.7608,-1.83,-1.8609,-1.9589,-2.0332,-2.0518,-2.0576,-2.0576,-2.0576,-2.0576,-2.0644,-2.083,-2.0742,-2.0625,-2.082,-2.0713,-2.0586,-2.0576,-2.0576,-2.0576,-2.0576,-2.0576,-2.0576,-2.0576,-2.0576,-2.0576,-2.0576,-2.0576,-2.0574,-2.0751,-2.1429,-2.1886,-0.897,-1.1476,-1.2689,-1.2595,-1.148,-1.0813,-1.0483,-1.0217,-0.9216,0.0,0.0,-0.8742,-0.8615,-0.8472,-0.825,-0.8103,-0.8035,-0.7909,-0.7856,-0.7966,-0.8738,-0.9178,-0.924,-1.0351,-1.0778,-1.0524,-0.9666,-0.9061,-0.889,-0.7665,-0.7139,-0.7051,-0.6313,-0.6461,-0.7567,-0.8264,-0.8677,-0.8831,-0.8716,-0.9419,-1.095,-1.1349,-1.1895,-1.2746,-1.2768,-1.3037,-1.3775,-1.3741,-1.4149,-1.5219,-1.5512,-1.5642,-1.5871,-1.587,-1.6363,-1.7239,-1.6809,-1.6868,-1.7561,-1.6556,-1.5672,-1.5259,-1.4106,-1.3818,-1.4665,-1.4665,-1.4665,-1.4665,-1.4665,-1.4665,-1.4657,-1.4665,-1.4665,-1.4657,-1.3954,-1.381,-1.4522,-1.3954,-1.381,-1.4736,-1.495,-1.5054,-1.535,-1.6327,-1.7278,-1.7988,-1.9042,-1.9975,-2.0469,-2.0576,-2.0576,-2.0576,-2.0576,-2.0576,-2.0576,-2.0586,-2.0576,-2.0596,-2.0586,-2.0576,-2.0576,-2.0576,-2.0576,-2.0576,-2.0576,-2.0576,-2.0576,-2.0576,-2.0576,-2.0576,-2.0566,-2.0459,-2.0213,-2.0612,-2.0927,-1.1249,-1.2654,-1.4102,-1.4493,-1.397,-1.2576,-1.1364,-1.0389,-1.0059,-0.9488,-0.8737,-0.8699,-0.8608,-0.8482,-0.8459,-0.8299,-0.8045,-0.8018,-0.8337,-0.9072,-0.9229,-0.966,-1.0448,-1.1552,-1.1552,-1.0611,-1.0443,-0.9836,-0.889,-0.7665,-0.7139,-0.721,-0.7699,-0.84,-0.9302,-0.9341,-0.9785,-1.0578,-1.0869,-1.1084,-1.12,-1.2126,-1.2662,-1.2815,-1.2498,-1.2439,-1.258,-1.3266,-1.3768,-1.3958,-1.5024,-1.5511,-1.5345,-1.5471,-1.5766,-1.6068,-1.5971,-1.6105,-1.6564,-1.5348,-1.4156,-1.2903,-1.2613,-1.2586,-1.2659,-1.2732,-1.2732,-1.2739,-1.2806,-1.2732,-1.2732,-1.2806,-1.2806,-1.2806,-1.2586,-1.2592,-1.2806,-1.2666,-1.2879,-1.381,-1.389,-1.4367,-1.5202,-1.5997,-1.6817,-1.7902,-1.8715,-1.9524,-2.0294,-2.0576,-2.0576,-2.0576,-2.0576,-2.0576,-2.0576,-2.0576,-2.0576,-2.0576,-2.0576,-2.0576,-2.0576,-2.0576,-2.0576,-2.0576,-2.0576,-2.0576,-2.0576,-2.0576,-2.0576,-2.0576,-2.0576,-2.0518,-2.043,-2.0641,-2.0371,-1.2191,-1.4091,-1.5409,-1.5398,-1.433,-1.2809,-1.1484,-1.0431,-1.0351,-0.9692,-0.8804,-0.8662,-0.8547,-0.8479,-0.8401,-0.8248,-0.8035,-0.7953,-0.8129,-0.8551,-0.8918,-0.9732,-1.0705,-1.1186,-1.1381,-1.1472,-1.0265,-0.9405,-0.8886,-0.8364,-0.7971,-0.788,-0.89,-0.9568,-0.9965,-1.0513,-1.1025,-1.1508,-1.1216,-1.1318,-1.1828,-1.2431,-1.2822,-1.2822,-1.2605,-1.2538,-1.2545,-1.2829,-1.3029,-1.3205,-1.3783,-1.4096,-1.414,-1.4273,-1.4576,-1.5169,-1.4721,-1.4638,-1.5273,-1.4,-1.2959,-1.2311,-1.2305,-1.2305,-1.2305,-1.2305,-1.2305,-1.2305,-1.2305,-1.2305,-1.2305,-1.2305,-1.2305,-1.2305,-1.2305,-1.2305,-1.2305,-1.2305,-1.2445,-1.2893,-1.3107,-1.3404,-1.3984,-1.505,-1.5866,-1.6719,-1.7899,-1.9186,-1.9687,-2.0245,-2.0576,-2.0576,-2.0576,-2.0576,-2.0576,-2.0576,-2.0576,-2.0576,-2.0576,-2.0576,-2.0576,-2.0576,-2.0576,-2.0576,-2.0576,-2.0576,-2.0576,-2.0576,-2.0576,-2.0576,-2.0576,-2.0576,-2.0557,-2.04,-2.0,-1.3018,-1.5122,-1.6201,-1.5886,-1.4582,-1.3243,-1.1991,-1.0854,-1.0589,-0.985,-0.8989,-0.8652,-0.8516,-0.8472,-0.8367,-0.8218,-0.8038,-0.7916,-0.7942,-0.8265,-0.8862,-0.9804,-1.0731,-1.0705,-1.0947,-1.1365,-0.9777,-0.8869,-0.8835,-0.8869,-0.9052,-0.9212,-1.0114,-1.0674,-1.0875,-1.1782,-1.2198,-1.2161,-1.1666,-1.1734,-1.2437,-1.2748,-1.2822,-1.2822,-1.2755,-1.2721,-1.2714,-1.2425,-1.2412,-1.2701,-1.2782,-1.2832,-1.2993,-1.3073,-1.345,-1.4062,-1.3452,-1.3278,-1.3775,-1.2952,-1.2305,-1.2305,-1.2305,-1.2305,-1.2305,-1.2305,-1.2305,-1.2305,-1.2305,-1.2305,-1.2305,-1.2305,-1.2305,-1.2305,-1.2305,-1.2305,-1.2305,-1.2305,-1.2331,-1.2405,-1.2681,-1.2856,-1.3142,-1.4122,-1.5065,-1.5667,-1.7481,-1.8948,-1.9116,-1.9923,-2.0566,-2.0576,-2.0576,-2.0576,-2.0576,-2.0576,-2.0576,-2.0576,-2.0576,-2.0576,-2.0576,-2.0576,-2.0576,-2.0576,-2.0576,-2.0576,-2.0576,-2.0576,-2.0576,-2.0576,-2.0576,-2.0576,-2.0557,-2.0352,-2.0039,-1.4612,-1.5116,-1.6087,-1.6157,-1.553,-1.4368,-1.3206,-1.2206,-1.1146,-0.9958,-0.9127,-0.8764,-0.8718,-0.8492,-0.8465,-0.8306,-0.8055,-0.8024,-0.843,-0.9164,-0.9403,-1.0041,-1.0948,-1.0835,-1.0291,-0.954,-0.905,-0.8814,-0.8597,-0.8896,-0.9819,-1.1388,-1.1698,-1.2092,-1.2801,-1.3015,-1.3101,-1.3088,-1.3008,-1.3048,-1.3113,-1.2879,-1.2822,-1.2822,-1.2485,-1.2345,-1.2358,-1.2318,-1.2311,-1.2365,-1.2605,-1.2639,-1.2458,-1.2639,-1.2741,-1.256,-1.2466,-1.2446,-1.2493,-1.2392,-1.2305,-1.2305,-1.2305,-1.2305,-1.2305,-1.2305,-1.2305,-1.2305,-1.2305,-1.2305,-1.2305,-1.2305,-1.2305,-1.2305,-1.2305,-1.2305,-1.2305,-1.2305,-1.2405,-1.2761,-1.2795,-1.2939,-1.3373,-1.375,-1.4309,-1.533,-1.7187,-1.8718,-1.8886,-1.9766,-2.0489,-2.0566,-2.0576,-2.0576,-2.0576,-2.0576,-2.0576,-2.0576,-2.0576,-2.0576,-2.0576,-2.0576,-2.0576,-2.0576,-2.0576,-2.0576,-2.0576,-2.0576,-2.0576,-2.0576,-2.0576,-2.0576,-2.0566,-2.0508,-2.0342,-1.6647,-1.6285,-1.6625,-1.6373,-1.5714,-1.4558,-1.3913,-1.3534,-1.2421,-1.1786,-1.152,-1.145,-1.0353,-0.8615,-0.8523,-0.8367,-0.8177,-0.8082,-0.8206,-0.8619,-0.8527,-0.9049,-0.989,-0.9158,-0.9106,-0.9879,-0.9306,-0.9139,-0.9723,-1.0354,-1.1461,-1.2725,-1.2877,-1.3078,-1.3386,-1.346,-1.3554,-1.3714,-1.3554,-1.3547,-1.3634,-1.3158,-1.2824,-1.2743,-1.2446,-1.2305,-1.2305,-1.2305,-1.2305,-1.2311,-1.2418,-1.2432,-1.2311,-1.2425,-1.2351,-1.2078,-1.2044,-1.2124,-1.2291,-1.2305,-1.2305,-1.2305,-1.2305,-1.2305,-1.2305,-1.2305,-1.2305,-1.2305,-1.2305,-1.2305,-1.2305,-1.2305,-1.2305,-1.2305,-1.2305,-1.2305,-1.2305,-1.2305,-1.2365,-1.2492,-1.2806,-1.3093,-1.338,-1.3694,-1.4088,-1.4796,-1.6191,-1.7326,-1.7908,-1.8957,-1.9844,-2.0411,-2.0576,-2.0576,-2.0576,-2.0576,-2.0576,-2.0576,-2.0576,-2.0576,-2.0576,-2.0576,-2.0576,-2.0576,-2.0576,-2.0576,-2.0576,-2.0576,-2.0576,-2.0576,-2.0576,-2.0576,-2.0576,-2.0576,-2.0469,-1.8163,-1.7832,-1.7196,-1.6404,-1.577,-1.5052,-1.4618,-1.4456,-1.3669,-1.3376,-1.3254,-1.3264,-1.2107,-1.0138,-0.9406,-0.8813,-0.8364,-0.8109,-0.8038,-0.8024,-0.7919,-0.8193,-0.8827,-0.834,-0.8721,-0.9925,-0.9675,-0.9965,-1.1016,-1.1908,-1.2832,-1.3658,-1.3768,-1.3768,-1.3761,-1.3768,-1.3868,-1.4035,-1.3794,-1.3741,-1.3788,-1.3239,-1.2851,-1.2887,-1.2547,-1.2305,-1.2305,-1.2378,-1.2385,-1.2305,-1.2378,-1.2385,-1.2305,-1.2305,-1.2204,-1.2024,-1.1991,-1.2078,-1.2291,-1.2305,-1.2305,-1.2305,-1.2305,-1.2305,-1.2305,-1.2305,-1.2305,-1.2305,-1.2305,-1.2305,-1.2305,-1.2305,-1.2305,-1.2305,-1.2305,-1.2305,-1.2305,-1.2305,-1.2338,-1.2452,-1.2893,-1.3287,-1.3467,-1.3814,-1.4159,-1.4243,-1.5061,-1.6108,-1.7172,-1.831,-1.9441,-2.0401,-2.0566,-2.0576,-2.0576,-2.0576,-2.0576,-2.0576,-2.0576,-2.0576,-2.0576,-2.0576,-2.0576,-2.0576,-2.0576,-2.0576,-2.0576,-2.0576,-2.0576,-2.0576,-2.0576,-2.0576,-2.0576,-2.0576,-2.0576,-1.8926,-1.925,-1.723,-1.6126,-1.5865,-1.6049,-1.5531,-1.4695,-1.4826,-1.4334,-1.3573,-1.348,-1.3259,-1.2886,-1.1444,-0.984,-0.8466,-0.821,-0.8134,-0.8233,-0.8124,-0.8021,-0.8096,-0.8855,-0.9317,-0.9857,-1.0348,-1.1133,-1.2225,-1.3029,-1.3705,-1.4041,-1.4041,-1.4055,-1.4041,-1.4021,-1.4062,-1.4021,-1.3761,-1.3614,-1.3588,-1.3111,-1.2956,-1.3151,-1.2605,-1.2305,-1.2331,-1.2572,-1.2585,-1.2311,-1.2545,-1.2579,-1.2345,-1.2298,-1.2271,-1.2251,-1.2258,-1.2265,-1.2278,-1.2298,-1.2305,-1.2305,-1.2305,-1.2305,-1.2445,-1.2378,-1.2305,-1.2298,-1.2425,-1.2345,-1.2345,-1.2358,-1.2305,-1.2305,-1.2305,-1.2305,-1.2305,-1.2305,-1.2438,-1.2735,-1.3128,-1.3474,-1.3928,-1.4068,-1.4088,-1.425,-1.4977,-1.6026,-1.7009,-1.8149,-1.9283,-2.0167,-2.0566,-2.0576,-2.0576,-2.0576,-2.0576,-2.0576,-2.0576,-2.0576,-2.0576,-2.0576,-2.0576,-2.0576,-2.0576,-2.0576,-2.0576,-2.0576,-2.0576,-2.0576,-2.0576,-2.0576,-2.0576,-2.0576,-2.0576,-2.0187,-1.7251,-1.6373,-1.6032,-1.6126,-1.6226,-1.6236,-1.6247,-1.6356,-1.6248,-1.6143,-1.6068,-1.553,-1.4646,-1.3903,-1.2693,-1.1039,-0.9842,-0.9706,-1.0288,-0.9706,-0.9641,-1.0368,-1.0576,-1.0918,-1.1478,-1.1647,-1.2272,-1.3379,-1.38,-1.3975,-1.4062,-1.4088,-1.4088,-1.4055,-1.3901,-1.3801,-1.3774,-1.3514,-1.344,-1.3534,-1.3118,-1.2973,-1.3407,-1.2712,-1.2305,-1.2305,-1.2412,-1.2412,-1.2311,-1.2412,-1.2412,-1.2298,-1.2124,-1.2024,-1.2024,-1.2024,-1.2024,-1.2044,-1.2198,-1.2305,-1.2305,-1.2305,-1.2586,-1.2952,-1.2659,-1.2512,-1.299,-1.2964,-1.2813,-1.2706,-1.2549,-1.2305,-1.2305,-1.2305,-1.2365,-1.2305,-1.2305,-1.2566,-1.3245,-1.3787,-1.4135,-1.413,-1.4088,-1.4088,-1.4166,-1.4496,-1.5144,-1.6116,-1.7253,-1.831,-1.9362,-2.0167,-2.0576,-2.0576,-2.0576,-2.0576,-2.0576,-2.0576,-2.0576,-2.0576,-2.0576,-2.0576,-2.0576,-2.0576,-2.0576,-2.0576,-2.0576,-2.0576,-2.0576,-2.0576,-2.0576,-2.0576,-2.0576,-2.0576,-1.9936,-1.6135,-1.5843,-1.6005,-1.6273,-1.6373,-1.6687,-1.7244,-1.7248,-1.7402,-1.7562,-1.7589,-1.7041,-1.6237,-1.5903,-1.5269,-1.3901,-1.1854,-1.1264,-1.1948,-1.11,-1.0997,-1.1692,-1.1791,-1.2202,-1.2815,-1.2868,-1.3319,-1.4004,-1.4088,-1.4088,-1.4088,-1.4088,-1.4088,-1.4048,-1.3881,-1.3781,-1.3734,-1.35,-1.346,-1.3561,-1.316,-1.3073,-1.3333,-1.2806,-1.2445,-1.2445,-1.2538,-1.2492,-1.2345,-1.2392,-1.2398,-1.2291,-1.2118,-1.2011,-1.2011,-1.2017,-1.2011,-1.2024,-1.2198,-1.2305,-1.2298,-1.2497,-1.2876,-1.3445,-1.3064,-1.3226,-1.3512,-1.3531,-1.3378,-1.3278,-1.3016,-1.2792,-1.2806,-1.2949,-1.2869,-1.2601,-1.2677,-1.3068,-1.3756,-1.4615,-1.487,-1.4557,-1.458,-1.4482,-1.4166,-1.4088,-1.4573,-1.5545,-1.6273,-1.7415,-1.8709,-1.9599,-2.0157,-2.0401,-2.0576,-2.0576,-2.0576,-2.0576,-2.0576,-2.0576,-2.0576,-2.0576,-2.0576,-2.0576,-2.0576,-2.0576,-2.0576,-2.0576,-2.0576,-2.0576,-2.0576,-2.0576,-2.0576,-2.0576,-1.8038,-1.5901,-1.5843,-1.6039,-1.6333,-1.66,-1.6881,-1.7201,-1.7448,-1.7555,-1.7589,-1.7589,-1.7477,-1.7423,-1.7107,-1.7058,-1.6317,-1.3898,-1.2662,-1.2736,-1.2139,-1.2027,-1.225,-1.2772,-1.3056,-1.3153,-1.3719,-1.4004,-1.4088,-1.4088,-1.4088,-1.4088,-1.4088,-1.4088,-1.4088,-1.4028,-1.4021,-1.3908,-1.3654,-1.3574,-1.3601,-1.3293,-1.3173,-1.3227,-1.2926,-1.2815,-1.2802,-1.2966,-1.2812,-1.2398,-1.2552,-1.2585,-1.2345,-1.2271,-1.2278,-1.2231,-1.2265,-1.2285,-1.2258,-1.2278,-1.2298,-1.2298,-1.2742,-1.3094,-1.3299,-1.3559,-1.3798,-1.4006,-1.3941,-1.3892,-1.3884,-1.3876,-1.385,-1.3874,-1.397,-1.3793,-1.3374,-1.3472,-1.3865,-1.4372,-1.5304,-1.5814,-1.5412,-1.5383,-1.5306,-1.472,-1.4496,-1.4734,-1.5621,-1.6191,-1.6919,-1.8221,-1.9353,-2.0001,-2.0323,-2.0576,-2.0576,-2.0576,-2.0576,-2.0576,-2.0576,-2.0576,-2.0576,-2.0576,-2.0576,-2.0576,-2.0576,-2.0576,-2.0576,-2.0576,-2.0576,-2.0576,-2.0576,-2.0576,-2.0576,-1.7541,-1.589,-1.6092,-1.6306,-1.6593,-1.6887,-1.7181,-1.7442,-1.7555,-1.7589,-1.7589,-1.7589,-1.7589,-1.7569,-1.7482,-1.7442,-1.7291,-1.6018,-1.5252,-1.4857,-1.3808,-1.3593,-1.416,-1.4299,-1.411,-1.3857,-1.4005,-1.4088,-1.4088,-1.4088,-1.4088,-1.4088,-1.4088,-1.4088,-1.4075,-1.3888,-1.3701,-1.3467,-1.318,-1.312,-1.3293,-1.3053,-1.3086,-1.3427,-1.3227,-1.2973,-1.2842,-1.2645,-1.2498,-1.2311,-1.2385,-1.2398,-1.2325,-1.2305,-1.2204,-1.2051,-1.2198,-1.2191,-1.2058,-1.2184,-1.2211,-1.2188,-1.2685,-1.3286,-1.37,-1.3882,-1.4188,-1.4685,-1.465,-1.4421,-1.4504,-1.4727,-1.464,-1.3967,-1.399,-1.4063,-1.395,-1.4533,-1.5118,-1.5284,-1.6094,-1.6505,-1.6296,-1.6365,-1.634,-1.6226,-1.6108,-1.6198,-1.5944,-1.6919,-1.7577,-1.7989,-1.8957,-1.9844,-2.0089,-2.0245,-2.0255,-2.0411,-2.0489,-2.0566,-2.0576,-2.0576,-2.0576,-2.0576,-2.0576,-2.0576,-2.0576,-2.0576,-2.0576,-2.0576,-2.0576,-2.0576,-2.0576,-2.0576,-2.0576,-1.6847,-1.5865,-1.6152,-1.644,-1.672,-1.7027,-1.7315,-1.7562,-1.7589,-1.7589,-1.7589,-1.7589,-1.7589,-1.7589,-1.7589,-1.7589,-1.7515,-1.6974,-1.6607,-1.6281,-1.5204,-1.4905,-1.5279,-1.501,-1.4596,-1.4175,-1.4088,-1.4088,-1.4088,-1.4088,-1.4088,-1.4088,-1.4088,-1.4088,-1.4075,-1.3908,-1.3707,-1.352,-1.3367,-1.334,-1.3434,-1.324,-1.326,-1.3534,-1.3253,-1.2953,-1.2739,-1.2458,-1.2305,-1.2305,-1.2305,-1.2305,-1.2305,-1.2298,-1.2218,-1.2118,-1.2178,-1.2225,-1.2078,-1.2211,-1.2324,-1.2423,-1.3016,-1.3676,-1.4219,-1.438,-1.4764,-1.5157,-1.5096,-1.4958,-1.4972,-1.5172,-1.5078,-1.4559,-1.4698,-1.4707,-1.4827,-1.5551,-1.5989,-1.6191,-1.6938,-1.7195,-1.7,-1.7157,-1.7145,-1.7166,-1.7171,-1.7172,-1.6683,-1.7415,-1.7658,-1.79,-1.839,-1.9116,-1.9756,-1.9923,-1.9932,-2.0089,-2.0245,-2.0489,-2.0576,-2.0576,-2.0576,-2.0576,-2.0576,-2.0576,-2.0576,-2.0576,-2.0576,-2.0576,-2.0576,-2.0576,-2.0576,-2.0576,-2.0566,-1.6086,-1.5885,-1.6166,-1.646,-1.6734,-1.7061,-1.7348,-1.7562,-1.7589,-1.7589,-1.7589,-1.7589,-1.7589,-1.7589,-1.7589,-1.7589,-1.7488,-1.7041,-1.6734,-1.654,-1.5945,-1.5611,-1.5311,-1.4781,-1.4376,-1.4142,-1.4088,-1.4088,-1.4088,-1.4088,-1.4088,-1.4088,-1.4088,-1.4088,-1.4068,-1.4068,-1.3988,-1.3928,-1.3928,-1.3901,-1.3948,-1.3748,-1.3506,-1.3499,-1.312,-1.2876,-1.2721,-1.2432,-1.2305,-1.2305,-1.2305,-1.2305,-1.2305,-1.2305,-1.2291,-1.2265,-1.2291,-1.2298,-1.2291,-1.2285,-1.2542,-1.3016,-1.3567,-1.4137,-1.4612,-1.5083,-1.5298,-1.5399,-1.5381,-1.5342,-1.5342,-1.5371,-1.5332,-1.541,-1.5511,-1.5679,-1.5905,-1.6306,-1.6506,-1.6826,-1.7665,-1.827,-1.7279,-1.7839,-1.7746,-1.7415,-1.7392,-1.751,-1.7476,-1.786,-1.8098,-1.8284,-1.8621,-1.8868,-1.9678,-2.0089,-2.001,-1.9678,-2.0001,-2.0479,-2.0566,-2.0566,-2.0576,-2.0576,-2.0566,-2.0566,-2.0576,-2.0576,-2.0576,-2.0576,-2.0576,-2.0576,-2.0547,-2.0518,-2.0508,-1.5899,-1.5892,-1.638,-1.6633,-1.6774,-1.7241,-1.7502,-1.7582,-1.7589,-1.7589,-1.7589,-1.7589,-1.7589,-1.7589,-1.7589,-1.7589,-1.7482,-1.7194,-1.6894,-1.6667,-1.6339,-1.5732,-1.5137,-1.4723,-1.4389,-1.4135,-1.4095,-1.4088,-1.4088,-1.4088,-1.4088,-1.4088,-1.4088,-1.4088,-1.4068,-1.3888,-1.3768,-1.3728,-1.354,-1.3587,-1.3748,-1.3694,-1.3534,-1.332,-1.3153,-1.2846,-1.2478,-1.2345,-1.2305,-1.2305,-1.2305,-1.2305,-1.2305,-1.2305,-1.2305,-1.2305,-1.2305,-1.2305,-1.2305,-1.2378,-1.2666,-1.3242,-1.3974,-1.4471,-1.48,-1.5524,-1.5673,-1.5518,-1.542,-1.542,-1.542,-1.542,-1.542,-1.542,-1.5576,-1.5749,-1.6047,-1.6395,-1.6768,-1.7225,-1.7794,-1.7995,-1.8151,-1.8256,-1.8467,-1.8481,-1.8526,-1.855,-1.8288,-1.8524,-1.8929,-1.9085,-1.9256,-1.9265,-1.952,-2.0001,-2.0001,-1.9441,-1.9747,-2.0459,-2.0547,-2.0547,-2.0557,-2.0576,-2.0566,-2.0566,-2.0566,-2.0576,-2.0576,-2.0576,-2.0576,-2.0566,-2.0449,-2.0391,-2.04,-1.491,-1.4843,-1.4977,-1.5334,-1.6005,-1.6533,-1.7041,-1.7582,-1.7589,-1.7589,-1.7589,-1.7589,-1.7589,-1.7589,-1.7589,-1.7589,-1.7542,-1.7275,-1.6981,-1.6667,-1.6259,-1.5732,-1.5144,-1.4744,-1.4401,-1.4269,-1.4148,-1.4088,-1.4088,-1.4088,-1.4088,-1.4088,-1.4088,-1.4088,-1.4082,-1.3935,-1.3828,-1.3788,-1.3554,-1.3534,-1.3801,-1.3581,-1.3387,-1.32,-1.31,-1.2772,-1.2371,-1.2305,-1.2305,-1.2305,-1.2305,-1.2305,-1.2305,-1.2305,-1.2305,-1.2298,-1.2659,-1.2739,-1.2592,-1.3018,-1.3581,-1.3956,-1.4618,-1.5099,-1.5492,-1.6007,-1.6133,-1.5518,-1.5576,-1.5576,-1.5449,-1.542,-1.542,-1.5439,-1.5576,-1.5781,-1.6115,-1.668,-1.707,-1.7402,-1.7744,-1.8076,-1.8369,-1.8506,-1.873,-1.8903,-1.9,-1.8963,-1.8836,-1.9416,-1.9662,-1.9554,-1.9112,-1.8797,-1.8802,-1.9245,-1.9714,-1.9266,-1.9835,-2.0537,-2.043,-2.0439,-2.0449,-2.0459,-2.0518,-2.0634,-2.0566,-2.0576,-2.0576,-2.0576,-2.0576,-2.0547,-2.0459,-2.0303,-2.0303,-1.3545,-1.3353,-1.2827,-1.3474,-1.4734,-1.5194,-1.6168,-1.7153,-1.7477,-1.7589,-1.7595,-1.7615,-1.7682,-1.7635,-1.7695,-1.7642,-1.7629,-1.7301,-1.6947,-1.6567,-1.6132,-1.5678,-1.5411,-1.496,-1.4656,-1.4449,-1.4235,-1.4135,-1.4102,-1.4088,-1.4088,-1.4088,-1.4088,-1.4088,-1.4082,-1.4062,-1.4082,-1.4015,-1.3821,-1.3801,-1.3935,-1.3667,-1.3434,-1.328,-1.2946,-1.2699,-1.2445,-1.2338,-1.2305,-1.2305,-1.2305,-1.2305,-1.2305,-1.2305,-1.2452,-1.2592,-1.3171,-1.331,-1.3018,-1.4227,-1.5047,-1.4982,-1.5521,-1.6057,-1.6239,-1.6611,-1.6455,-1.5635,-1.5879,-1.5898,-1.5615,-1.5478,-1.5478,-1.5557,-1.5859,-1.6086,-1.6331,-1.6875,-1.7373,-1.7373,-1.7695,-1.7959,-1.8096,-1.8301,-1.8574,-1.8545,-1.8769,-1.8792,-1.8812,-1.9054,-1.9307,-1.9389,-1.8807,-1.8052,-1.8197,-1.837,-1.8896,-1.9071,-1.9974,-2.0498,-2.0244,-2.0215,-2.0254,-2.0312,-2.0488,-2.0566,-2.0566,-2.0576,-2.0576,-2.0576,-2.0576,-2.0576,-2.0537,-2.0322,-2.0234,-1.2521,-1.2494,-1.2688,-1.299,-1.3488,-1.4769,-1.5636,-1.6074,-1.7147,-1.7595,-1.7635,-1.7829,-1.7923,-1.7929,-1.8003,-1.7949,-1.8016,-1.766,-1.6982,-1.6346,-1.6012,-1.5818,-1.5658,-1.5427,-1.4993,-1.4649,-1.4476,-1.4309,-1.4162,-1.4102,-1.4088,-1.4088,-1.4088,-1.4088,-1.4088,-1.4088,-1.4088,-1.4075,-1.4001,-1.3988,-1.4041,-1.3935,-1.3714,-1.3507,-1.3033,-1.2835,-1.2694,-1.2425,-1.2311,-1.2305,-1.2378,-1.2452,-1.2378,-1.2452,-1.2806,-1.331,-1.36,-1.4027,-1.4522,-1.4942,-1.5492,-1.6008,-1.6291,-1.6649,-1.7057,-1.7148,-1.6816,-1.6221,-1.6299,-1.6309,-1.5879,-1.5576,-1.5605,-1.5801,-1.6006,-1.6221,-1.6572,-1.7051,-1.7217,-1.7168,-1.7559,-1.8008,-1.8008,-1.8066,-1.8193,-1.8174,-1.8291,-1.8457,-1.8603,-1.876,-1.8867,-1.8984,-1.8798,-1.8218,-1.8323,-1.8648,-1.9202,-1.9467,-2.0188,-2.0527,-2.0273,-2.0195,-2.0312,-2.041,-2.0527,-2.0566,-2.0576,-2.0576,-2.0576,-2.0576,-2.0557,-2.0518,-2.0439,-2.0273,-2.0166,-1.036,-1.0636,-1.1704,-1.2562,-1.3495,-1.4945,-1.6036,-1.6668,-1.7311,-1.7669,-1.7776,-1.7849,-1.8217,-1.8963,-1.8837,-1.9062,-1.9531,-1.9014,-1.8163,-1.7512,-1.737,-1.7217,-1.6922,-1.6943,-1.6595,-1.5205,-1.4588,-1.4389,-1.4315,-1.4162,-1.4088,-1.4088,-1.4088,-1.4088,-1.4088,-1.4088,-1.4088,-1.4048,-1.3948,-1.3941,-1.4055,-1.3941,-1.3834,-1.3614,-1.3213,-1.2966,-1.2939,-1.2672,-1.2832,-1.3068,-1.3036,-1.2952,-1.3091,-1.3375,-1.3882,-1.4314,-1.4871,-1.4942,-1.5296,-1.6009,-1.6576,-1.6567,-1.7001,-1.7196,-1.7435,-1.7539,-1.7256,-1.668,-1.6514,-1.6484,-1.585,-1.5596,-1.5644,-1.5986,-1.626,-1.6484,-1.6748,-1.7119,-1.7314,-1.7197,-1.7627,-1.791,-1.8008,-1.8008,-1.8018,-1.8096,-1.8096,-1.8232,-1.8213,-1.835,-1.8408,-1.8496,-1.8574,-1.8537,-1.8651,-1.905,-1.984,-2.0053,-2.0343,-2.0537,-2.04,-2.04,-2.0459,-2.0478,-2.0459,-2.0557,-2.0576,-2.0576,-2.0576,-2.0576,-2.0537,-2.0459,-2.0371,-2.0273,-2.0156,-0.8511,-0.9198,-1.0891,-1.2557,-1.4087,-1.5603,-1.6926,-1.7855,-1.828,-1.8801,-1.8545,-1.8365,-1.9375,-2.0136,-2.0165,-2.068,-2.0913,-2.0647,-1.9311,-1.8494,-1.8806,-1.8603,-1.8303,-1.8517,-1.8232,-1.607,-1.5473,-1.5089,-1.4636,-1.4329,-1.4262,-1.4215,-1.4102,-1.4148,-1.4148,-1.4095,-1.4088,-1.4062,-1.3908,-1.3874,-1.4035,-1.3881,-1.3837,-1.3906,-1.3434,-1.3378,-1.3447,-1.3397,-1.3466,-1.4149,-1.4182,-1.4248,-1.4314,-1.4665,-1.5305,-1.5376,-1.6,-1.6149,-1.6219,-1.701,-1.751,-1.6853,-1.7501,-1.7794,-1.7666,-1.7725,-1.751,-1.7061,-1.6689,-1.6309,-1.5615,-1.5576,-1.5781,-1.6152,-1.6582,-1.6826,-1.6992,-1.7266,-1.7432,-1.7412,-1.7686,-1.7959,-1.8008,-1.8008,-1.8008,-1.8008,-1.8008,-1.8008,-1.8008,-1.8027,-1.8144,-1.8281,-1.8428,-1.874,-1.8933,-1.9226,-2.0019,-2.0166,-2.041,-2.0459,-2.0439,-2.0508,-2.0488,-2.0352,-2.0352,-2.0478,-2.0576,-2.0576,-2.0576,-2.0576,-2.0518,-2.0439,-2.0361,-2.0283,-2.0127,-0.9466,-1.0988,-1.2573,-1.3578,-1.4456,-1.6975,-1.8156,-1.8372,-2.046,-2.1346,-2.1028,-2.1168,-2.1231,-2.1691,-2.169,-2.1484,-2.1184,-2.076,-2.006,-1.9402,-1.9704,-1.9505,-1.9405,-1.9679,-1.9314,-1.8632,-1.7508,-1.6349,-1.5212,-1.4616,-1.479,-1.473,-1.4335,-1.4208,-1.4302,-1.4229,-1.4088,-1.4088,-1.4001,-1.4021,-1.4041,-1.4015,-1.4276,-1.4586,-1.4075,-1.403,-1.4352,-1.4455,-1.4369,-1.4343,-1.5723,-1.6234,-1.6017,-1.5587,-1.5728,-1.6219,-1.6567,-1.6862,-1.7285,-1.7647,-1.794,-1.7862,-1.794,-1.8008,-1.792,-1.792,-1.7686,-1.7207,-1.6611,-1.6123,-1.5996,-1.5889,-1.6172,-1.6572,-1.6963,-1.7353,-1.7637,-1.7764,-1.7648,-1.734,-1.7649,-1.8008,-1.8008,-1.8008,-1.8008,-1.8008,-1.8008,-1.8008,-1.8008,-1.8018,-1.8066,-1.8223,-1.8389,-1.8779,-1.9127,-1.9477,-1.9912,-1.9902,-2.0078,-2.0283,-2.0332,-2.0508,-2.0498,-2.0293,-2.0332,-2.0518,-2.0576,-2.0566,-2.0498,-2.0449,-2.042,-2.0391,-2.0078,-1.9805,-1.9883,-1.1012,-1.2956,-1.6196,-1.7706,-1.8242,-2.006,-2.0929,-2.0848,-2.1836,-2.2324,-2.2212,-2.2045,-2.2349,-2.2886,-2.2928,-2.2723,-2.2515,-2.2095,-2.1407,-2.0736,-2.1042,-2.0944,-2.0666,-2.0944,-2.0889,-2.0413,-1.9569,-1.8311,-1.6855,-1.6001,-1.5732,-1.5315,-1.4747,-1.4389,-1.4416,-1.4235,-1.4122,-1.4102,-1.4095,-1.4088,-1.4088,-1.4173,-1.4545,-1.5032,-1.5056,-1.5146,-1.5808,-1.5873,-1.5968,-1.6196,-1.6779,-1.7124,-1.7139,-1.7001,-1.6802,-1.7217,-1.7285,-1.7432,-1.793,-1.8008,-1.8008,-1.8008,-1.8008,-1.8008,-1.8008,-1.7949,-1.7725,-1.7148,-1.6816,-1.6309,-1.6084,-1.6154,-1.6396,-1.6934,-1.7275,-1.7502,-1.7871,-1.7978,-1.7581,-1.7129,-1.7436,-1.7706,-1.8008,-1.8008,-1.8008,-1.8008,-1.8008,-1.8037,-1.8057,-1.8144,-1.8223,-1.8428,-1.8633,-1.8848,-1.915,-1.9336,-1.958,-1.9609,-1.9775,-1.9971,-2.0117,-2.0234,-2.0244,-2.0127,-2.0283,-2.04,-2.0547,-2.0527,-2.042,-2.0283,-2.0176,-1.999,-1.957,-1.9355,-1.9443,-1.365,-1.5701,-1.9907,-2.1716,-2.2058,-2.3365,-2.3888,-2.3702,-2.3451,-2.3479,-2.3383,-2.2963,-2.33,-2.4034,-2.4152,-2.4103,-2.4394,-2.3894,-2.2891,-2.2106,-2.2403,-2.2492,-2.2217,-2.2403,-2.2501,-2.1676,-2.1551,-2.0597,-1.8596,-1.764,-1.7113,-1.687,-1.5864,-1.5161,-1.5161,-1.5088,-1.4631,-1.4182,-1.4175,-1.4247,-1.4426,-1.4657,-1.5184,-1.6039,-1.6144,-1.6464,-1.7238,-1.7375,-1.7338,-1.7437,-1.7688,-1.7759,-1.7978,-1.8008,-1.8008,-1.8008,-1.8008,-1.8008,-1.8008,-1.8008,-1.8008,-1.8008,-1.8008,-1.8008,-1.8008,-1.7939,-1.7715,-1.7051,-1.6855,-1.667,-1.6367,-1.637,-1.668,-1.7064,-1.7309,-1.735,-1.7464,-1.7382,-1.6968,-1.6826,-1.7139,-1.706,-1.6922,-1.7501,-1.7432,-1.7753,-1.7772,-1.8271,-1.8311,-1.8467,-1.8594,-1.8789,-1.8955,-1.9033,-1.9111,-1.9004,-1.915,-1.915,-1.9414,-1.9687,-1.9795,-1.9902,-1.9873,-1.9853,-1.9922,-2.0039,-2.0264,-2.0312,-2.0039,-1.9844,-1.9805,-1.959,-1.918,-1.9004,-1.9062,-1.8075,-2.0538,-2.244,-2.3255,-2.3756,-2.5173,-2.5532,-2.529,-2.5919,-2.6212,-2.5651,-2.5385,-2.5185,-2.5178,-2.4919,-2.4656,-2.4385,-2.3926,-2.3446,-2.288,-2.2979,-2.3076,-2.2891,-2.296,-2.3047,-2.2589,-2.2677,-2.148,-1.9945,-1.9115,-1.8921,-1.8742,-1.8073,-1.7692,-1.6781,-1.6491,-1.5748,-1.4763,-1.4542,-1.4914,-1.5506,-1.6273,-1.7016,-1.7547,-1.7464,-1.7468,-1.8258,-1.8503,-1.8497,-1.7782,-1.8561,-1.8657,-1.8193,-1.8008,-1.8008,-1.8008,-1.8008,-1.8008,-1.8008,-1.8008,-1.8008,-1.8008,-1.8008,-1.8008,-1.8008,-1.7988,-1.7803,-1.7393,-1.7275,-1.709,-1.6807,-1.6908,-1.7236,-1.7101,-1.6917,-1.6766,-1.6724,-1.6419,-1.6009,-1.5429,-1.5449,-1.5404,-1.528,-1.6062,-1.6793,-1.72,-1.7628,-1.8158,-1.8643,-1.8838,-1.8877,-1.9043,-1.9062,-1.9121,-1.8975,-1.8887,-1.8857,-1.8809,-1.9141,-1.9443,-1.9512,-1.958,-1.9521,-1.9521,-1.9551,-1.9463,-1.9463,-1.9443,-1.9404,-1.9404,-1.9365,-1.9111,-1.8779,-1.8711,-1.8682,-2.496,-2.4961,-2.6555,-2.6943,-2.6454,-2.6817,-2.6949,-2.6779,-2.6628,-2.6562,-2.6328,-2.5928,-2.5586,-2.533,-2.4648,-2.4248,-2.3984,-2.3652,-2.3506,-2.3408,-2.3291,-2.3271,-2.332,-2.3271,-2.3144,-2.3144,-2.3047,-2.2775,-2.1416,-2.0704,-2.0366,-2.0112,-1.9352,-1.8674,-1.8329,-1.7986,-1.7502,-1.6962,-1.6714,-1.6538,-1.6696,-1.7082,-1.7751,-1.8626,-1.8391,-1.8734,-1.9325,-1.9762,-1.9112,-1.8406,-1.8756,-1.8284,-1.7241,-1.7226,-1.7794,-1.7207,-1.7716,-1.8008,-1.8008,-1.8008,-1.8008,-1.8008,-1.8008,-1.8008,-1.8008,-1.7988,-1.7832,-1.7412,-1.7383,-1.7275,-1.7019,-1.6713,-1.6788,-1.6637,-1.6312,-1.5939,-1.5711,-1.5246,-1.4806,-1.4221,-1.3792,-1.3894,-1.4129,-1.5105,-1.6019,-1.6813,-1.7414,-1.8134,-1.8778,-1.9355,-1.9326,-1.9228,-1.9189,-1.9131,-1.8887,-1.8701,-1.8711,-1.875,-1.9082,-1.9297,-1.9268,-1.9268,-1.918,-1.8945,-1.8769,-1.8691,-1.8662,-1.8887,-1.9141,-1.9053,-1.8916,-1.8682,-1.8457,-1.832,-1.8359,-3.0974,-2.9474,-3.0427,-3.0214,-2.9262,-2.8545,-2.8167,-2.8038,-2.6731,-2.623,-2.6074,-2.5644,-2.5137,-2.4888,-2.4277,-2.4004,-2.3789,-2.3447,-2.3516,-2.3555,-2.3437,-2.3418,-2.3496,-2.3369,-2.3144,-2.3144,-2.3144,-2.296,-2.2775,-2.218,-2.1572,-2.1314,-2.0826,-2.0078,-1.9655,-1.9406,-1.902,-1.8185,-1.8414,-1.822,-1.7929,-1.8181,-1.8798,-1.9222,-1.952,-1.9719,-2.0256,-2.0371,-1.9497,-1.8221,-1.8192,-1.7675,-1.6404,-1.6862,-1.7501,-1.7285,-1.7794,-1.7794,-1.7784,-1.7784,-1.794,-1.8008,-1.8008,-1.8008,-1.8008,-1.7998,-1.793,-1.7607,-1.7588,-1.7578,-1.7406,-1.6691,-1.6483,-1.6156,-1.5562,-1.5155,-1.4736,-1.4204,-1.3829,-1.3404,-1.2968,-1.275,-1.3184,-1.4156,-1.5173,-1.6224,-1.7063,-1.8033,-1.8807,-1.9618,-1.9629,-1.9453,-1.9287,-1.9092,-1.8652,-1.8426,-1.8455,-1.8691,-1.9023,-1.9023,-1.8906,-1.8838,-1.876,-1.8467,-1.8203,-1.8203,-1.833,-1.8633,-1.8877,-1.8662,-1.8457,-1.834,-1.8174,-1.8047,-1.8135,-3.4722,-3.3813,-3.2598,-3.2096,-3.1759,-3.0232,-2.9534,-2.8959,-2.6754,-2.5771,-2.5605,-2.4941,-2.4531,-2.4394,-2.4248,-2.3994,-2.376,-2.376,-2.3789,-2.3662,-2.3428,-2.3506,-2.3594,-2.3486,-2.3193,-2.3193,-2.3232,-2.3223,-2.3057,-2.2979,-2.2755,-2.2824,-2.2261,-2.1859,-2.1469,-2.0961,-2.0166,-1.9583,-1.9689,-1.9605,-1.9488,-1.9808,-2.0521,-2.0312,-2.0372,-2.0313,-2.001,-2.0019,-1.9192,-1.7524,-1.7687,-1.726,-1.6395,-1.6793,-1.7207,-1.7432,-1.7784,-1.7716,-1.7432,-1.7501,-1.7862,-1.793,-1.8008,-1.793,-1.7794,-1.794,-1.7959,-1.791,-1.7842,-1.7881,-1.7619,-1.717,-1.6633,-1.6096,-1.5367,-1.4442,-1.3947,-1.3237,-1.2792,-1.2512,-1.2519,-1.2746,-1.3149,-1.4283,-1.4577,-1.5565,-1.7199,-1.8199,-1.8929,-1.9687,-1.9732,-1.9639,-1.9414,-1.9043,-1.8389,-1.8359,-1.8682,-1.876,-1.8916,-1.8691,-1.8398,-1.835,-1.8408,-1.8271,-1.8076,-1.8027,-1.8018,-1.8281,-1.8389,-1.8174,-1.8047,-1.8086,-1.8096,-1.8037,-1.8184,-3.5388,-3.4948,-3.4135,-3.299,-3.1639,-2.9995,-2.889,-2.8119,-2.6214,-2.5156,-2.4893,-2.4316,-2.4033,-2.3965,-2.3721,-2.3564,-2.3437,-2.3691,-2.3896,-2.3975,-2.3828,-2.3838,-2.3887,-2.3779,-2.3545,-2.3516,-2.3525,-2.3535,-2.3535,-2.331,-2.3164,-2.3135,-2.3222,-2.2853,-2.2482,-2.2287,-2.1677,-2.1293,-2.1221,-2.1135,-2.0619,-2.0745,-2.1016,-2.0615,-2.0576,-2.0342,-2.0,-1.9922,-1.8786,-1.7842,-1.7782,-1.706,-1.6368,-1.6872,-1.7217,-1.7364,-1.7716,-1.7647,-1.7295,-1.7217,-1.6922,-1.6655,-1.7148,-1.7784,-1.7364,-1.7647,-1.794,-1.7998,-1.8008,-1.8008,-1.7862,-1.7207,-1.648,-1.607,-1.5288,-1.4227,-1.3513,-1.2945,-1.2732,-1.2872,-1.3302,-1.3645,-1.4134,-1.4661,-1.4752,-1.5004,-1.6776,-1.8276,-1.9034,-1.9709,-1.9898,-1.9834,-1.9609,-1.9375,-1.8769,-1.8818,-1.8955,-1.8877,-1.8818,-1.8545,-1.8252,-1.8115,-1.8144,-1.8027,-1.8008,-1.8008,-1.8008,-1.8008,-1.8008,-1.8018,-1.8008,-1.8018,-1.8018,-1.8008,-1.8144,-3.5303,-3.5253,-3.4876,-3.3869,-3.2279,-3.0671,-2.9243,-2.8028,-2.63,-2.4809,-2.4023,-2.3711,-2.3603,-2.3496,-2.333,-2.3184,-2.3301,-2.3594,-2.4014,-2.4141,-2.415,-2.418,-2.4219,-2.4111,-2.3818,-2.376,-2.3896,-2.3926,-2.3496,-2.3389,-2.3535,-2.36,-2.356,-2.3454,-2.3047,-2.3115,-2.293,-2.2627,-2.2588,-2.2158,-2.1316,-2.1357,-2.1103,-2.0644,-2.0439,-2.0098,-1.9727,-1.9418,-1.8566,-1.7692,-1.7291,-1.7049,-1.6675,-1.6645,-1.7217,-1.7364,-1.7501,-1.7794,-1.7157,-1.6932,-1.614,-1.5807,-1.6645,-1.7001,-1.6991,-1.7432,-1.794,-1.8008,-1.8008,-1.8008,-1.794,-1.7217,-1.6636,-1.628,-1.5367,-1.4378,-1.4083,-1.3658,-1.352,-1.3528,-1.382,-1.4114,-1.5024,-1.5575,-1.5934,-1.6116,-1.7378,-1.8532,-1.8973,-1.9681,-2.0159,-2.0039,-1.9814,-1.958,-1.9336,-1.9238,-1.9092,-1.8789,-1.8711,-1.8545,-1.8311,-1.8144,-1.8018,-1.8008,-1.8008,-1.8008,-1.8008,-1.8008,-1.8008,-1.8008,-1.8008,-1.8008,-1.8008,-1.8008,-1.8008,-3.4751,-3.4738,-3.4688,-3.4585,-3.4057,-3.2738,-3.0984,-2.9172,-2.713,-2.518,-2.3769,-2.3466,-2.3291,-2.3291,-2.3242,-2.3144,-2.3262,-2.3633,-2.4053,-2.4307,-2.4434,-2.4424,-2.4443,-2.4355,-2.4111,-2.3564,-2.3809,-2.3926,-2.3281,-2.3437,-2.3897,-2.4389,-2.4382,-2.4125,-2.3222,-2.3144,-2.292,-2.2637,-2.293,-2.2275,-2.165,-2.1572,-2.1211,-2.0684,-2.0215,-1.9853,-1.9482,-1.9072,-1.8228,-1.739,-1.713,-1.6996,-1.6872,-1.6784,-1.7217,-1.7784,-1.7862,-1.7226,-1.5658,-1.621,-1.6,-1.5376,-1.6149,-1.6706,-1.6844,-1.7354,-1.8008,-1.8008,-1.8008,-1.8008,-1.7716,-1.7207,-1.6775,-1.628,-1.5438,-1.4822,-1.4522,-1.4545,-1.4418,-1.4505,-1.4305,-1.434,-1.5527,-1.6522,-1.7058,-1.7661,-1.8391,-1.8877,-1.9116,-1.9709,-2.0313,-2.0293,-2.0078,-1.9961,-1.9736,-1.9453,-1.9209,-1.8877,-1.8562,-1.8516,-1.834,-1.8135,-1.8047,-1.8027,-1.8008,-1.8008,-1.8008,-1.8008,-1.8008,-1.8008,-1.8008,-1.8008,-1.8008,-1.8008,-1.8008,-3.4173,-3.4148,-3.3784,-3.3633,-3.3471,-3.2539,-3.1187,-2.9537,-2.7521,-2.6018,-2.5274,-2.4628,-2.4211,-2.4049,-2.3464,-2.3232,-2.3262,-2.3935,-2.4355,-2.4414,-2.4687,-2.4824,-2.4844,-2.4766,-2.4492,-2.4189,-2.4297,-2.418,-2.3603,-2.3564,-2.4012,-2.4563,-2.5041,-2.4617,-2.4125,-2.3627,-2.3027,-2.29,-2.2783,-2.2353,-2.1738,-2.1533,-2.1191,-2.0576,-2.0127,-1.9697,-1.9316,-1.8887,-1.812,-1.7517,-1.747,-1.7432,-1.7423,-1.7432,-1.7647,-1.794,-1.794,-1.7432,-1.6498,-1.6419,-1.579,-1.5376,-1.5649,-1.6558,-1.6706,-1.7501,-1.7862,-1.8008,-1.8008,-1.8008,-1.7862,-1.7139,-1.6636,-1.6428,-1.5756,-1.5261,-1.5043,-1.5313,-1.5493,-1.5732,-1.5677,-1.6744,-1.7859,-1.8127,-1.8554,-1.8655,-1.9256,-1.9125,-1.9283,-1.9923,-2.0508,-2.0488,-2.0381,-2.0312,-2.0137,-1.9795,-1.9609,-1.9414,-1.8984,-1.8533,-1.8398,-1.8242,-1.8115,-1.8105,-1.8057,-1.8008,-1.8008,-1.8008,-1.8008,-1.8008,-1.8008,-1.8008,-1.8008,-1.8008,-1.8008,-3.4477,-3.4588,-3.4063,-3.4004,-3.3966,-3.2959,-3.1487,-2.9641,-2.7515,-2.6483,-2.6307,-2.563,-2.5378,-2.5041,-2.4296,-2.3714,-2.3737,-2.4094,-2.4404,-2.4512,-2.5049,-2.5117,-2.5137,-2.5156,-2.4746,-2.4521,-2.4453,-2.4346,-2.3525,-2.3428,-2.4222,-2.5274,-2.5703,-2.5786,-2.521,-2.4125,-2.3125,-2.2988,-2.2764,-2.2298,-2.1841,-2.1471,-2.1055,-2.0537,-2.0059,-1.9609,-1.9336,-1.8906,-1.8389,-1.8203,-1.8105,-1.8027,-1.8018,-1.8008,-1.8008,-1.8008,-1.7579,-1.7217,-1.6706,-1.607,-1.5367,-1.4665,-1.586,-1.6489,-1.6775,-1.7501,-1.7862,-1.8008,-1.8008,-1.8008,-1.7862,-1.707,-1.6636,-1.6428,-1.6166,-1.567,-1.5705,-1.6061,-1.6395,-1.6641,-1.6874,-1.8326,-1.9603,-1.9955,-2.01,-2.006,-1.9991,-1.9678,-1.945,-2.0089,-2.0576,-2.0557,-2.0547,-2.0469,-2.0303,-2.0059,-1.9932,-1.9912,-1.9443,-1.8887,-1.8721,-1.8613,-1.8398,-1.8174,-1.8096,-1.8037,-1.8018,-1.8008,-1.8008,-1.8008,-1.8008,-1.8008,-1.8008,-1.8008,-1.8008,-3.562,-3.605,-3.5552,-3.5528,-3.5666,-3.3856,-3.1903,-2.9846,-2.7647,-2.673,-2.6719,-2.6719,-2.6543,-2.6307,-2.5378,-2.4872,-2.4805,-2.4736,-2.4683,-2.4761,-2.533,-2.5369,-2.5371,-2.5439,-2.4941,-2.4531,-2.4365,-2.4369,-2.3418,-2.4303,-2.5381,-2.6229,-2.7116,-2.6707,-2.563,-2.4467,-2.3347,-2.2997,-2.2578,-2.2142,-2.17,-2.1345,-2.0957,-2.0469,-1.9951,-1.9668,-1.9326,-1.8828,-1.8506,-1.833,-1.8242,-1.8105,-1.8037,-1.8018,-1.8008,-1.7794,-1.7217,-1.6991,-1.6784,-1.6219,-1.5869,-1.5658,-1.6289,-1.6567,-1.6784,-1.7217,-1.7794,-1.7862,-1.7794,-1.794,-1.7862,-1.7217,-1.6636,-1.6489,-1.6419,-1.6314,-1.6383,-1.6655,-1.7019,-1.7232,-1.7213,-1.8152,-1.9345,-2.0049,-2.0527,-2.0489,-2.0323,-2.0323,-2.0089,-2.0167,-2.0576,-2.0566,-2.0566,-2.0566,-2.041,-2.0244,-2.0195,-2.0156,-1.9756,-1.9277,-1.9131,-1.8955,-1.8691,-1.8447,-1.8184,-1.8066,-1.8027,-1.8008,-1.8008,-1.8008,-1.8008,-1.8008,-1.8008,-1.8008,-1.8008,-3.6125,-3.6225,-3.6522,-3.6286,-3.5352,-3.3914,-3.2777,-3.1791,-2.9799,-2.8882,-2.8791,-2.7947,-2.7683,-2.7522,-2.6532,-2.613,-2.5914,-2.5823,-2.563,-2.5665,-2.5589,-2.5614,-2.5625,-2.5586,-2.5059,-2.4668,-2.4443,-2.4623,-2.4812,-2.5678,-2.6267,-2.6659,-2.7775,-2.7035,-2.5953,-2.4713,-2.3846,-2.2903,-2.2453,-2.1909,-2.1448,-2.1024,-2.0762,-2.042,-2.001,-1.9756,-1.9394,-1.8906,-1.8633,-1.8584,-1.8262,-1.8115,-1.8447,-1.8193,-1.8008,-1.8008,-1.7716,-1.7638,-1.7569,-1.7364,-1.701,-1.6872,-1.7364,-1.6576,-1.6576,-1.6853,-1.7647,-1.7569,-1.7569,-1.7647,-1.7432,-1.6853,-1.6428,-1.628,-1.621,-1.628,-1.6498,-1.6922,-1.7295,-1.7655,-1.7641,-1.8204,-1.938,-2.0029,-2.0459,-2.0527,-2.0644,-2.0722,-2.0644,-2.0644,-2.0576,-2.0576,-2.0576,-2.0576,-2.0576,-2.0439,-2.043,-2.0352,-1.998,-1.9717,-1.9629,-1.9404,-1.9033,-1.8662,-1.8311,-1.8115,-1.8018,-1.8008,-1.8008,-1.8008,-1.8008,-1.8008,-1.8008,-1.8008,-1.8008,-3.7579,-3.7539,-3.7968,-3.7491,-3.6365,-3.4778,-3.396,-3.3418,-3.1752,-3.0784,-3.0266,-2.9654,-2.9123,-2.8609,-2.7695,-2.7139,-2.7056,-2.6335,-2.6034,-2.59,-2.5864,-2.5682,-2.5723,-2.5664,-2.5166,-2.4766,-2.4742,-2.5076,-2.553,-2.6837,-2.7602,-2.7371,-2.8187,-2.7602,-2.6685,-2.6146,-2.5207,-2.3835,-2.2633,-2.1771,-2.1289,-2.085,-2.0644,-2.0488,-2.0137,-1.9863,-1.9687,-1.9228,-1.8994,-1.9043,-1.873,-1.8497,-1.8615,-1.8223,-1.8008,-1.8008,-1.794,-1.793,-1.7862,-1.793,-1.7784,-1.7647,-1.7794,-1.6941,-1.6655,-1.6793,-1.7001,-1.707,-1.7217,-1.7217,-1.6784,-1.6428,-1.6219,-1.6,-1.6079,-1.6079,-1.6507,-1.6932,-1.748,-1.7978,-1.8368,-1.8825,-1.9453,-1.999,-2.0399,-2.0466,-2.0861,-2.1298,-2.1078,-2.0789,-2.0722,-2.0576,-2.0576,-2.0576,-2.0644,-2.0867,-2.076,-2.0633,-2.0371,-2.0156,-2.0088,-1.9746,-1.9277,-1.888,-1.8438,-1.8272,-1.8057,-1.8018,-1.8008,-1.8008,-1.8008,-1.8008,-1.8008,-1.8008,-1.8008,-3.9445,-3.9451,-3.9376,-3.874,-3.7998,-3.5915,-3.4946,-3.4903,-3.341,-3.2249,-3.1462,-3.1328,-3.067,-2.9781,-2.8966,-2.8402,-2.801,-2.7186,-2.6898,-2.6315,-2.6101,-2.5962,-2.6091,-2.5684,-2.5205,-2.506,-2.5308,-2.5704,-2.591,-2.7233,-2.8518,-2.8267,-2.9118,-2.8779,-2.7752,-2.745,-2.636,-2.4607,-2.3221,-2.2191,-2.1481,-2.0948,-2.0634,-2.0498,-2.0283,-2.0068,-2.0146,-1.9912,-1.9512,-1.9629,-1.9385,-1.8941,-1.8498,-1.8232,-1.8027,-1.8008,-1.8008,-1.8008,-1.8008,-1.8008,-1.7647,-1.751,-1.7442,-1.7079,-1.701,-1.7157,-1.7364,-1.7001,-1.707,-1.7217,-1.6932,-1.6793,-1.6645,-1.6507,-1.6428,-1.6645,-1.7001,-1.7364,-1.7666,-1.8135,-1.8418,-1.8838,-1.9076,-1.9649,-2.0571,-2.0527,-2.1033,-2.1849,-2.1889,-2.1456,-2.1314,-2.1161,-2.1146,-2.1374,-2.1461,-2.1527,-2.1165,-2.0981,-2.0797,-2.0566,-2.0419,-2.0017,-1.9546,-1.9095,-1.8594,-1.8291,-1.8115,-1.8057,-1.8008,-1.8008,-1.8008,-1.8008,-1.8008,-1.8076,-1.8076,-4.0411,-4.027,-3.9256,-3.84,-3.7464,-3.6053,-3.537,-3.537,-3.5008,-3.3822,-3.2451,-3.2249,-3.1756,-3.0807,-3.0417,-2.9961,-2.9199,-2.8303,-2.8422,-2.7875,-2.7179,-2.6826,-2.6873,-2.6416,-2.547,-2.5043,-2.5482,-2.662,-2.7394,-2.8555,-2.9365,-2.9365,-2.9792,-2.9275,-2.8311,-2.7992,-2.6894,-2.5404,-2.4426,-2.3112,-2.2097,-2.1696,-2.1431,-2.0904,-2.0487,-2.0301,-2.0272,-1.998,-1.9814,-1.9814,-1.9141,-1.8574,-1.8154,-1.8027,-1.8008,-1.8008,-1.8008,-1.8008,-1.8008,-1.8008,-1.7794,-1.7794,-1.7794,-1.7657,-1.7657,-1.7872,-1.7725,-1.7217,-1.6991,-1.7148,-1.7157,-1.7079,-1.7079,-1.6932,-1.6932,-1.7285,-1.7569,-1.7852,-1.8066,-1.8321,-1.8478,-1.8695,-1.8973,-1.9504,-2.0411,-2.1188,-2.1927,-2.2545,-2.2794,-2.2641,-2.2787,-2.2608,-2.231,-2.2342,-2.2391,-2.2339,-2.2048,-2.1821,-2.1714,-2.1288,-2.0867,-2.0472,-2.0131,-1.9272,-1.8715,-1.8586,-1.834,-1.8115,-1.8076,-1.8008,-1.8008,-1.8008,-1.8202,-1.8337,-1.8269,-4.118,-4.0617,-3.8883,-3.7954,-3.7279,-3.6105,-3.5489,-3.5489,-3.5504,-3.492,-3.3891,-3.3394,-3.2749,-3.1742,-3.1389,-3.1031,-3.0203,-2.9234,-2.8822,-2.8561,-2.8386,-2.7956,-2.7604,-2.7453,-2.701,-2.6468,-2.6755,-2.765,-2.8704,-2.9269,-2.9702,-2.9779,-2.9702,-2.9431,-2.8694,-2.8232,-2.7444,-2.6474,-2.5718,-2.4631,-2.3306,-2.2874,-2.2178,-2.1517,-2.1171,-2.0877,-2.0409,-2.0205,-2.0205,-1.9963,-1.9448,-1.8815,-1.8428,-1.8135,-1.8027,-1.8008,-1.8008,-1.8008,-1.8008,-1.8008,-1.8008,-1.8008,-1.8008,-1.7794,-1.7862,-1.794,-1.7569,-1.706,-1.6853,-1.6932,-1.6515,-1.6367,-1.6715,-1.6784,-1.7276,-1.7774,-1.825,-1.8654,-1.9044,-1.956,-1.9653,-1.9695,-1.9931,-2.0196,-2.1043,-2.1718,-2.2517,-2.328,-2.3582,-2.3629,-2.3875,-2.3816,-2.3351,-2.3142,-2.3036,-2.3084,-2.301,-2.285,-2.2691,-2.2478,-2.2136,-2.1439,-2.0731,-2.0083,-1.9505,-1.9089,-1.8836,-1.8502,-1.8144,-1.8076,-1.8008,-1.8008,-1.8269,-1.8462,-1.8337,-4.1885,-4.053,-3.8732,-3.781,-3.7403,-3.6231,-3.5604,-3.5474,-3.54,-3.5429,-3.5234,-3.4345,-3.3571,-3.2721,-3.2033,-3.1523,-3.0898,-3.003,-2.9431,-2.9178,-2.885,-2.8811,-2.8959,-2.9003,-2.8366,-2.8049,-2.8078,-2.8751,-2.9561,-2.9779,-2.9779,-2.9779,-2.9779,-2.9779,-2.9603,-2.905,-2.8176,-2.7618,-2.6941,-2.6257,-2.5242,-2.4181,-2.322,-2.2553,-2.2103,-2.1735,-2.1221,-2.1011,-2.1011,-2.0242,-1.9697,-1.8889,-1.8465,-1.8144,-1.8066,-1.8008,-1.8008,-1.8008,-1.8008,-1.8008,-1.8008,-1.8008,-1.8008,-1.7998,-1.8066,-1.7852,-1.7482,-1.7385,-1.7179,-1.6913,-1.6567,-1.648,-1.6895,-1.7385,-1.8017,-1.8586,-1.9044,-1.9507,-1.9955,-2.0526,-2.0549,-2.0571,-2.0738,-2.0995,-2.1664,-2.2287,-2.3017,-2.3789,-2.4366,-2.4333,-2.4396,-2.4321,-2.4014,-2.3793,-2.3971,-2.4036,-2.4181,-2.3818,-2.3661,-2.3599,-2.3285,-2.2182,-2.1474,-2.1129,-2.0562,-1.9921,-1.9389,-1.9065,-1.8654,-1.8299,-1.8076,-1.8076,-1.8259,-1.8462,-1.8395,-4.2398,-4.0078,-3.9745,-3.8873,-3.7623,-3.6723,-3.6054,-3.5464,-3.4985,-3.4966,-3.5126,-3.4778,-3.412,-3.3711,-3.3602,-3.289,-3.1341,-3.0636,-3.0441,-3.0282,-2.969,-2.9777,-2.9869,-2.9773,-2.9378,-2.918,-2.8974,-2.9217,-2.9686,-2.9779,-2.9779,-2.9779,-2.9779,-2.9741,-2.9603,-2.9013,-2.8247,-2.7846,-2.7231,-2.637,-2.6136,-2.5134,-2.4264,-2.3661,-2.322,-2.3073,-2.2925,-2.2936,-2.2264,-2.1177,-1.9843,-1.896,-1.8508,-1.8222,-1.8095,-1.8134,-1.8134,-1.8008,-1.8008,-1.8008,-1.8008,-1.8202,-1.8192,-1.823,-1.824,-1.8307,-1.82,-1.8619,-1.8419,-1.8345,-1.8133,-1.8275,-1.8598,-1.9236,-1.9868,-1.9944,-2.0204,-2.0333,-2.059,-2.0782,-2.091,-2.0921,-2.0955,-2.1498,-2.2286,-2.2977,-2.3827,-2.4529,-2.4853,-2.4884,-2.4883,-2.4611,-2.4345,-2.5277,-2.5733,-2.5533,-2.5499,-2.5063,-2.4636,-2.4552,-2.3976,-2.2607,-2.2029,-2.2054,-2.1396,-2.0719,-2.0194,-1.9663,-1.9204,-1.8843,-1.8231,-1.8066,-1.8327,-1.8654,-1.8777]},{"header":{"parameterUnit":"m.s-1","parameterCategory":1,"la1":31.0,"la2":29.5877,"lo1":-88.7671,"lo2":-86.6584,"dy":0.0162,"dx":0.0185,"nx":115,"ny":88,"refTime":"2024-03-16T18:00:00:Z","depth":0,"parameterNumber":3,"parameterNumberName":"V-component_of_WINDS"},"data":[0.0,0.0,0.0,0.0,0.0,0.0,0.0,0.0,0.0,0.0,0.0,0.0,0.0,0.0,0.0,0.0,0.0,0.0,0.0,0.0,0.0,0.0,0.0,0.0,0.0,0.0,0.0,0.0,0.0,0.0,0.0,0.0,0.0,0.0,0.0,0.0,0.0,0.0,0.0,0.0,0.0,0.0,0.0,0.0,0.0,0.0,0.0,0.0,0.0,0.0,0.0,0.0,0.0,0.0,0.0,0.0,0.0,0.0,0.0,0.0,0.0,0.0,0.0,0.0,0.0,0.0,0.0,0.0,0.0,0.0,0.0,0.0,0.0,0.0,0.0,0.0,0.0,0.0,0.0,0.0,0.0,0.0,0.0,0.0,0.0,0.0,0.0,0.0,0.0,0.0,0.0,0.0,0.0,0.0,0.0,0.0,0.0,0.0,0.0,0.0,0.0,0.0,0.0,0.0,0.0,0.0,0.0,0.0,0.0,0.0,0.0,0.0,0.0,0.0,0.0,0.0,0.0,0.0,0.0,0.0,0.0,0.0,0.0,0.0,0.0,0.0,0.0,0.0,0.0,0.0,0.0,0.0,0.0,0.0,0.0,0.0,0.0,0.0,0.0,0.0,0.0,0.0,0.0,0.0,0.0,0.0,0.0,0.0,0.0,0.0,0.0,0.0,0.0,0.0,0.0,0.0,0.0,0.0,0.0,0.0,0.0,0.0,0.0,0.0,0.0,0.0,0.0,0.0,0.0,0.0,0.0,0.0,0.0,0.0,0.0,0.0,0.0,0.0,0.0,0.0,0.0,0.0,0.0,0.0,0.0,0.0,0.0,0.0,0.0,0.0,0.0,0.0,0.0,0.0,0.0,0.0,0.0,0.0,0.0,0.0,0.0,0.0,0.0,0.0,0.0,0.0,0.0,0.0,0.0,0.0,0.0,0.0,0.0,0.0,0.0,0.0,0.0,0.0,0.0,0.0,0.0,0.0,0.0,0.0,0.0,0.0,0.0,0.0,0.0,0.0,0.0,0.0,0.0,0.0,0.0,0.0,0.0,0.0,0.0,0.0,0.0,0.0,0.0,0.0,0.0,0.0,0.0,0.0,0.0,0.0,0.0,0.0,0.0,0.0,0.0,0.0,0.0,0.0,0.0,0.0,0.0,0.0,0.0,0.0,0.0,0.0,0.0,0.0,0.0,0.0,0.0,0.0,0.0,0.0,0.0,0.0,0.0,0.0,0.0,0.0,0.0,0.0,0.0,0.0,0.0,0.0,0.0,0.0,0.0,0.0,0.0,0.0,0.0,0.0,0.0,0.0,0.0,0.0,0.0,0.0,0.0,0.0,0.0,0.0,0.0,0.0,0.0,0.0,0.0,0.0,0.0,0.0,0.0,0.0,0.0,0.0,0.0,0.0,0.0,0.0,0.0,0.0,0.0,0.0,0.0,0.0,0.0,0.0,0.0,0.0,0.0,0.0,0.0,0.0,0.0,0.0,0.0,0.0,0.0,0.0,0.0,0.0,0.0,0.0,0.0,0.0,0.0,0.0,0.0,0.0,0.0,0.0,0.0,0.0,0.0,0.0,0.0,0.0,0.0,0.0,0.0,0.0,0.0,0.0,0.0,0.0,0.0,0.0,0.0,0.0,0.0,0.0,0.0,0.0,0.0,0.0,0.0,0.0,0.0,0.0,0.0,0.0,0.0,0.0,0.0,0.0,0.0,0.0,0.0,0.0,0.0,0.0,0.0,0.0,0.0,0.0,0.0,0.0,0.0,0.0,0.0,0.0,0.0,0.0,0.0,0.0,0.0,0.0,0.0,0.0,0.0,0.0,0.0,0.0,0.0,0.0,0.0,0.0,0.0,0.0,0.0,0.0,0.0,0.0,0.0,0.0,0.0,0.0,0.0,0.0,0.0,0.0,0.0,0.0,0.0,0.0,0.0,0.0,0.0,0.0,0.0,0.0,0.0,0.0,0.0,0.0,0.0,0.0,0.0,0.0,0.0,0.0,0.0,0.0,0.0,0.0,0.0,0.0,0.0,0.0,0.0,0.0,0.0,0.0,0.0,0.0,0.0,0.0,0.0,0.0,0.0,0.0,0.0,0.0,0.0,0.0,0.0,0.0,0.0,0.0,0.0,0.0,0.0,0.0,0.0,0.0,0.0,0.0,0.0,0.0,0.0,0.0,0.0,0.0,0.0,0.0,0.0,0.0,0.0,0.0,0.0,0.0,0.0,0.0,0.0,0.0,0.0,0.0,0.0,0.0,0.0,0.0,0.0,0.0,0.0,0.0,0.0,0.0,0.0,0.0,0.0,0.0,0.0,0.0,0.0,0.0,0.0,0.0,0.0,0.0,0.0,0.0,0.0,0.0,0.0,0.0,0.0,0.0,0.0,0.0,0.0,0.0,0.0,0.0,0.0,0.0,0.0,0.0,0.0,0.0,0.0,0.0,0.0,0.0,0.0,0.0,0.0,0.0,0.0,0.0,0.0,0.0,0.0,0.0,0.0,0.0,0.0,0.0,0.0,0.0,0.0,0.0,0.0,0.0,0.0,0.0,0.0,0.0,0.0,0.0,0.0,0.0,0.0,0.0,0.0,0.0,0.0,0.0,0.0,0.0,0.0,0.0,0.0,0.0,0.0,0.0,0.0,0.0,0.0,0.0,0.0,0.0,0.0,0.0,0.0,0.0,0.0,0.0,0.0,0.0,0.0,0.0,0.0,0.0,0.0,0.0,0.0,0.0,0.0,0.0,0.0,0.0,0.0,0.0,0.0,0.0,0.0,0.0,0.0,0.0,0.0,0.0,0.0,0.0,0.0,0.0,0.0,0.0,0.0,0.0,0.0,0.0,0.0,0.0,0.0,0.0,0.0,0.0,0.0,0.0,0.0,0.0,0.0,0.0,0.0,0.0,0.0,0.0,0.0,0.0,0.0,0.0,0.0,0.0,0.0,0.0,0.0,0.0,0.0,0.0,0.0,0.0,0.0,0.0,0.0,0.0,0.0,0.0,0.0,0.0,0.0,0.0,0.0,0.0,0.0,0.0,0.0,0.0,0.0,0.0,0.0,0.0,0.0,0.0,0.0,0.0,0.0,0.0,0.0,0.0,0.0,0.0,0.0,0.0,0.0,0.0,0.0,0.0,0.0,0.0,0.0,0.0,0.0,0.0,0.0,0.0,0.0,0.0,0.0,0.0,0.0,0.0,0.0,0.0,0.0,0.0,0.0,0.0,0.0,0.0,0.0,0.0,0.0,0.0,0.0,0.0,0.0,0.0,0.0,0.0,0.0,0.0,0.0,0.0,0.0,0.0,0.0,0.0,0.0,0.0,0.0,0.0,0.0,0.0,0.0,0.0,0.0,0.0,0.0,0.0,0.0,0.0,0.0,0.0,0.0,0.0,0.0,0.0,0.0,0.0,0.0,0.0,0.0,0.0,0.0,0.0,0.0,0.0,0.0,0.0,0.0,0.0,0.0,0.0,0.0,0.0,0.0,0.0,0.0,0.0,0.0,0.0,0.0,0.0,0.0,0.0,0.0,0.0,0.0,0.0,0.0,0.0,0.0,0.0,0.0,0.0,0.0,0.0,0.0,0.0,0.0,0.0,0.0,0.0,0.0,0.0,0.0,0.0,0.0,0.0,0.0,0.0,0.0,0.0,0.0,0.0,0.0,0.0,0.0,0.0,0.0,0.0,0.0,0.0,0.0,0.0,0.0,0.0,0.0,0.0,0.0,0.0,0.0,0.0,0.0,0.0,0.0,0.0,0.0,0.0,0.0,0.0,0.0,0.0,0.0,0.0,0.0,0.0,0.0,0.0,0.0,0.0,0.0,0.0,0.0,0.0,0.0,0.0,0.0,0.0,0.0,0.0,0.0,0.0,0.0,0.0,0.0,0.0,0.0,0.0,0.0,0.0,0.0,0.0,0.0,0.0,0.0,0.0,0.0,0.0,0.0,0.0,0.0,0.0,0.0,0.0,0.0,0.0,0.0,0.0,0.0,0.0,0.0,0.0,0.0,0.0,0.0,0.0,0.0,0.0,0.0,0.0,0.0,0.0,0.0,0.0,0.0,0.0,0.0,0.0,0.0,0.0,0.0,0.0,0.0,0.0,0.0,0.0,0.0,0.0,0.0,0.0,0.0,0.0,0.0,0.0,0.0,0.0,0.0,0.0,0.0,0.0,0.0,0.0,0.0,0.0,0.0,0.0,0.0,0.0,0.0,0.0,0.0,0.0,0.0,0.0,0.0,0.0,0.0,0.0,0.0,0.0,0.0,0.0,0.0,0.0,2.0926,0.0,0.0,0.0,0.0,0.0,0.0,0.0,0.0,0.0,0.0,0.0,0.0,0.0,0.0,0.0,0.0,0.0,0.0,0.0,0.0,0.0,0.0,0.0,0.0,0.0,0.0,0.0,0.0,0.0,0.0,0.0,0.0,0.0,0.0,0.0,0.0,0.0,0.0,0.0,0.0,0.0,0.0,0.0,0.0,0.0,0.0,0.0,0.0,0.0,0.0,0.0,0.0,0.0,0.0,0.0,0.0,0.0,0.0,0.0,0.0,0.0,0.0,0.0,0.0,0.0,0.0,0.0,0.0,0.0,0.0,0.0,0.0,0.0,0.0,0.0,0.0,0.0,0.0,0.0,0.0,0.0,0.0,0.0,0.0,0.0,0.0,0.0,0.0,0.0,0.0,0.0,0.0,0.0,0.0,0.0,0.0,0.0,0.0,0.0,0.0,0.0,0.0,0.0,0.0,0.0,0.0,0.0,0.0,0.0,0.0,2.0576,1.9696,2.1192,2.1778,2.1339,0.0,0.0,0.0,0.0,0.0,0.0,0.0,0.0,0.0,0.0,0.0,0.0,0.0,0.0,0.0,0.0,0.0,0.0,0.0,0.0,0.0,0.0,0.0,0.0,0.0,0.0,0.0,0.0,0.0,0.0,0.0,0.0,0.0,0.0,0.0,0.0,0.0,0.0,0.0,0.0,0.0,0.0,0.0,0.0,0.0,0.0,0.0,0.0,0.0,0.0,0.0,0.0,0.0,0.0,0.0,0.0,0.0,0.0,0.0,0.0,0.0,0.0,0.0,0.0,0.0,0.0,0.0,0.0,0.0,0.0,0.0,0.0,0.0,0.0,0.0,0.0,0.0,0.0,0.0,0.0,0.0,0.0,0.0,0.0,0.0,0.0,0.0,0.0,0.0,0.0,0.0,0.0,0.0,0.0,0.0,0.0,0.0,0.0,0.0,0.0,0.0,0.0,0.0,0.0,0.0,0.0,0.0,0.0,0.0,0.0,0.0,0.0,2.1633,2.2338,2.1994,0.0,0.0,0.0,0.0,0.0,0.0,0.0,0.0,0.0,0.0,0.0,0.0,0.0,0.0,0.0,0.0,0.0,0.0,0.0,0.0,0.0,0.0,0.0,0.0,0.0,0.0,0.0,0.0,0.0,0.0,0.0,0.0,0.0,0.0,0.0,0.0,0.0,0.0,0.0,0.0,0.0,0.0,0.0,0.0,0.0,0.0,0.0,0.0,0.0,0.0,0.0,0.0,0.0,0.0,0.0,0.0,0.0,0.0,0.0,0.0,0.0,0.0,0.0,0.0,0.0,0.0,0.0,0.0,0.0,0.0,0.0,0.0,0.0,0.0,0.0,0.0,0.0,0.0,0.0,0.0,0.0,0.0,0.0,0.0,0.0,0.0,0.0,0.0,0.0,0.0,0.0,0.0,0.0,0.0,0.0,0.0,0.0,0.0,0.0,0.0,0.0,0.0,0.0,0.0,0.0,0.0,0.0,0.0,0.0,0.0,2.1103,2.1346,2.1861,0.0,2.3021,0.0,0.0,0.0,0.0,0.0,0.0,0.0,0.0,0.0,0.0,0.0,0.0,0.0,0.0,0.0,0.0,0.0,0.0,0.0,0.0,0.0,0.0,0.0,0.0,0.0,0.0,0.0,0.0,0.0,0.0,0.0,0.0,0.0,0.0,0.0,0.0,0.0,0.0,0.0,0.0,0.0,0.0,0.0,0.0,0.0,0.0,0.0,0.0,0.0,0.0,0.0,0.0,0.0,0.0,0.0,0.0,0.0,0.0,0.0,0.0,0.0,0.0,0.0,0.0,0.0,0.0,0.0,0.0,0.0,0.0,0.0,0.0,0.0,0.0,0.0,0.0,0.0,0.0,0.0,0.0,0.0,0.0,0.0,0.0,0.0,0.0,0.0,0.0,0.0,0.0,0.0,0.0,0.0,0.0,0.0,0.0,0.0,0.0,0.0,0.0,0.0,0.0,0.0,0.0,0.0,0.0,0.0,0.0,0.0,0.0,2.0814,2.1424,2.2281,2.2905,0.0,0.0,0.0,0.0,0.0,0.0,0.0,0.0,0.0,0.0,0.0,0.0,0.0,0.0,0.0,0.0,0.0,0.0,0.0,0.0,0.0,0.0,0.0,0.0,0.0,0.0,0.0,0.0,0.0,0.0,0.0,0.0,0.0,0.0,0.0,0.0,0.0,0.0,0.0,0.0,0.0,0.0,0.0,0.0,0.0,0.0,0.0,0.0,0.0,0.0,0.0,0.0,0.0,0.0,0.0,0.0,0.0,0.0,0.0,0.0,0.0,0.0,0.0,0.0,0.0,0.0,0.0,0.0,0.0,0.0,0.0,0.0,0.0,0.0,0.0,0.0,0.0,0.0,0.0,0.0,0.0,0.0,0.0,0.0,0.0,0.0,0.0,0.0,0.0,0.0,0.0,0.0,0.0,0.0,0.0,0.0,0.0,0.0,0.0,0.0,0.0,0.0,0.0,0.0,0.0,0.0,0.0,0.0,0.0,0.0,2.0947,2.1136,2.1784,2.25,2.2865,2.2865,0.0,0.0,0.0,0.0,0.0,0.0,0.0,0.0,0.0,0.0,0.0,0.0,0.0,0.0,0.0,0.0,0.0,0.0,0.0,0.0,0.0,0.0,0.0,0.0,0.0,0.0,0.0,0.0,0.0,0.0,0.0,0.0,0.0,0.0,0.0,0.0,0.0,0.0,0.0,0.0,0.0,0.0,0.0,0.0,0.0,0.0,0.0,0.0,0.0,0.0,0.0,0.0,0.0,0.0,0.0,0.0,0.0,0.0,0.0,0.0,0.0,0.0,0.0,0.0,0.0,0.0,0.0,0.0,0.0,0.0,0.0,0.0,0.0,0.0,0.0,0.0,0.0,0.0,0.0,0.0,0.0,0.0,0.0,0.0,0.0,0.0,0.0,0.0,0.0,0.0,0.0,0.0,0.0,0.0,0.0,0.0,0.0,0.0,0.0,0.0,0.0,0.0,0.0,0.0,0.0,0.0,0.0,0.0,2.2337,2.2355,2.2483,2.2667,2.229,2.2054,0.0,0.0,0.0,0.0,0.0,0.0,0.0,0.0,0.0,0.0,0.0,0.0,0.0,0.0,0.0,0.0,0.0,0.0,0.0,0.0,0.0,0.0,0.0,0.0,0.0,0.0,0.0,0.0,0.0,0.0,0.0,0.0,0.0,0.0,0.0,0.0,0.0,0.0,0.0,0.0,0.0,0.0,0.0,0.0,0.0,0.0,0.0,0.0,0.0,0.0,0.0,0.0,0.0,0.0,0.0,0.0,0.0,0.0,0.0,0.0,0.0,0.0,0.0,0.0,0.0,0.0,0.0,0.0,0.0,0.0,0.0,0.0,0.0,0.0,0.0,0.0,0.0,0.0,0.0,0.0,0.0,0.0,0.0,0.0,0.0,0.0,0.0,0.0,0.0,0.0,0.0,0.0,0.0,0.0,0.0,0.0,0.0,0.0,0.0,0.0,0.0,0.0,0.0,0.0,0.0,0.0,0.0,0.0,0.0,2.1544,2.1946,2.2017,2.1704,2.2356,2.2607,0.0,0.0,0.0,0.0,0.0,0.0,0.0,0.0,0.0,0.0,0.0,0.0,0.0,0.0,0.0,0.0,0.0,0.0,0.0,0.0,0.0,0.0,0.0,0.0,0.0,0.0,0.0,0.0,0.0,0.0,0.0,0.0,0.0,0.0,0.0,0.0,0.0,0.0,0.0,0.0,0.0,0.0,0.0,0.0,0.0,0.0,0.0,0.0,0.0,0.0,0.0,0.0,0.0,0.0,0.0,0.0,0.0,0.0,0.0,0.0,0.0,0.0,0.0,0.0,0.0,0.0,0.0,0.0,0.0,0.0,0.0,0.0,0.0,0.0,0.0,0.0,0.0,0.0,0.0,0.0,0.0,0.0,0.0,0.0,0.0,0.0,0.0,0.0,0.0,0.0,0.0,0.0,0.0,0.0,0.0,0.0,0.0,0.0,0.0,0.0,0.0,0.0,0.0,0.0,0.0,0.0,0.0,0.0,0.0,2.1594,0.0,2.1995,2.1545,2.1905,2.1929,0.0,0.0,0.0,0.0,0.0,0.0,0.0,0.0,0.0,0.0,0.0,0.0,0.0,0.0,0.0,0.0,0.0,0.0,0.0,0.0,0.0,0.0,0.0,0.0,0.0,0.0,0.0,0.0,0.0,0.0,0.0,0.0,0.0,0.0,0.0,0.0,0.0,0.0,0.0,0.0,0.0,0.0,0.0,0.0,0.0,0.0,0.0,0.0,0.0,0.0,0.0,0.0,0.0,0.0,0.0,0.0,0.0,0.0,0.0,0.0,0.0,0.0,0.0,0.0,0.0,0.0,0.0,0.0,0.0,0.0,0.0,0.0,0.0,0.0,0.0,0.0,0.0,0.0,0.0,0.0,0.0,0.0,0.0,0.0,0.0,0.0,0.0,0.0,0.0,0.0,0.0,0.0,0.0,0.0,0.0,0.0,0.0,0.0,0.0,0.0,0.0,0.0,0.0,0.0,0.0,0.0,0.0,0.0,2.1221,2.2753,2.2721,2.2604,2.2533,2.0951,1.9991,0.0,0.0,0.0,0.0,0.0,0.0,0.0,0.0,0.0,0.0,0.0,0.0,0.0,0.0,0.0,0.0,0.0,0.0,0.0,0.0,0.0,0.0,0.0,0.0,0.0,0.0,0.0,0.0,0.0,0.0,0.0,0.0,0.0,0.0,0.0,0.0,0.0,0.0,0.0,0.0,0.0,0.0,0.0,0.0,0.0,0.0,0.0,0.0,0.0,0.0,0.0,0.0,0.0,0.0,0.0,0.0,0.0,0.0,0.0,0.0,0.0,0.0,0.0,0.0,0.0,0.0,0.0,0.0,0.0,0.0,0.0,0.0,0.0,0.0,0.0,0.0,0.0,0.0,0.0,0.0,0.0,0.0,0.0,0.0,0.0,0.0,0.0,0.0,0.0,0.0,0.0,0.0,0.0,0.0,0.0,0.0,0.0,0.0,0.0,0.0,0.0,0.0,0.0,0.0,0.0,0.0,0.0,0.0,0.0,2.1972,2.2216,2.2301,2.2176,2.1662,2.1308,0.0,0.0,0.0,0.0,0.0,0.0,0.0,0.0,0.0,0.0,0.0,0.0,0.0,0.0,0.0,0.0,0.0,0.0,0.0,0.0,0.0,0.0,0.0,0.0,0.0,0.0,0.0,0.0,0.0,0.0,0.0,0.0,0.0,0.0,0.0,0.0,0.0,0.0,0.0,0.0,0.0,0.0,0.0,0.0,0.0,0.0,0.0,0.0,0.0,0.0,0.0,0.0,0.0,0.0,0.0,0.0,0.0,0.0,0.0,0.0,0.0,0.0,0.0,0.0,0.0,0.0,0.0,0.0,0.0,0.0,0.0,0.0,0.0,0.0,0.0,0.0,0.0,0.0,0.0,0.0,0.0,0.0,0.0,0.0,0.0,0.0,0.0,0.0,0.0,0.0,0.0,0.0,0.0,0.0,0.0,0.0,0.0,0.0,0.0,0.0,0.0,0.0,0.0,0.0,0.0,0.0,0.0,0.0,0.0,2.1501,2.1798,2.1756,2.1254,2.1109,2.1069,2.1143,0.0,0.0,0.0,0.0,0.0,0.0,0.0,0.0,0.0,0.0,0.0,0.0,0.0,0.0,0.0,0.0,0.0,0.0,0.0,0.0,0.0,0.0,0.0,0.0,0.0,0.0,0.0,0.0,0.0,0.0,0.0,0.0,0.0,0.0,0.0,0.0,0.0,0.0,0.0,0.0,0.0,0.0,0.0,0.0,0.0,0.0,0.0,0.0,0.0,0.0,0.0,0.0,0.0,0.0,0.0,0.0,0.0,0.0,0.0,0.0,0.0,0.0,0.0,0.0,0.0,0.0,0.0,0.0,0.0,0.0,0.0,0.0,0.0,0.0,0.0,0.0,0.0,0.0,0.0,0.0,0.0,0.0,0.0,0.0,0.0,0.0,0.0,0.0,0.0,0.0,0.0,0.0,0.0,0.0,0.0,0.0,0.0,0.0,0.0,0.0,0.0,0.0,0.0,0.0,0.0,0.0,0.0,0.0,2.1204,2.1418,2.1048,2.0138,1.9668,1.9637,0.0,0.0,0.0,0.0,0.0,0.0,0.0,0.0,0.0,0.0,0.0,0.0,0.0,0.0,0.0,0.0,0.0,0.0,0.0,0.0,0.0,0.0,0.0,0.0,0.0,0.0,0.0,0.0,0.0,0.0,0.0,0.0,0.0,0.0,0.0,0.0,0.0,0.0,0.0,0.0,0.0,0.0,0.0,0.0,0.0,0.0,0.0,0.0,0.0,0.0,0.0,0.0,0.0,0.0,0.0,0.0,0.0,0.0,0.0,0.0,0.0,0.0,0.0,0.0,0.0,0.0,0.0,0.0,0.0,0.0,0.0,0.0,0.0,0.0,0.0,0.0,0.0,0.0,0.0,0.0,0.0,0.0,0.0,0.0,0.0,0.0,0.0,0.0,0.0,0.0,0.0,0.0,0.0,0.0,0.0,0.0,0.0,0.0,0.0,0.0,0.0,0.0,0.0,0.0,0.0,0.0,0.0,0.0,0.0,2.0112,2.028,2.046,2.0617,1.9784,1.9961,0.0,0.0,0.0,0.0,0.0,0.0,0.0,0.0,0.0,0.0,0.0,0.0,0.0,0.0,0.0,0.0,0.0,0.0,0.0,0.0,0.0,0.0,0.0,0.0,0.0,0.0,0.0,0.0,0.0,0.0,0.0,0.0,0.0,0.0,0.0,0.0,0.0,0.0,0.0,0.0,0.0,0.0,0.0,0.0,0.0,0.0,0.0,0.0,0.0,0.0,0.0,0.0,0.0,0.0,0.0,0.0,0.0,0.0,0.0,0.0,0.0,0.0,0.0,0.0,0.0,0.0,0.0,0.0,0.0,0.0,0.0,0.0,0.0,0.0,0.0,0.0,0.0,0.0,0.0,0.0,0.0,0.0,0.0,0.0,0.0,0.0,0.0,0.0,0.0,0.0,0.0,0.0,0.0,0.0,0.0,0.0,0.0,0.0,0.0,0.0,0.0,0.0,0.0,0.0,0.0,0.0,0.0,0.0,2.0041,1.9823,1.9668,1.9782,2.0174,1.9732,2.0208,0.0,0.0,0.0,0.0,0.0,0.0,0.0,0.0,0.0,0.0,0.0,0.0,0.0,0.0,0.0,0.0,0.0,0.0,0.0,0.0,0.0,0.0,0.0,0.0,0.0,0.0,0.0,0.0,0.0,0.0,0.0,0.0,0.0,0.0,0.0,0.0,0.0,0.0,0.0,0.0,0.0,0.0,0.0,0.0,0.0,0.0,0.0,0.0,0.0,0.0,0.0,0.0,0.0,0.0,0.0,0.0,0.0,0.0,0.0,0.0,0.0,0.0,0.0,0.0,0.0,0.0,0.0,0.0,0.0,0.0,0.0,0.0,0.0,0.0,0.0,0.0,0.0,0.0,0.0,0.0,0.0,0.0,0.0,0.0,0.0,0.0,0.0,0.0,0.0,0.0,0.0,0.0,0.0,0.0,0.0,0.0,0.0,0.0,0.0,0.0,0.0,0.0,0.0,0.0,0.0,0.0,0.0,0.0,2.0214,2.0031,1.9533,1.9363,1.9499,1.9695,2.0365,0.0,0.0,0.0,0.0,0.0,0.0,0.0,0.0,0.0,0.0,0.0,0.0,0.0,0.0,0.0,0.0,0.0,0.0,0.0,0.0,0.0,0.0,0.0,0.0,0.0,0.0,0.0,0.0,0.0,0.0,0.0,0.0,0.0,0.0,0.0,0.0,0.0,0.0,0.0,0.0,0.0,0.0,0.0,0.0,0.0,0.0,0.0,0.0,0.0,0.0,0.0,0.0,0.0,0.0,0.0,0.0,0.0,0.0,0.0,0.0,0.0,0.0,0.0,0.0,0.0,0.0,0.0,0.0,0.0,0.0,0.0,0.0,0.0,0.0,0.0,0.0,0.0,0.0,0.0,0.0,0.0,0.0,0.0,0.0,0.0,0.0,0.0,0.0,0.0,0.0,0.0,0.0,0.0,0.0,0.0,0.0,0.0,0.0,0.0,0.0,0.0,0.0,0.0,0.0,0.0,0.0,0.0,0.0,2.0284,2.0237,1.9966,2.0384,2.1537,2.0319,2.0085,0.0,0.0,0.0,0.0,0.0,0.0,0.0,0.0,0.0,0.0,0.0,0.0,0.0,0.0,0.0,0.0,0.0,0.0,0.0,0.0,0.0,0.0,0.0,0.0,0.0,0.0,0.0,0.0,0.0,0.0,0.0,0.0,0.0,0.0,0.0,0.0,0.0,0.0,0.0,0.0,0.0,0.0,0.0,0.0,0.0,0.0,0.0,0.0,0.6034,0.0,0.0,0.0,0.0,0.0,0.0,0.0,0.0,0.0,0.0,0.0,0.0,0.0,0.0,0.0,0.0,0.0,0.0,0.0,0.0,0.0,0.0,0.0,0.0,0.0,0.0,0.0,0.0,0.0,0.0,0.0,0.0,0.0,0.0,0.0,0.0,0.0,0.0,0.0,0.0,0.0,0.0,0.0,0.0,0.0,0.0,0.0,0.0,0.0,0.0,0.0,0.0,0.0,0.0,0.0,0.0,0.0,0.0,0.0,2.092,2.0888,2.0468,2.0794,2.1861,2.1128,2.1228,0.0,0.0,0.0,0.0,0.0,0.0,0.0,0.0,0.0,0.0,0.0,0.0,0.0,0.0,0.0,0.0,0.0,0.0,0.0,0.0,0.0,0.0,0.0,0.0,0.0,0.0,0.0,0.0,0.0,0.0,0.0,0.0,0.0,0.0,0.0,0.0,0.0,0.0,0.0,0.0,0.0,0.0,0.0,0.0,0.0,0.0,0.0,0.0,0.0,0.0,0.0,0.0,0.0,0.0,0.0,0.0,0.0,0.0,0.0,0.0,0.0,0.0,0.0,0.0,0.0,0.0,0.0,0.0,0.0,0.0,0.0,0.0,0.0,0.0,0.0,0.0,0.0,0.0,0.0,0.0,0.0,0.0,0.0,0.0,0.0,0.0,0.0,0.0,0.0,0.0,0.0,0.0,0.0,0.0,0.0,0.0,0.0,0.0,0.0,0.0,0.0,0.0,0.0,0.0,0.0,0.0,0.0,2.2112,2.1572,2.1584,2.086,2.0896,2.1745,2.1847,2.2537,2.3942,0.0,0.0,0.0,0.0,0.0,0.0,0.0,0.0,0.0,0.0,0.0,0.0,0.0,0.0,0.0,0.0,0.0,0.0,0.0,0.0,0.0,0.0,0.0,0.0,0.0,0.0,0.0,0.0,0.0,0.0,0.0,0.0,0.0,0.0,0.0,0.0,0.0,0.0,2.1792,1.8951,0.0,0.0,0.0,0.0,0.0,0.0,0.0,0.0,0.3763,0.0,0.0,0.0,0.0,0.0,0.0,0.0,0.0,0.0,0.0,0.0,0.0,0.0,0.0,0.0,0.0,0.0,0.0,0.0,0.0,0.0,0.0,0.0,0.0,0.0,0.0,0.0,0.0,0.0,0.0,0.0,0.0,0.0,0.0,0.0,0.0,0.0,0.0,0.0,0.0,0.0,0.0,0.0,0.0,0.0,0.0,0.0,0.0,0.0,0.0,0.0,0.0,0.0,0.0,0.0,0.0,2.4622,2.247,2.1447,2.1668,2.0798,2.0938,2.2127,2.1914,2.2337,2.3584,0.0,0.0,0.0,0.0,0.0,0.0,0.0,0.0,0.0,0.0,0.0,0.0,0.0,0.0,0.0,0.0,0.0,0.0,0.0,0.0,0.0,0.0,0.0,0.0,0.0,0.0,0.0,0.0,0.0,0.0,0.0,0.0,0.0,0.0,0.0,0.0,0.0,0.0,0.0,1.9459,1.6986,0.0,0.0,0.0,0.0,0.0,0.0,0.0,0.0,0.3874,0.0,0.0,0.0,0.0,0.0,0.0,0.0,0.0,0.0,0.0,0.0,0.0,0.0,0.0,0.0,0.0,0.0,0.0,0.0,0.0,0.0,0.0,0.0,0.0,0.0,0.0,0.0,0.0,0.0,0.0,0.0,0.0,0.0,0.0,0.0,0.0,0.0,0.0,0.0,0.0,0.0,0.0,0.0,0.0,0.0,0.0,0.0,0.0,0.0,0.0,0.0,0.0,0.0,0.0,0.0,2.5958,2.4251,2.3339,2.347,2.2328,2.209,2.2882,2.2431,2.2417,0.0,0.0,0.0,0.0,0.0,0.0,0.0,0.0,0.0,0.0,0.0,0.0,0.0,0.0,0.0,0.0,0.0,0.0,0.0,0.0,0.0,0.0,0.0,0.0,0.0,0.0,0.0,0.0,0.0,0.0,0.0,0.0,0.0,0.0,0.0,0.0,0.0,0.0,0.0,0.0,1.9004,1.644,1.5291,0.0,0.0,0.0,0.0,0.0,0.0,0.6982,0.5278,0.0,0.0,0.0,0.0,0.0,0.0,0.0,0.0,0.0,0.0,0.0,0.0,0.0,0.0,0.0,0.0,0.0,0.0,0.0,0.0,0.0,0.0,0.0,0.0,0.0,0.0,0.0,0.0,0.0,0.0,0.0,0.0,0.0,0.0,0.0,0.0,0.0,0.0,0.0,0.0,0.0,0.0,0.0,0.0,0.0,0.0,0.0,0.0,0.0,0.0,0.0,0.0,0.0,0.0,0.0,2.7344,2.6009,2.5252,2.5127,2.3883,2.3234,2.3318,2.2798,2.2431,0.0,0.0,0.0,0.0,0.0,0.0,0.0,0.0,0.0,0.0,0.0,0.0,0.0,0.0,0.0,0.0,0.0,0.0,0.0,0.0,0.0,0.0,0.0,0.0,0.0,0.0,0.0,0.0,0.0,0.0,0.0,0.0,0.0,0.0,0.0,0.0,0.0,0.0,0.0,0.0,0.0,1.6495,1.5756,1.3646,0.0,0.0,0.0,0.0,1.0184,0.8346,0.0,0.0,0.0,0.0,0.0,0.0,0.0,0.0,0.0,0.0,0.0,0.0,0.0,0.0,0.0,0.0,0.0,0.0,0.0,0.0,0.0,0.0,0.0,0.0,0.0,0.0,0.0,0.0,0.0,0.0,0.0,0.0,0.0,0.0,0.0,0.0,0.0,0.0,0.0,0.0,0.0,0.0,0.0,0.0,0.0,0.0,0.0,0.0,0.0,0.0,0.0,0.0,0.0,0.0,0.0,0.0,2.8114,2.6698,2.5659,2.5107,2.4236,2.3457,2.2738,2.241,2.2083,0.0,0.0,0.0,0.0,0.0,0.0,0.0,0.0,0.0,0.0,0.0,0.0,0.0,0.0,0.0,0.0,0.0,0.0,0.0,0.0,0.0,0.0,0.0,0.0,0.0,0.0,0.0,0.0,0.0,0.0,0.0,0.0,0.0,0.0,0.0,0.0,0.0,0.0,0.0,0.0,0.0,1.8324,1.6844,1.53,1.397,0.0,0.0,1.1537,1.0533,0.969,0.0,0.0,0.0,0.0,0.0,0.0,0.0,0.0,0.0,0.0,0.0,0.0,0.0,0.0,0.0,0.0,0.0,0.0,0.0,0.0,0.0,0.0,0.0,0.0,0.0,0.0,0.0,0.0,0.0,0.0,0.0,0.0,0.0,0.0,0.0,0.0,0.0,0.0,0.0,0.0,0.0,0.0,0.0,0.0,0.0,0.0,0.0,0.0,0.0,0.0,0.0,0.0,0.0,0.0,0.0,2.7366,2.8858,2.7907,2.7222,2.683,2.5696,2.4685,2.3861,2.324,2.2511,0.0,0.0,0.0,0.0,0.0,0.0,0.0,0.0,0.0,0.0,0.0,0.0,0.0,0.0,0.0,0.0,0.0,0.0,0.0,0.0,0.0,0.0,0.0,0.0,0.0,0.0,0.0,0.0,0.0,0.0,0.0,0.0,0.0,0.0,0.0,0.0,0.0,0.0,0.0,0.0,0.0,0.0,1.7513,1.6111,0.0,0.0,0.0,1.3576,1.2453,0.0,0.0,0.0,0.0,0.0,0.0,0.0,0.0,0.0,0.0,0.0,0.0,0.0,0.0,0.0,0.0,0.0,0.0,0.0,0.0,0.0,0.0,0.0,0.0,0.0,0.0,0.0,0.0,0.0,0.0,0.0,0.0,0.0,0.0,0.0,0.0,0.0,0.0,0.0,0.0,0.0,0.0,0.0,0.0,0.0,0.0,0.0,0.0,0.0,0.0,0.0,0.0,0.0,0.0,0.0,0.0,0.0,2.955,2.902,2.8567,2.8231,2.7125,2.5947,2.4805,2.4078,0.0,0.0,0.0,0.0,0.0,0.0,0.0,0.0,0.0,0.0,0.0,0.0,0.0,0.0,0.0,0.0,0.0,0.0,0.0,0.0,0.0,0.0,0.0,0.0,0.0,0.0,0.0,2.3308,0.0,0.0,0.0,0.0,0.0,0.0,0.0,0.0,0.0,0.0,0.0,0.0,0.0,0.0,1.9147,1.8854,1.7772,1.6951,0.0,0.0,1.5942,1.4776,1.4014,1.3014,0.0,0.0,0.0,0.0,0.0,0.0,0.0,0.0,0.0,0.0,0.0,0.0,0.0,0.0,0.0,0.0,0.0,0.0,0.0,0.0,0.0,0.0,0.0,0.0,0.0,0.0,0.0,0.0,0.0,0.0,0.0,0.0,0.0,0.0,0.0,0.0,0.0,0.0,0.0,0.0,0.0,0.0,0.0,0.0,0.0,0.0,0.0,0.0,0.0,0.0,0.0,0.0,0.0,0.0,2.843,3.0061,2.9779,2.9206,2.8416,2.8128,2.6928,2.4783,2.4468,2.3484,0.0,0.0,0.0,0.0,0.0,0.0,0.0,0.0,0.0,0.0,0.0,0.0,0.0,0.0,0.0,0.0,0.0,0.0,0.0,0.0,0.0,0.0,0.0,0.0,0.0,0.0,0.0,0.0,0.0,0.0,0.0,0.0,0.0,0.0,0.0,0.0,0.0,0.0,0.0,0.0,0.0,2.208,2.1251,2.152,2.1421,0.0,1.9514,1.8447,1.7277,1.6135,1.4951,1.3591,0.0,0.0,0.0,0.0,0.0,0.0,0.0,0.0,0.0,0.0,0.0,0.0,0.0,0.0,0.0,0.0,0.0,0.0,0.0,0.0,0.0,0.0,0.0,0.0,0.0,0.0,0.0,0.0,0.0,0.0,0.0,0.0,0.0,0.0,0.0,0.0,0.0,0.0,0.0,0.0,0.0,0.0,0.0,0.0,0.0,0.0,0.0,0.0,0.0,0.0,0.0,0.0,0.0,2.8585,3.0048,2.9826,2.9474,2.9008,2.8307,2.7313,2.6022,2.539,2.433,0.0,0.0,0.0,0.0,0.0,0.0,0.0,0.0,0.0,0.0,0.0,0.0,0.0,0.0,0.0,0.0,0.0,0.0,0.0,0.0,0.0,0.0,0.0,0.0,0.0,0.0,0.0,0.0,2.4098,2.4304,2.4702,0.0,0.0,0.0,0.0,0.0,0.0,0.0,0.0,0.0,0.0,2.351,2.3641,2.3155,0.0,0.0,2.1915,2.0878,1.9241,1.91,1.861,1.6651,1.766,0.0,0.0,0.0,0.0,0.0,0.0,0.0,0.0,0.0,0.0,0.0,0.0,0.0,0.0,0.0,0.0,0.0,0.0,0.0,0.0,0.0,0.0,0.0,0.0,0.0,0.0,0.0,0.0,0.0,0.0,0.0,0.0,0.0,0.0,0.0,0.0,0.0,0.0,0.0,0.0,0.0,0.0,0.0,0.0,0.0,0.0,0.0,0.0,0.0,0.0,0.0,0.0,2.9216,3.0158,3.0124,2.9869,2.9513,2.8627,2.7778,2.6968,2.6011,2.4909,0.0,0.0,0.0,0.0,0.0,0.0,0.0,0.0,0.0,0.0,0.0,0.0,0.0,0.0,0.0,0.0,0.0,0.0,0.0,0.0,0.0,0.0,0.0,0.0,0.0,0.0,0.0,0.0,2.4596,2.4993,2.5157,0.0,0.0,0.0,0.0,0.0,0.0,0.0,0.0,0.0,0.0,2.4887,2.5593,2.5112,2.4688,2.4731,2.4174,2.319,2.1541,2.1724,2.1483,1.9609,0.0,0.0,0.0,0.0,0.0,0.0,0.0,0.0,0.0,0.0,0.0,0.0,0.0,0.0,0.0,0.0,0.0,0.0,0.0,0.0,0.0,0.0,0.0,0.0,0.0,0.0,0.0,3.4314,0.0,0.0,3.441,0.0,0.0,0.0,0.0,0.0,0.0,0.0,0.0,0.0,0.0,0.0,0.0,0.0,0.0,0.0,0.0,0.0,0.0,0.0,0.0,0.0,0.0,3.0442,3.05,3.0795,3.0525,2.9735,2.9212,2.8438,2.7314,2.619,2.5112,2.4031,0.0,0.0,0.0,0.0,0.0,0.0,0.0,0.0,0.0,0.0,0.0,0.0,0.0,0.0,0.0,0.0,0.0,0.0,0.0,0.0,0.0,0.0,0.0,0.0,0.0,0.0,2.5201,2.5173,2.5227,0.0,0.0,0.0,0.0,0.0,0.0,0.0,0.0,0.0,2.5531,2.5895,2.6417,2.7083,2.7556,2.7746,2.7643,2.6449,2.5261,2.4374,2.3874,2.3148,0.0,0.0,0.0,0.0,0.0,0.0,0.0,0.0,0.0,0.0,0.0,0.0,0.0,0.0,0.0,0.0,0.0,0.0,0.0,0.0,0.0,0.0,0.0,0.0,0.0,0.0,0.0,3.7257,3.6776,0.0,0.0,0.0,0.0,0.0,0.0,0.0,0.0,0.0,0.0,0.0,3.5284,3.4531,0.0,0.0,0.0,0.0,0.0,0.0,0.0,0.0,0.0,0.0,0.0,0.0,3.04,3.195,3.0792,3.0261,3.0525,2.9548,2.8669,2.8048,2.7659,2.6541,2.4585,0.0,0.0,0.0,0.0,0.0,0.0,0.0,0.0,0.0,0.0,0.0,0.0,0.0,0.0,0.0,0.0,0.0,0.0,0.0,0.0,0.0,0.0,0.0,0.0,0.0,2.5144,0.0,0.0,0.0,0.0,0.0,0.0,0.0,0.0,0.0,0.0,0.0,2.7161,2.7984,2.8293,2.8644,2.9286,2.9116,2.9124,0.0,0.0,0.0,0.0,0.0,0.0,0.0,0.0,0.0,0.0,0.0,0.0,0.0,0.0,2.5934,2.3544,2.3284,2.3286,2.2745,0.0,0.0,0.0,0.0,0.0,0.0,0.0,0.0,0.0,0.0,0.0,0.0,0.0,0.0,3.9142,3.8854,3.8584,0.0,0.0,0.0,0.0,0.0,0.0,0.0,0.0,3.6374,3.6666,3.6295,3.5928,3.5485,3.5033,3.4434,3.3244,0.0,0.0,0.0,0.0,0.0,0.0,0.0,0.0,3.141,3.2378,3.1217,3.0712,3.094,2.9697,2.8881,2.8615,2.8342,2.7201,2.4955,2.4215,2.3551,0.0,0.0,0.0,0.0,0.0,0.0,0.0,0.0,0.0,0.0,0.0,0.0,0.0,0.0,0.0,0.0,0.0,0.0,0.0,0.0,0.0,0.0,0.0,2.4736,0.0,0.0,0.0,0.0,0.0,0.0,0.0,0.0,0.0,2.8806,2.8392,2.857,2.9617,2.9832,3.0174,3.1099,0.0,0.0,0.0,0.0,0.0,0.0,0.0,3.0059,2.8976,2.9177,2.915,2.8163,2.8195,2.8396,2.8491,0.0,0.0,2.6181,2.5858,2.5903,2.5486,2.5242,2.4873,2.4048,2.4048,2.3988,0.0,0.0,0.0,0.0,4.2597,0.0,0.0,0.0,4.1893,4.1393,0.0,3.9854,0.0,0.0,0.0,0.0,3.7828,3.9357,0.0,0.0,3.766,3.7431,3.6527,3.6926,3.6718,3.6053,3.7219,3.6555,3.4164,3.1744,0.0,0.0,0.0,0.0,0.0,0.0,3.3391,3.1955,3.2086,3.1825,3.1127,2.9811,2.909,2.9085,2.8389,2.7173,2.5386,2.5765,2.5403,2.41,2.4526,0.0,0.0,0.0,0.0,0.0,0.0,0.0,0.0,0.0,0.0,0.0,0.0,0.0,0.0,0.0,0.0,0.0,0.0,0.0,0.0,2.4188,0.0,0.0,0.0,0.0,0.0,0.0,0.0,0.0,0.0,0.0,2.9762,2.9531,2.9756,3.0505,0.0,0.0,0.0,0.0,3.258,3.2431,3.2372,3.2095,3.1297,3.1261,3.107,3.0219,0.0,0.0,2.924,2.9472,2.9651,2.9176,2.978,3.0258,2.9836,2.8899,2.8435,2.8809,2.8478,2.8207,2.8118,2.7243,2.668,3.89,0.0,0.0,0.0,0.0,4.4306,4.4162,4.4451,4.3855,4.3451,4.3181,4.278,0.0,0.0,0.0,0.0,0.0,0.0,4.0288,3.9174,3.975,3.9545,3.864,3.8179,3.7637,3.705,3.6878,3.6208,3.5095,3.3776,3.2685,3.1873,0.0,0.0,0.0,0.0,3.3641,3.4301,3.3146,3.2654,3.2978,3.1689,3.0927,3.0705,2.995,2.9097,2.8181,2.7331,2.6709,2.6432,2.5983,0.0,0.0,0.0,0.0,0.0,0.0,0.0,0.0,0.0,0.0,0.0,0.0,0.0,0.0,0.0,0.0,0.0,0.0,0.0,2.5428,2.6013,2.6574,0.0,0.0,0.0,0.0,0.0,0.0,0.0,0.0,0.0,3.2217,3.1885,3.1846,0.0,0.0,3.2796,3.3174,3.3257,3.3658,3.4578,3.4297,0.0,3.4301,3.3933,3.3218,3.2053,3.1453,3.1102,3.0837,3.0924,3.0982,3.0792,3.0955,3.1102,3.1027,3.0763,3.038,3.0029,2.9793,2.9497,2.8865,2.8551,2.837,4.3846,4.3369,4.3211,4.4538,4.6679,4.5764,4.5624,4.6086,4.5566,4.5316,4.5316,4.5164,4.4914,4.4566,4.3857,0.0,0.0,0.0,4.1992,4.1092,4.1062,4.0549,3.9603,3.8855,3.8131,3.7489,3.7156,3.6811,3.6507,3.5968,3.5449,3.4911,0.0,3.3882,3.3731,3.4507,3.4949,3.4936,3.4068,3.3669,3.3764,3.2485,3.1712,3.1565,3.1147,3.0543,2.9747,2.899,2.8431,2.8046,2.7553,2.7191,0.0,0.0,0.0,0.0,0.0,0.0,0.0,0.0,0.0,0.0,0.0,2.4241,2.4225,0.0,0.0,0.0,2.4801,2.5607,2.6631,2.7228,0.0,0.0,0.0,0.0,0.0,0.0,0.0,3.2645,3.2966,3.3322,3.3778,3.3805,3.374,3.382,3.3879,3.4022,3.4305,0.0,3.471,3.5527,3.5272,3.5263,3.5942,3.5503,3.467,3.3612,3.2835,3.2367,3.2351,3.2312,3.2367,3.2367,3.2351,3.2351,3.2351,3.2367,3.1977,3.0999,3.0777,3.0584,3.0086,2.9752,2.9518,4.909,4.8458,4.5407,4.5549,4.7716,4.728,4.7105,4.7105,4.7105,4.7105,4.7124,4.7163,4.7124,4.6874,4.6067,0.0,4.3335,4.4066,4.3788,4.2698,4.1838,4.084,3.9766,3.9142,3.8404,3.764,3.797,3.8099,3.8084,3.8084,3.8104,3.8046,3.6579,3.4943,3.3468,3.6257,3.6642,3.4353,3.4849,3.4735,3.3917,3.2674,3.2011,3.1986,3.2072,3.1536,3.0446,3.0625,3.0299,2.9231,2.911,2.8521,2.7325,0.0,0.0,0.0,0.0,0.0,0.0,0.0,0.0,0.0,0.0,0.0,0.0,0.0,0.0,0.0,2.5981,0.0,2.7542,2.8066,0.0,0.0,0.0,3.0342,3.0435,3.1556,3.2544,3.3237,0.0,0.0,3.4404,3.5064,3.5284,3.459,3.4556,3.4827,3.552,3.556,3.5639,3.5734,3.5638,3.5844,3.6454,3.6007,3.5342,3.4775,3.4114,3.3563,3.3531,3.3547,3.3598,3.3531,3.3582,3.3582,3.3582,3.3495,3.3182,3.1936,3.164,3.1582,3.1495,3.094,3.036,5.2182,5.0515,4.9126,4.8927,4.9449,4.8988,4.8798,4.8817,4.8798,4.8817,4.8856,4.951,4.8836,4.7183,4.6778,4.6009,4.5009,4.5182,4.4799,4.3862,4.3056,4.2176,4.1222,3.9838,3.9068,3.8888,3.8954,3.8988,3.8988,3.8988,3.8988,3.8965,3.864,3.7559,3.5872,3.6007,3.5815,3.5218,3.5331,3.5189,3.478,3.4282,3.3886,3.3622,3.3168,3.2606,3.1986,3.169,3.1278,3.0688,3.0142,2.9462,2.8592,2.7986,0.0,0.0,0.0,0.0,0.0,0.0,0.0,0.0,0.0,2.6399,2.5301,0.0,2.6639,0.0,2.7062,2.8207,2.9321,2.9592,0.0,0.0,3.1173,3.1556,3.1066,3.1793,3.2357,3.2527,3.2696,3.3017,3.3592,3.4303,3.4709,3.4523,3.4996,3.5419,3.5622,3.5639,3.5825,3.6315,3.5975,3.5917,3.6541,3.5678,3.502,3.5414,3.4457,3.3598,3.3582,3.3582,3.3582,3.3582,3.3582,3.3582,3.3633,3.3582,3.3547,3.313,3.268,3.2327,3.2342,3.1694,3.1056,5.3401,5.1507,5.0703,5.0358,5.0303,4.9259,4.8817,4.8817,4.8817,4.8817,4.8913,5.0144,4.9567,4.7683,4.749,4.6777,4.5624,4.5586,4.5124,4.4278,4.347,4.2431,4.1181,3.9912,3.9104,3.8719,3.8719,3.8931,3.9277,3.9296,3.9488,3.9831,3.9547,3.8871,3.7906,3.7822,3.7437,3.6716,3.624,3.5887,3.5619,3.5021,3.4532,3.42,3.3715,3.3166,3.2517,3.223,3.1825,3.1213,3.0801,3.0167,2.9164,2.8707,2.8323,0.0,0.0,0.0,0.0,0.0,0.0,0.0,0.0,0.0,0.0,0.0,2.8102,2.7981,2.8649,2.947,3.0492,3.0598,3.0751,3.1157,3.1708,3.1991,3.1721,3.2219,3.2673,3.2771,3.278,3.2933,3.3355,3.3744,3.4134,3.4455,3.4861,3.525,3.5554,3.5639,3.5791,3.6163,3.5893,3.5893,3.6654,3.6105,3.5733,3.6002,3.5248,3.4496,3.4496,3.4496,3.4496,3.4496,3.4512,3.4512,3.4512,3.4512,3.4496,3.4399,3.3953,3.3332,3.2646,3.2044,3.1359,5.3526,5.1757,5.097,5.0624,5.049,4.8817,4.8163,4.8259,4.8144,4.8182,4.8355,4.9971,4.974,4.8125,4.8105,4.7181,4.5624,4.5586,4.5124,4.4259,4.347,4.2239,4.0662,3.9819,3.9016,3.8289,3.827,3.8654,3.94,3.9435,3.9815,4.0446,3.9857,3.954,3.9509,4.0301,3.9801,3.8039,3.7198,3.6623,3.6287,3.5304,3.4658,3.4367,3.4009,3.3419,3.2666,3.2517,3.2127,3.1329,3.1213,3.0639,2.949,2.9383,2.9152,0.0,2.9168,0.0,0.0,0.0,0.0,0.0,0.0,0.0,0.0,2.9223,2.9617,3.0347,3.0398,3.067,3.13,3.1368,3.1368,3.1389,3.1677,3.2012,3.2298,3.2676,3.2993,3.3199,3.3185,3.3202,3.3068,3.3254,3.3677,3.4218,3.4607,3.4979,3.547,3.5639,3.5639,3.5639,3.5639,3.5893,3.6552,3.6654,3.6586,3.6654,3.6038,3.5656,3.5532,3.5532,3.5577,3.5577,3.5515,3.5532,3.5622,3.5577,3.5577,3.5487,3.5052,3.4282,3.2997,3.2183,3.1659,5.3131,5.1376,5.055,5.0206,5.0096,4.8701,4.8509,4.9106,4.8413,4.849,4.9202,5.024,4.974,4.8144,4.8086,4.7182,4.5605,4.5586,4.5124,4.4278,4.347,4.2547,4.1511,4.0459,3.9871,3.9699,3.97,3.9776,3.9947,4.0178,4.0369,4.0504,4.0462,4.0447,4.0442,0.0,0.0,0.0,3.7239,3.6991,3.6309,3.5703,3.531,3.5243,3.4305,0.0,3.3075,3.2681,3.2248,3.1733,3.1372,0.0,0.0,0.0,0.0,0.0,0.0,0.0,0.0,0.0,0.0,0.0,3.2144,3.1165,2.9678,3.0396,3.126,3.1949,3.2037,3.209,3.223,3.2265,3.2248,3.2248,3.2316,3.2369,3.2441,3.2527,3.2477,3.213,3.211,3.2012,3.1834,3.2628,3.3423,3.3702,3.4658,3.5402,3.5543,3.5639,3.5639,3.5639,3.5639,3.591,3.6654,3.6265,3.6113,3.6468,3.6129,3.5673,3.5639,3.5639,3.5639,3.5639,3.5639,3.5639,3.5639,3.5639,3.5639,3.5639,3.547,3.499,3.3592,3.2805,3.1974,5.244,5.0626,4.9638,4.9296,0.0,4.7846,4.7489,4.7872,4.803,4.8817,5.001,4.9606,4.8933,4.8086,4.7681,4.6815,4.5586,4.5163,4.4489,4.3682,4.2675,4.176,4.0936,4.0213,3.984,3.984,4.0022,4.0101,4.012,4.0372,4.0489,4.0504,4.0636,4.0655,4.0577,4.0087,3.915,3.7792,3.7198,3.6597,3.5941,3.5633,3.5411,3.5232,3.4696,0.0,0.0,0.0,0.0,0.0,0.0,0.0,0.0,3.2453,0.0,3.2659,3.3273,3.3619,3.3733,3.3842,3.372,3.3316,3.3027,3.2343,3.1124,3.1606,3.2092,3.2464,3.2517,3.2517,3.2517,3.2517,3.2517,3.2517,3.2713,3.2777,3.2583,3.2713,3.2631,3.223,3.2144,3.2074,3.1913,3.2599,3.3357,3.3744,3.4449,3.5216,3.5537,3.5639,3.5639,3.5639,3.5639,3.5757,3.6079,3.5926,3.5723,3.6062,3.5876,3.5656,3.5639,3.5639,3.5639,3.5639,3.5639,3.5639,3.5639,3.5639,3.5639,3.5639,3.5639,3.5279,3.4196,3.3475,3.2755,5.153,4.9708,4.8626,4.8266,4.8283,4.6834,4.6329,4.6568,4.7413,0.0,0.0,4.8952,4.8241,4.8048,4.7393,4.6546,4.5566,4.4855,4.3991,4.2979,4.2011,4.0977,4.0021,3.9668,3.9534,3.9622,3.988,4.0042,4.0101,4.0372,4.0489,4.0504,4.0428,4.0226,3.9854,3.8877,3.8347,3.8252,3.7015,3.6096,3.5539,3.5454,3.5295,3.5018,3.4844,3.4639,3.4311,3.3587,3.3332,3.3588,3.3647,3.3931,3.4428,3.4622,3.45,3.4202,3.5044,3.5168,3.4279,3.4516,3.439,3.3677,3.3435,3.3154,3.2745,3.2745,3.2745,3.2745,3.2745,3.2745,3.2727,3.2745,3.2745,3.2727,3.3075,3.3136,3.2809,3.3075,3.3136,3.2713,3.2616,3.2654,3.2732,3.3107,3.3546,3.4189,3.4709,3.4948,3.5453,3.5639,3.5639,3.5639,3.5639,3.5639,3.5639,3.5656,3.5639,3.5673,3.5656,3.5639,3.5639,3.5639,3.5639,3.5639,3.5639,3.5639,3.5639,3.5639,3.5639,3.5639,3.5622,3.5436,3.4834,3.4303,3.3653,5.022,4.8493,4.799,4.7404,4.6787,4.6129,4.6442,4.735,4.6822,4.7698,4.9548,4.9336,4.8817,4.8105,4.7971,4.7067,4.5624,4.547,4.444,4.2679,4.2506,4.1428,3.9683,3.9314,3.9314,3.9599,3.9664,3.9819,4.0101,4.0372,4.0489,4.0377,3.961,3.8688,3.7657,3.6781,3.6201,3.5998,3.64,3.6254,3.5522,3.5217,3.5028,3.4972,3.4339,3.3945,3.3872,3.3462,3.3238,3.3286,3.3547,3.3454,3.2907,3.3559,3.3809,3.3688,3.3864,3.4147,3.4534,3.4472,3.4176,3.3834,3.3735,3.3662,3.3634,3.3606,3.3606,3.3625,3.3578,3.3606,3.3606,3.3578,3.3578,3.3578,3.3662,3.368,3.3578,3.3652,3.355,3.3136,3.3124,3.3239,3.3552,3.4111,3.4672,3.5136,3.5572,3.5959,3.5688,3.5639,3.5639,3.5639,3.5639,3.5639,3.5639,3.5639,3.5639,3.5639,3.5639,3.5639,3.5639,3.5639,3.5639,3.5639,3.5639,3.5639,3.5639,3.5639,3.5639,3.5639,3.5639,3.5537,3.5385,3.5217,3.4583,4.9819,4.7953,4.7073,4.6357,4.5799,4.5801,4.6493,4.7541,4.7178,4.8175,4.9933,4.9125,4.8471,4.8086,4.7644,4.6778,4.5566,4.5105,4.4399,4.3484,4.2412,4.133,4.0302,3.9664,3.9364,3.9358,3.969,3.9943,4.0081,4.0213,4.0074,3.9614,3.8937,3.8376,3.7851,3.7276,3.6924,3.6777,3.5845,3.5095,3.4596,3.4862,3.499,3.499,3.4633,3.4449,3.4468,3.3862,3.3723,3.4178,3.4329,3.4455,3.4563,3.4888,3.4975,3.4679,3.4893,3.4907,3.4505,3.422,3.398,3.3825,3.3807,3.3807,3.3807,3.3807,3.3807,3.3807,3.3807,3.3807,3.3807,3.3807,3.3807,3.3807,3.3807,3.3807,3.3807,3.3807,3.3734,3.3587,3.3923,3.4248,3.4395,3.5241,3.5845,3.6059,3.6295,3.6274,3.6071,3.5783,3.5639,3.5639,3.5639,3.5639,3.5639,3.5639,3.5639,3.5639,3.5639,3.5639,3.5639,3.5639,3.5639,3.5639,3.5639,3.5639,3.5639,3.5639,3.5639,3.5639,3.5639,3.5639,3.5605,3.5334,3.4641,4.9448,4.7597,4.6393,4.5489,4.4878,4.5434,4.6365,4.7486,4.7766,4.896,5.0336,4.9067,4.8298,4.8048,4.7451,4.6605,4.5586,4.4893,4.4472,4.4056,4.2604,4.1635,4.1123,4.0302,3.9811,3.9633,3.9954,4.0005,3.9853,4.0005,3.9604,3.8744,3.8417,3.8164,3.7925,3.7653,3.7541,3.7429,3.5639,3.4567,3.4403,3.4789,3.499,3.499,3.4807,3.4715,3.4697,3.4137,3.41,3.466,3.488,3.5257,3.5697,3.5917,3.5736,3.5248,3.5506,3.5279,3.4311,3.3962,3.3807,3.3807,3.3807,3.3807,3.3807,3.3807,3.3807,3.3807,3.3807,3.3807,3.3807,3.3807,3.3807,3.3807,3.3807,3.3807,3.3807,3.3807,3.388,3.4082,3.4605,3.5082,3.5622,3.6315,3.6823,3.691,3.665,3.6399,3.6333,3.5941,3.5622,3.5639,3.5639,3.5639,3.5639,3.5639,3.5639,3.5639,3.5639,3.5639,3.5639,3.5639,3.5639,3.5639,3.5639,3.5639,3.5639,3.5639,3.5639,3.5639,3.5639,3.5639,3.5605,3.525,3.4709,4.8552,4.7578,4.6391,4.5,4.3855,4.4885,4.6054,4.7197,4.8281,4.9496,5.047,4.9702,4.8817,4.8163,4.8009,4.7105,4.5682,4.5509,4.4939,4.4057,4.3767,4.3064,4.1954,4.1156,4.0893,4.0914,4.0405,3.9757,3.9185,3.9719,3.938,3.8141,3.7965,3.7493,3.6657,3.6499,3.6489,3.6452,3.6232,3.6093,3.6028,3.5385,3.499,3.499,3.4302,3.3917,3.3954,3.3844,3.3825,3.3972,3.4633,3.4724,3.4229,3.4724,3.477,3.4046,3.4018,3.3963,3.3863,3.3817,3.3807,3.3807,3.3807,3.3807,3.3807,3.3807,3.3807,3.3807,3.3807,3.3807,3.3807,3.3807,3.3807,3.3807,3.3807,3.3807,3.3807,3.3807,3.4082,3.4825,3.4917,3.555,3.6743,3.7271,3.752,3.7706,3.7069,3.6539,3.6474,3.6028,3.5667,3.5622,3.5639,3.5639,3.5639,3.5639,3.5639,3.5639,3.5639,3.5639,3.5639,3.5639,3.5639,3.5639,3.5639,3.5639,3.5639,3.5639,3.5639,3.5639,3.5639,3.5639,3.5622,3.552,3.5233,4.8347,4.7294,4.6305,4.4984,4.3768,4.4804,4.5866,4.6813,4.8029,4.9093,4.9898,4.9594,4.9236,4.8856,4.8336,4.7451,4.6374,4.5836,4.5377,4.4863,4.4384,4.3502,4.2417,4.1741,4.1073,4.0371,4.0307,3.9984,3.9364,3.898,3.8384,3.7757,3.7664,3.745,3.703,3.6982,3.7239,3.7679,3.7239,3.7221,3.7459,3.5907,3.4761,3.4311,3.3963,3.3807,3.3807,3.3807,3.3807,3.3825,3.4119,3.4156,3.3825,3.4137,3.3935,3.3183,3.3091,3.3311,3.377,3.3807,3.3807,3.3807,3.3807,3.3807,3.3807,3.3807,3.3807,3.3807,3.3807,3.3807,3.3807,3.3807,3.3807,3.3807,3.3807,3.3807,3.3807,3.3807,3.3972,3.4321,3.5183,3.5973,3.6762,3.7624,3.8187,3.8296,3.7685,3.7155,3.6921,3.6416,3.5985,3.5711,3.5639,3.5639,3.5639,3.5639,3.5639,3.5639,3.5639,3.5639,3.5639,3.5639,3.5639,3.5639,3.5639,3.5639,3.5639,3.5639,3.5639,3.5639,3.5639,3.5639,3.5639,3.5639,3.5453,4.8258,4.7067,4.5992,4.4765,4.3624,4.4661,4.5667,4.6557,4.7669,4.8644,4.9466,4.9504,4.9478,4.928,4.8391,4.7549,4.6837,4.599,4.5586,4.5509,4.4913,4.4208,4.3388,4.241,4.1476,4.0561,4.03,3.9968,3.9387,3.835,3.7803,3.7783,3.7826,3.7826,3.7808,3.7826,3.8102,3.856,3.79,3.7753,3.7881,3.6127,3.4834,3.4467,3.4009,3.3807,3.3807,3.4009,3.4027,3.3807,3.4009,3.4027,3.3807,3.3807,3.3532,3.3036,3.2944,3.3183,3.377,3.3807,3.3807,3.3807,3.3807,3.3807,3.3807,3.3807,3.3807,3.3807,3.3807,3.3807,3.3807,3.3807,3.3807,3.3807,3.3807,3.3807,3.3807,3.3807,3.3899,3.4211,3.5422,3.6505,3.7,3.7955,3.864,3.8609,3.8234,3.772,3.7248,3.6724,3.6182,3.5694,3.5622,3.5639,3.5639,3.5639,3.5639,3.5639,3.5639,3.5639,3.5639,3.5639,3.5639,3.5639,3.5639,3.5639,3.5639,3.5639,3.5639,3.5639,3.5639,3.5639,3.5639,3.5639,3.5639,4.8047,4.7054,4.5478,4.4305,4.3589,4.4395,4.5426,4.6605,4.7383,4.839,4.9359,4.9445,4.9485,4.9381,4.8131,4.7308,4.6819,4.5972,4.5549,4.5531,4.5491,4.549,4.5337,4.3522,4.2466,4.1863,4.0375,3.9476,3.9069,3.8108,3.7911,3.8579,3.8579,3.8615,3.8579,3.8524,3.8634,3.8524,3.7808,3.7404,3.7081,3.5779,3.5357,3.5889,3.4633,3.3807,3.388,3.4541,3.4578,3.3825,3.4468,3.4559,3.3917,3.3788,3.3715,3.366,3.3678,3.3697,3.3733,3.3788,3.3807,3.3807,3.3807,3.3807,3.3734,3.378,3.3807,3.3788,3.368,3.3688,3.3688,3.3725,3.3807,3.3807,3.3807,3.3807,3.3807,3.3807,3.4174,3.4752,3.5585,3.6769,3.8267,3.8652,3.8707,3.8627,3.8267,3.7755,3.7323,3.6803,3.6266,3.5827,3.5622,3.5639,3.5639,3.5639,3.5639,3.5639,3.5639,3.5639,3.5639,3.5639,3.5639,3.5639,3.5639,3.5639,3.5639,3.5639,3.5639,3.5639,3.5639,3.5639,3.5639,3.5639,3.5639,4.6426,4.5533,4.4381,4.4048,4.4305,4.458,4.5532,4.6853,4.7166,4.7864,4.86,4.8728,4.8881,4.9051,4.8089,4.7372,4.6882,4.581,4.518,4.5011,4.518,4.4874,4.403,4.2815,4.1841,4.1042,3.9958,3.9219,3.8855,3.8437,3.8395,3.8634,3.8707,3.8707,3.8615,3.8193,3.7918,3.7845,3.7129,3.6927,3.7184,3.5797,3.5642,3.6835,3.4926,3.3807,3.3807,3.41,3.41,3.3825,3.41,3.41,3.3788,3.3311,3.3036,3.3036,3.3036,3.3036,3.3091,3.3513,3.3807,3.3807,3.3807,3.3662,3.3522,3.3634,3.3689,3.3403,3.291,3.2738,3.2885,3.3342,3.3807,3.3807,3.3807,3.3743,3.3807,3.3807,3.3835,3.4058,3.5,3.6583,3.8047,3.8707,3.8707,3.8658,3.8515,3.8201,3.7738,3.721,3.6724,3.6224,3.5827,3.5639,3.5639,3.5639,3.5639,3.5639,3.5639,3.5639,3.5639,3.5639,3.5639,3.5639,3.5639,3.5639,3.5639,3.5639,3.5639,3.5639,3.5639,3.5639,3.5639,3.5639,3.5639,4.5577,4.4634,4.3826,4.3975,4.4709,4.4984,4.5847,4.7057,4.7388,4.781,4.8251,4.8324,4.8458,4.8527,4.7877,4.7345,4.693,4.5836,4.5179,4.4983,4.4938,4.4521,4.3636,4.2516,4.1526,4.0645,3.9602,3.8958,3.8738,3.8707,3.8707,3.8707,3.8707,3.8707,3.8597,3.8138,3.7863,3.7734,3.7092,3.6982,3.7257,3.6156,3.5917,3.6633,3.5183,3.4192,3.4192,3.4449,3.4321,3.3917,3.4045,3.4064,3.377,3.3293,3.2999,3.2999,3.3018,3.2999,3.3036,3.3513,3.3807,3.3788,3.3424,3.3112,3.2864,3.2744,3.2531,3.2223,3.1876,3.1516,3.1665,3.2216,3.2683,3.272,3.2873,3.3093,3.3259,3.346,3.3603,3.3834,3.4641,3.6121,3.7676,3.8232,3.8478,3.8658,3.8707,3.8465,3.7998,3.7649,3.7135,3.6522,3.6097,3.581,3.5694,3.5639,3.5639,3.5639,3.5639,3.5639,3.5639,3.5639,3.5639,3.5639,3.5639,3.5639,3.5639,3.5639,3.5639,3.5639,3.5639,3.5639,3.5639,3.5639,3.5639,4.55,4.4593,4.3826,4.4066,4.4874,4.5608,4.6379,4.726,4.7939,4.8233,4.8324,4.8324,4.8344,4.8197,4.7647,4.7187,4.7056,4.6177,4.5659,4.5538,4.4912,4.4497,4.4173,4.2436,4.1408,4.1091,3.9564,3.8738,3.8707,3.8707,3.8707,3.8707,3.8707,3.8707,3.8707,3.8542,3.8524,3.8212,3.7514,3.7294,3.7367,3.6523,3.6193,3.634,3.5514,3.4972,3.4935,3.5624,3.5202,3.4064,3.4486,3.4578,3.3917,3.3715,3.3733,3.3605,3.3697,3.3752,3.3678,3.3733,3.3788,3.356,3.2766,3.2206,3.191,3.1184,3.0629,3.0556,3.0414,3.0308,3.029,3.0272,3.0391,3.0445,3.1194,3.1721,3.209,3.2726,3.3473,3.4065,3.4577,3.5312,3.653,3.7368,3.7884,3.8346,3.8515,3.8382,3.7946,3.7685,3.7342,3.6746,3.6207,3.5898,3.5739,3.5639,3.5639,3.5639,3.5639,3.5639,3.5639,3.5639,3.5639,3.5639,3.5639,3.5639,3.5639,3.5639,3.5639,3.5639,3.5639,3.5639,3.5639,3.5639,3.5639,4.4247,4.3954,4.4213,4.48,4.559,4.6397,4.7205,4.7921,4.8233,4.8324,4.8324,4.8324,4.8324,4.8269,4.8031,4.7921,4.783,4.6519,4.5582,4.5055,4.4468,4.3778,4.294,4.1822,4.0689,3.9681,3.9007,3.8707,3.8707,3.8707,3.8707,3.8707,3.8707,3.8707,3.867,3.8157,3.7643,3.7,3.6211,3.6046,3.6523,3.5862,3.5954,3.689,3.634,3.5642,3.5045,3.4743,3.4339,3.3825,3.4027,3.4064,3.3862,3.3807,3.3532,3.3109,3.3513,3.3495,3.3128,3.3476,3.355,3.3038,3.2411,3.1683,3.0951,3.0462,3.0084,2.9779,2.9382,2.9082,2.8931,2.8291,2.8578,3.0123,3.0521,3.0681,3.0968,3.1345,3.2237,3.3537,3.3741,3.441,3.5759,3.6542,3.6916,3.7542,3.772,3.7703,3.779,3.7342,3.7058,3.6882,3.6416,3.5985,3.5871,3.5783,3.58,3.5711,3.5667,3.5622,3.5639,3.5639,3.5639,3.5639,3.5639,3.5639,3.5639,3.5639,3.5639,3.5639,3.5639,3.5639,3.5639,3.5639,3.5639,4.3889,4.3589,4.4378,4.5168,4.5938,4.6783,4.7572,4.8251,4.8324,4.8324,4.8324,4.8324,4.8324,4.8324,4.8324,4.8324,4.8122,4.6636,4.5626,4.5038,4.4155,4.3287,4.2264,4.124,4.0102,3.8946,3.8707,3.8707,3.8707,3.8707,3.8707,3.8707,3.8707,3.8707,3.867,3.8212,3.7661,3.7147,3.6725,3.6652,3.6909,3.6376,3.6431,3.7184,3.6413,3.5587,3.5,3.4229,3.3807,3.3807,3.3807,3.3807,3.3807,3.3788,3.3568,3.3293,3.3458,3.3587,3.3183,3.355,3.3405,3.2575,3.1815,3.0898,2.981,2.932,2.8821,2.8506,2.8096,2.7837,2.7719,2.723,2.7483,2.8728,2.9161,2.9659,3.0232,3.0853,3.1551,3.2651,3.2887,3.3567,3.4473,3.557,3.5945,3.6604,3.7033,3.7248,3.747,3.7135,3.702,3.6904,3.6684,3.6333,3.6011,3.5941,3.5958,3.5871,3.5783,3.5667,3.5639,3.5639,3.5639,3.5639,3.5639,3.5639,3.5639,3.5639,3.5639,3.5639,3.5639,3.5639,3.5639,3.5639,3.5622,4.4195,4.3644,4.4415,4.5223,4.5975,4.6874,4.7664,4.8251,4.8324,4.8324,4.8324,4.8324,4.8324,4.8324,4.8324,4.8324,4.8049,4.6819,4.5975,4.5443,4.4412,4.3183,4.2066,4.0887,3.9766,3.8854,3.8707,3.8707,3.8707,3.8707,3.8707,3.8707,3.8707,3.8707,3.8652,3.8652,3.8432,3.8267,3.8267,3.8193,3.8322,3.7771,3.736,3.7342,3.6046,3.5137,3.4715,3.4156,3.3807,3.3807,3.3807,3.3807,3.3807,3.3807,3.377,3.3697,3.377,3.3788,3.377,3.3752,3.3323,3.2216,3.1201,2.9806,2.8833,2.7925,2.7317,2.708,2.6911,2.6843,2.6843,2.6759,2.6826,2.6826,2.7555,2.8579,3.0231,3.0992,3.1372,3.1645,3.2034,3.2457,3.3194,3.4268,3.5018,3.5706,3.6259,3.6506,3.6847,3.6619,3.6698,3.6671,3.6545,3.644,3.6054,3.5871,3.5915,3.6054,3.5898,3.565,3.5622,3.5622,3.5639,3.5639,3.5622,3.5622,3.5639,3.5639,3.5639,3.5639,3.5639,3.5639,3.5588,3.5537,3.552,4.3681,4.3663,4.5002,4.57,4.6085,4.737,4.8086,4.8306,4.8324,4.8324,4.8324,4.8324,4.8324,4.8324,4.8324,4.8324,4.8031,4.7241,4.6416,4.5792,4.4892,4.3222,4.1589,4.0451,3.9533,3.8836,3.8726,3.8707,3.8707,3.8707,3.8707,3.8707,3.8707,3.8707,3.8652,3.8157,3.7826,3.7716,3.7202,3.7331,3.7771,3.7624,3.7184,3.6597,3.6138,3.5293,3.4284,3.3917,3.3807,3.3807,3.3807,3.3807,3.3807,3.3807,3.3807,3.3807,3.3807,3.3807,3.3807,3.378,3.3214,3.2166,3.1385,3.0339,2.8583,2.7862,2.7284,2.6877,2.6708,2.6708,2.6708,2.6708,2.6708,2.6708,2.6979,2.7555,2.8509,2.9276,2.9941,3.0445,3.1133,3.1805,3.2412,3.2935,3.3488,3.4037,3.4479,3.4887,3.5509,3.5584,3.5415,3.6084,3.6215,3.6232,3.6139,3.5898,3.5898,3.6182,3.5994,3.5616,3.5588,3.5588,3.5605,3.5639,3.5622,3.5622,3.5622,3.5639,3.5639,3.5639,3.5639,3.5622,3.5419,3.5318,3.5334,4.3925,4.436,4.5755,4.6502,4.6812,4.8015,4.8458,4.8306,4.8324,4.8324,4.8324,4.8324,4.8324,4.8324,4.8324,4.8324,4.8196,4.7462,4.6654,4.5792,4.4672,4.3222,4.1607,4.0235,3.93,3.9203,3.8872,3.8707,3.8707,3.8707,3.8707,3.8707,3.8707,3.8707,3.8689,3.8285,3.7991,3.7881,3.7239,3.7184,3.7918,3.7312,3.678,3.6266,3.5991,3.5092,3.399,3.3807,3.3807,3.3807,3.3807,3.3807,3.3807,3.3807,3.3807,3.3788,3.3634,3.3625,3.368,3.3476,3.2787,3.1905,3.1349,3.0119,2.8681,2.815,2.7943,2.6877,2.6979,2.6979,2.6759,2.6708,2.6708,2.6742,2.6979,2.7334,2.7772,2.889,2.9567,3.0142,3.0734,3.1309,3.1816,3.2053,3.2442,3.2906,3.3413,3.386,3.4333,3.4143,3.4227,3.4917,3.5383,3.5352,3.5549,3.5444,3.5566,3.5855,3.5968,3.5571,3.5385,3.5402,3.5419,3.5436,3.5537,3.556,3.5622,3.5639,3.5639,3.5639,3.5639,3.5588,3.5436,3.5165,3.5165,4.4651,4.5442,4.6647,4.7379,4.782,4.8557,4.8674,4.8439,4.8344,4.8324,4.8343,4.8398,4.8581,4.8453,4.8618,4.8471,4.8434,4.7535,4.6562,4.5516,4.4323,4.3075,4.2341,4.0551,3.9726,3.9698,3.9111,3.8836,3.8744,3.8707,3.8707,3.8707,3.8707,3.8707,3.8689,3.8634,3.8689,3.8505,3.7973,3.7918,3.8285,3.7551,3.6909,3.6486,3.5569,3.489,3.4192,3.3899,3.3807,3.3807,3.3807,3.3807,3.3807,3.3807,3.3753,3.368,3.3437,3.3361,3.3476,3.2916,3.2269,3.1588,3.113,3.004,2.8849,2.8772,2.8501,2.708,2.7503,2.7537,2.7046,2.681,2.681,2.6945,2.7469,2.7722,2.8144,2.9228,3.0091,3.0091,3.0649,3.1106,3.1343,3.1698,3.2171,3.2121,3.251,3.288,3.325,3.3337,3.344,3.3753,3.4103,3.431,3.4587,3.4915,3.5167,3.5494,3.5667,3.5504,3.5064,3.5013,3.5081,3.5182,3.5487,3.5622,3.5622,3.5639,3.5639,3.5639,3.5639,3.5639,3.5571,3.5199,3.5047,4.5536,4.5827,4.7353,4.806,4.8227,4.8688,4.8847,4.8746,4.8421,4.8343,4.8453,4.8985,4.9242,4.926,4.9129,4.9315,4.8833,4.7549,4.6342,4.4911,4.3993,4.3461,4.302,4.1815,4.0914,4.0249,3.9772,3.9313,3.8909,3.8744,3.8707,3.8707,3.8707,3.8707,3.8707,3.8707,3.8707,3.867,3.8469,3.8432,3.8579,3.8285,3.7679,3.711,3.5807,3.5027,3.4642,3.4137,3.3825,3.3807,3.378,3.3753,3.378,3.3753,3.3578,3.3361,3.3243,3.3045,3.2809,3.2598,3.2297,3.176,3.1462,3.0986,2.9844,2.9702,2.9127,2.8095,2.823,2.8247,2.7503,2.6979,2.7029,2.7368,2.7723,2.8095,2.8704,2.9533,2.982,2.9736,3.0412,3.119,3.119,3.1292,3.1512,3.1478,3.1681,3.1968,3.2222,3.2493,3.2679,3.2882,3.3056,3.3379,3.41,3.4524,3.5,3.5301,3.5501,3.5554,3.5115,3.4979,3.5182,3.5351,3.5554,3.5622,3.5639,3.5639,3.5639,3.5639,3.5605,3.5537,3.5402,3.5115,3.4928,4.7217,4.7976,4.8751,4.9465,4.9927,4.9655,4.9355,4.9103,4.8549,4.8545,4.8838,4.904,4.905,4.9081,4.8753,4.8393,4.7741,4.6476,4.524,4.4175,4.3264,4.2884,4.2959,4.2468,4.1597,4.0939,4.0354,3.9803,3.9331,3.8909,3.8707,3.8707,3.8707,3.8707,3.8707,3.8707,3.8707,3.8597,3.8322,3.8303,3.8615,3.8303,3.801,3.7404,3.6303,3.5624,3.555,3.4816,3.432,3.4043,3.3741,3.3522,3.3447,3.3314,3.3105,3.2921,3.2631,3.2598,3.2433,3.2109,3.1842,3.1825,3.164,3.1022,3.0506,3.0378,2.9888,2.889,2.8602,2.8552,2.7452,2.7012,2.7097,2.7689,2.8163,2.8552,2.9008,2.9651,2.9989,2.9786,3.0531,3.1021,3.119,3.119,3.1207,3.1343,3.1343,3.1579,3.1546,3.1782,3.1884,3.2036,3.2171,3.2598,3.3475,3.4192,3.489,3.5263,3.5593,3.5571,3.5334,3.5334,3.5436,3.547,3.5436,3.5605,3.5639,3.5639,3.5639,3.5639,3.5571,3.5436,3.5284,3.5115,3.4912,4.8894,5.0239,5.0159,5.0835,5.1669,5.0639,4.9862,4.9391,4.8568,4.8348,4.8948,4.8473,4.8563,4.8315,4.7795,4.6999,4.5889,4.4786,4.3888,4.3306,4.2489,4.2279,4.2346,4.2083,4.193,4.2137,4.111,4.0357,3.9942,3.9368,3.9184,3.9056,3.8744,3.8872,3.8872,3.8726,3.8707,3.8634,3.8212,3.812,3.856,3.8138,3.7759,3.7192,3.6909,3.6263,3.5967,3.536,3.4852,3.437,3.3615,3.3163,3.2921,3.2745,3.2451,3.2417,3.2092,3.2039,3.2004,3.1657,3.1428,3.1696,3.1411,3.0976,3.0598,3.07,3.0328,2.955,2.8907,2.8247,2.7046,2.6979,2.7334,2.7977,2.8721,2.9144,2.9431,2.9905,3.0192,3.0159,3.0632,3.1106,3.119,3.119,3.119,3.119,3.119,3.119,3.119,3.1224,3.1427,3.1664,3.1918,3.2459,3.3294,3.3981,3.4675,3.4928,3.5351,3.5436,3.5402,3.552,3.5487,3.525,3.525,3.547,3.5639,3.5639,3.5639,3.5639,3.5537,3.5402,3.5267,3.5131,3.4861,4.9275,5.0078,5.0429,5.1118,5.1688,5.0731,4.9884,4.9139,4.8201,4.7387,4.7229,4.8107,4.825,4.7874,4.7595,4.6336,4.4664,4.3525,4.2776,4.2328,4.1778,4.1828,4.1853,4.1725,4.1895,4.2096,4.1497,4.098,4.0687,4.0157,3.9823,4.0198,3.9386,3.9038,3.9294,3.9093,3.8707,3.8707,3.8469,3.8524,3.8579,3.8505,3.793,3.7267,3.715,3.679,3.5973,3.5553,3.5123,3.4416,3.3527,3.2739,3.2302,3.2316,3.2248,3.2004,3.1825,3.1714,3.1507,3.1351,3.123,3.1252,3.123,3.119,3.1038,3.1038,3.0632,2.9803,2.8772,2.7926,2.7706,2.752,2.801,2.8704,2.9381,3.0057,3.0548,3.0768,3.0722,3.0493,3.0879,3.119,3.119,3.119,3.119,3.119,3.119,3.119,3.119,3.1207,3.1292,3.1562,3.185,3.2527,3.3296,3.3905,3.4489,3.4472,3.4776,3.5131,3.5216,3.552,3.5504,3.5148,3.5216,3.5537,3.5639,3.5622,3.5504,3.5419,3.5368,3.5318,3.4776,3.4303,3.4438,4.9673,5.0553,5.0596,5.106,5.1514,5.0602,4.991,4.9415,4.8194,4.7603,4.7634,4.7819,4.7656,4.7184,4.675,4.5326,4.3481,4.2445,4.1789,4.1363,4.1076,4.1105,4.1223,4.1105,4.122,4.1393,4.1258,4.1127,4.0944,4.0362,4.0195,3.9896,3.9443,3.9533,3.9606,3.9111,3.8799,3.8744,3.8726,3.8707,3.8707,3.8676,3.8141,3.7678,3.75,3.7254,3.6574,3.5863,3.5243,3.4341,3.3471,3.2547,3.1898,3.164,3.1768,3.1545,3.1507,3.1449,3.1213,3.119,3.119,3.119,3.119,3.119,3.119,3.1089,3.07,2.9702,2.9127,2.8247,2.7858,2.784,2.8399,2.933,2.9922,3.0467,3.0954,3.114,3.1074,3.0902,3.1134,3.1295,3.119,3.119,3.119,3.119,3.119,3.1241,3.1275,3.1427,3.1562,3.1918,3.2273,3.2645,3.3169,3.3491,3.3914,3.3964,3.4252,3.459,3.4844,3.5047,3.5064,3.4861,3.5131,3.5334,3.5588,3.5554,3.5368,3.5131,3.4945,3.4624,3.3897,3.3525,3.3677,4.9642,5.0956,5.0537,5.085,5.1341,5.0394,4.9802,4.9414,4.8082,4.7611,4.7941,4.7081,4.6479,4.6169,4.5423,4.4163,4.2252,4.1594,4.1085,4.0714,4.0417,4.0368,4.0497,4.0417,4.0385,4.0767,4.0745,4.0864,4.1042,4.0569,4.0073,3.9985,4.0017,4.0017,4.0017,3.9564,3.9132,3.8964,3.8946,3.8878,3.8583,3.8433,3.8059,3.7558,3.7577,3.7417,3.6549,3.6224,3.5352,3.4408,3.3442,3.2539,3.1455,3.119,3.119,3.119,3.119,3.119,3.119,3.119,3.119,3.119,3.119,3.119,3.119,3.1072,3.0683,2.9533,2.9194,2.8873,2.8349,2.8212,2.889,2.9705,3.0285,3.0666,3.1185,3.1521,3.1746,3.1645,3.1565,3.1585,3.166,3.1411,3.1449,3.1538,3.1572,3.1647,3.1715,3.1985,3.2205,3.2544,3.2831,3.2966,3.3102,3.2916,3.3169,3.3169,3.3626,3.41,3.4286,3.4472,3.4421,3.4387,3.4506,3.4709,3.5098,3.5182,3.4709,3.437,3.4303,3.3931,3.322,3.2916,3.3017,4.8666,5.0516,5.0107,5.0444,5.0944,5.0215,4.9573,4.8841,4.7489,4.6567,4.6276,4.5329,4.4971,4.4729,4.4045,4.3139,4.2236,4.1441,4.0815,4.0441,4.0205,4.0172,4.0255,4.0171,4.0121,4.0336,4.0286,4.0827,4.1121,4.076,4.0807,4.089,4.0121,3.9971,4.0763,4.0059,3.9979,3.9749,3.9685,3.9108,3.814,3.7649,3.6911,3.638,3.6615,3.6829,3.6028,3.5925,3.5532,3.4341,3.3659,3.2642,3.1512,3.119,3.119,3.119,3.119,3.119,3.119,3.119,3.119,3.119,3.119,3.119,3.119,3.1157,3.0835,3.0125,2.9922,2.96,2.911,2.9434,2.9854,3.0381,3.0996,3.1367,3.1787,3.188,3.2109,3.2348,3.2209,3.2296,3.2398,3.2039,3.175,3.1843,3.1965,3.2094,3.229,3.2628,3.2696,3.2983,3.3017,3.3119,3.2865,3.2713,3.2662,3.2577,3.3152,3.3677,3.3795,3.3914,3.3812,3.3812,3.3863,3.3711,3.3711,3.3677,3.3609,3.3609,3.3541,3.3102,3.2527,3.2408,3.2357,4.6697,4.8725,4.8655,4.911,4.9752,4.9135,4.8616,4.8063,4.6826,4.6007,4.5602,4.4908,4.4316,4.3652,4.2692,4.1999,4.1542,4.0967,4.0713,4.0544,4.0341,4.0307,4.0595,4.0307,4.0087,4.0087,4.0121,4.0254,4.0706,4.0854,4.0849,4.0561,4.0345,4.0276,4.0927,4.016,3.9777,3.9479,3.9139,3.8492,3.772,3.7268,3.6802,3.5972,3.6486,3.618,3.5778,3.5651,3.5383,3.4255,3.3663,3.2986,3.2087,3.1562,3.1291,3.1528,3.1312,3.119,3.119,3.119,3.119,3.119,3.119,3.119,3.119,3.1157,3.0886,3.0159,3.0108,2.9922,2.9776,3.015,3.06,3.1126,3.1671,3.1969,3.2213,3.2327,3.2488,3.2706,3.2889,3.2931,3.3086,3.3146,3.2845,3.2644,3.2924,3.3225,3.3359,3.3525,3.3474,3.3305,3.3237,3.3136,3.2713,3.2391,3.2408,3.2476,3.3051,3.3423,3.3372,3.3372,3.322,3.2814,3.251,3.2374,3.2324,3.2713,3.3152,3.3,3.2763,3.2357,3.1968,3.1732,3.1799,4.4857,4.6713,4.7078,4.7655,4.8222,4.7742,4.7581,4.7362,4.6068,4.5432,4.5162,4.4418,4.3538,4.2892,4.2049,4.1576,4.1204,4.0612,4.073,4.0798,4.0595,4.0561,4.0696,4.0476,4.0087,4.0087,4.0087,4.0171,4.0254,4.0429,4.0358,3.9876,4.0221,4.0491,4.0524,4.0232,3.9876,3.9447,3.8823,3.7985,3.7171,3.7071,3.6696,3.6343,3.6139,3.5942,3.544,3.5284,3.4815,3.3911,3.3505,3.2896,3.2194,3.1714,3.1411,3.1507,3.1291,3.1291,3.1274,3.1274,3.123,3.119,3.119,3.119,3.119,3.1173,3.1055,3.0497,3.0463,3.0446,3.0455,3.0741,3.1163,3.1707,3.2263,3.25,3.2713,3.2862,3.2979,3.3176,3.3348,3.3432,3.3684,3.4176,3.4079,3.3635,3.3853,3.4276,3.4459,3.4499,3.3998,3.3694,3.3406,3.3068,3.2307,3.2076,3.2127,3.2374,3.2949,3.2949,3.2747,3.2628,3.2493,3.1985,3.1529,3.1529,3.1749,3.2273,3.2696,3.2324,3.1968,3.1765,3.1478,3.1258,3.141,4.3457,4.5075,4.5913,4.6266,4.6426,4.6553,4.6583,4.6344,4.5194,4.4637,4.435,4.32,4.2489,4.2252,4.1999,4.1559,4.1153,4.1153,4.1204,4.0984,4.0578,4.0713,4.0865,4.0679,4.0172,4.0172,4.024,4.0223,4.0138,4.0205,4.022,4.0136,4.0161,4.047,4.059,4.0481,4.001,3.9493,3.885,3.7862,3.7041,3.6672,3.6457,3.5902,3.5644,3.5362,3.4658,3.4675,3.4269,3.3308,3.3089,3.2807,3.2177,3.175,3.1528,3.1449,3.1274,3.1312,3.1449,3.1411,3.1252,3.1213,3.119,3.1213,3.1291,3.123,3.1106,3.1021,3.0903,3.097,3.1142,3.1459,3.1614,3.1934,3.24,3.2822,3.3057,3.339,3.3542,3.3689,3.3707,3.3643,3.4032,3.4483,3.4763,3.4353,3.4876,3.5335,3.5415,3.5335,3.4524,3.4015,3.3626,3.2983,3.185,3.1799,3.2357,3.2493,3.2763,3.2374,3.1867,3.1782,3.1884,3.1647,3.1309,3.1224,3.1207,3.1664,3.185,3.1478,3.1258,3.1326,3.1343,3.1241,3.1495,4.2739,4.3351,4.33,4.4178,4.5608,4.5751,4.5349,4.4566,4.4061,4.3572,4.3115,4.2117,4.1627,4.1508,4.1085,4.0815,4.0595,4.1035,4.139,4.1525,4.1271,4.1288,4.1373,4.1187,4.0781,4.073,4.0747,4.0764,4.0764,4.0375,4.0121,4.007,4.002,4.0187,4.0351,4.0414,3.9924,3.9422,3.8883,3.8128,3.7007,3.6667,3.64,3.5707,3.5639,3.5233,3.4641,3.4506,3.3891,3.3205,3.275,3.2426,3.2125,3.1731,3.1545,3.1487,3.1312,3.1351,3.1524,3.1545,3.166,3.1823,3.1582,3.1274,3.1487,3.1351,3.123,3.1173,3.119,3.119,3.1252,3.1528,3.1826,3.2057,3.2415,3.2916,3.3237,3.3504,3.3606,3.3532,3.3553,3.3563,3.4122,3.4749,3.4965,3.5133,3.5773,3.626,3.6177,3.5925,3.4992,3.4353,3.3964,3.3558,3.251,3.2594,3.2831,3.2696,3.2594,3.2121,3.1613,3.1376,3.1427,3.1224,3.119,3.119,3.119,3.119,3.119,3.1207,3.119,3.1207,3.1207,3.119,3.1427,4.2073,4.2013,4.1564,4.2389,4.4024,4.4212,4.3766,4.2953,4.2708,4.2328,4.161,4.1068,4.0882,4.0696,4.0409,4.0155,4.0358,4.0865,4.1593,4.1813,4.183,4.188,4.1948,4.1762,4.1255,4.1153,4.139,4.1441,4.0696,4.051,4.0154,3.9866,3.9799,3.9817,4.0121,4.0037,3.9715,3.9191,3.9123,3.8379,3.7106,3.6992,3.6552,3.5757,3.5402,3.481,3.4167,3.3804,3.3321,3.2754,3.2349,3.2234,3.2033,3.1806,3.1545,3.1487,3.1411,3.1291,3.16,3.1677,3.2022,3.2231,3.1806,3.164,3.1623,3.1449,3.123,3.119,3.119,3.119,3.123,3.1545,3.1789,3.1951,3.24,3.2872,3.2978,3.3178,3.3255,3.3273,3.3364,3.3453,3.4145,3.4777,3.5579,3.5776,3.6028,3.6371,3.6253,3.5874,3.527,3.4709,3.432,3.3914,3.3491,3.3322,3.3068,3.2544,3.2408,3.2121,3.1715,3.1427,3.1207,3.119,3.119,3.119,3.119,3.119,3.119,3.119,3.119,3.119,3.119,3.119,3.119,4.1414,4.1399,4.1339,4.14,4.1684,4.1715,4.1873,4.1661,4.1183,4.0691,4.0152,4.0036,4.0138,4.0138,4.0054,4.0087,4.029,4.0933,4.166,4.21,4.232,4.2303,4.2337,4.2185,4.1762,4.0815,4.1238,4.1441,4.0324,4.0595,4.0167,3.9412,3.9209,3.9368,4.002,4.0087,3.9698,3.9208,3.9715,3.8582,3.7499,3.7364,3.6738,3.5825,3.5013,3.4387,3.3744,3.3034,3.2548,3.2029,3.1881,3.1797,3.1731,3.1733,3.1545,3.1274,3.1252,3.1562,3.2282,3.1986,3.2092,3.2417,3.2039,3.1752,3.1679,3.147,3.119,3.119,3.119,3.119,3.1312,3.1528,3.1716,3.1951,3.2366,3.2524,3.2616,3.2862,3.2961,3.2965,3.3096,3.3378,3.407,3.4835,3.5964,3.6412,3.6486,3.6457,3.6333,3.5925,3.5362,3.5148,3.4776,3.4573,3.4184,3.3694,3.3271,3.2696,3.2313,3.207,3.1765,3.141,3.1258,3.1224,3.119,3.119,3.119,3.119,3.119,3.119,3.119,3.119,3.119,3.119,3.119,4.0726,4.0696,4.0262,4.0083,4.0244,4.1275,4.1013,3.9736,3.9122,3.8756,3.8733,3.9032,3.9315,3.9437,3.9833,4.0037,4.029,4.1457,4.2185,4.2286,4.276,4.2997,4.3031,4.2895,4.2422,4.1897,4.2083,4.188,4.0882,4.0815,3.9962,3.9119,3.8745,3.9016,3.9368,3.9714,3.9884,3.9665,3.9462,3.8717,3.7652,3.7297,3.6705,3.5639,3.4861,3.4117,3.3457,3.2713,3.2026,3.1602,3.1517,3.1449,3.1432,3.1449,3.1351,3.123,3.123,3.1449,3.1861,3.188,3.2196,3.2417,3.2264,3.1808,3.1752,3.1411,3.1252,3.119,3.119,3.119,3.1252,3.1565,3.1789,3.1897,3.2126,3.1996,3.2077,3.2468,3.2664,3.2615,3.2685,3.3401,3.4125,3.4822,3.5833,3.622,3.6215,3.635,3.6266,3.5941,3.552,3.5487,3.5301,3.5182,3.4878,3.4286,3.3964,3.3626,3.2882,3.2263,3.1867,3.1596,3.1376,3.136,3.1275,3.119,3.119,3.119,3.119,3.119,3.119,3.119,3.119,3.119,3.119,3.8969,3.8923,3.8501,3.8266,3.856,4.016,3.9941,3.8629,3.8046,3.7822,3.7921,3.8358,3.8525,3.8745,3.9262,3.9662,3.9899,4.1523,4.2269,4.2455,4.3386,4.3504,4.3538,4.3572,4.2861,4.2472,4.2354,4.2168,4.0747,4.0578,3.9721,3.8733,3.8286,3.823,3.8635,3.9368,4.0054,3.9817,3.9428,3.8817,3.8021,3.7377,3.6468,3.5571,3.4742,3.3964,3.3491,3.2747,3.185,3.1529,3.136,3.1224,3.1207,3.119,3.119,3.119,3.1389,3.1545,3.1752,3.2057,3.24,3.2745,3.2161,3.1844,3.1716,3.1411,3.1252,3.119,3.119,3.119,3.1252,3.1603,3.1789,3.1897,3.1899,3.1776,3.1846,3.2214,3.2177,3.2138,3.2414,3.3231,3.4126,3.4914,3.5708,3.582,3.5881,3.6054,3.6199,3.5871,3.5639,3.5605,3.5588,3.5453,3.5165,3.4742,3.4523,3.4489,3.3677,3.2713,3.2425,3.2239,3.1867,3.1478,3.1343,3.1241,3.1207,3.119,3.119,3.119,3.119,3.119,3.119,3.119,3.119,3.6248,3.6207,3.6178,3.6311,3.6612,3.8267,3.8702,3.8373,3.7878,3.7648,3.7632,3.7632,3.7732,3.7921,3.8525,3.8854,3.9313,4.1167,4.1903,4.2672,4.3652,4.372,4.3944,4.4062,4.32,4.2489,4.2202,4.1996,4.0358,3.9854,3.9083,3.8164,3.7322,3.7616,3.8358,3.9156,3.9834,3.9631,3.9106,3.8546,3.7967,3.7157,3.6299,3.5453,3.4556,3.4066,3.3474,3.2611,3.2053,3.1749,3.1596,3.136,3.1241,3.1207,3.119,3.1291,3.1545,3.1623,3.1733,3.2004,3.2179,3.2282,3.1968,3.1825,3.1733,3.1545,3.1291,3.1252,3.1291,3.123,3.1252,3.1545,3.1789,3.1844,3.188,3.1846,3.181,3.1823,3.1674,3.1737,3.2035,3.2747,3.3846,3.4726,3.5554,3.5667,3.5739,3.5739,3.5871,3.5827,3.5639,3.5622,3.5622,3.5622,3.5351,3.5064,3.4979,3.4912,3.4218,3.3389,3.3136,3.2831,3.2374,3.1952,3.1495,3.1292,3.1224,3.119,3.119,3.119,3.119,3.119,3.119,3.119,3.119,3.6601,3.6225,3.6204,3.5971,3.5662,3.5427,3.5769,3.6571,3.631,3.6148,3.6196,3.6753,3.6904,3.7024,3.7716,3.8019,3.8967,4.0146,4.1216,4.2295,4.3659,4.4142,4.4384,4.4316,4.3403,4.2726,4.2337,4.1802,3.9516,3.8795,3.8398,3.7722,3.6859,3.7381,3.8117,3.8978,3.9104,3.9076,3.8501,3.8139,3.7526,3.6598,3.596,3.5368,3.4658,3.4218,3.3592,3.2747,3.2273,3.2188,3.163,3.1376,3.1952,3.1512,3.119,3.119,3.1312,3.1334,3.1372,3.1487,3.1657,3.1731,3.1487,3.1842,3.1842,3.1696,3.1351,3.1372,3.1372,3.1351,3.1449,3.1696,3.1897,3.1951,3.1986,3.1951,3.1861,3.166,3.1524,3.1526,3.1824,3.2673,3.3736,3.4692,3.5436,3.5554,3.5577,3.5532,3.5577,3.5577,3.5639,3.5639,3.5639,3.5639,3.5639,3.5402,3.5385,3.525,3.4607,3.415,3.3998,3.3609,3.2966,3.2324,3.1715,3.1376,3.1207,3.119,3.119,3.119,3.119,3.119,3.119,3.119,3.119,3.5505,3.5006,3.4944,3.4656,3.4059,3.3292,3.3518,3.4304,3.435,3.4491,3.4971,3.534,3.5804,3.629,3.6919,3.7354,3.7583,3.9976,4.1262,4.1853,4.3474,4.426,4.4553,4.4451,4.3589,4.2895,4.2004,4.1121,3.8939,3.7451,3.6964,3.716,3.6569,3.6964,3.7584,3.7866,3.7725,3.7777,3.7668,3.752,3.6874,3.6113,3.5757,3.5487,3.4878,3.4404,3.41,3.3305,3.2899,3.2983,3.2442,3.1877,3.208,3.1404,3.119,3.119,3.123,3.1213,3.1252,3.1213,3.1274,3.1351,3.1291,3.1694,3.1823,3.175,3.164,3.1603,3.1545,3.1545,3.1733,3.1897,3.2004,3.2092,3.2074,3.2074,3.1878,3.1677,3.1534,3.1455,3.1975,3.2771,3.3694,3.4624,3.5155,3.5093,3.5064,3.5098,3.5253,3.547,3.5532,3.5639,3.5639,3.5639,3.5577,3.5424,3.5419,3.538,3.5284,3.4912,3.4793,3.4201,3.3389,3.2536,3.1776,3.1489,3.1275,3.1207,3.119,3.119,3.119,3.119,3.119,3.119,3.119,3.3541,3.2957,3.2895,3.2651,3.2167,3.1915,3.1882,3.1843,3.2264,3.2961,3.3739,3.3891,3.4514,3.5335,3.593,3.6353,3.7171,3.9189,4.0447,4.1107,4.3013,4.4074,4.4293,4.4485,4.3656,4.2543,4.13,4.0153,3.8594,3.714,3.6337,3.6508,3.5958,3.618,3.6828,3.6761,3.6616,3.6481,3.6802,3.6932,3.6649,3.6101,3.556,3.5504,3.5131,3.4759,3.4895,3.4489,3.3795,3.3998,3.3575,3.2478,3.1719,3.1263,3.1224,3.119,3.119,3.119,3.119,3.119,3.1351,3.1428,3.1466,3.162,3.1657,3.16,3.1487,3.164,3.1603,3.1545,3.1677,3.175,3.1806,3.1878,3.1897,3.1806,3.164,3.1487,3.1385,3.141,3.1901,3.2628,3.2874,3.3693,3.4236,3.4331,3.4322,3.4296,3.4525,3.4841,3.4951,3.5044,3.4848,3.4708,3.5021,3.4958,3.5224,3.5266,3.5307,3.5442,3.5188,3.4496,3.3685,3.2908,3.2205,3.1681,3.1376,3.1275,3.119,3.119,3.119,3.119,3.119,3.1151,3.1151,3.2433,3.1604,3.0809,3.0819,3.1436,3.0656,3.0342,3.0342,3.0432,3.1402,3.2735,3.2961,3.3463,3.4365,3.4684,3.508,3.6219,3.7903,3.8763,3.9994,4.1852,4.314,4.3639,4.3963,4.3457,4.2303,4.0779,3.8914,3.7021,3.6059,3.5782,3.5782,3.5504,3.5831,3.64,3.6152,3.5689,3.5451,3.5374,3.5759,3.5708,3.5404,3.4971,3.5311,3.5307,3.4986,3.4935,3.4607,3.432,3.432,3.3152,3.2171,3.1286,3.1224,3.119,3.119,3.119,3.119,3.119,3.119,3.1291,3.1291,3.1291,3.1368,3.1368,3.1269,3.1329,3.1545,3.1623,3.1582,3.16,3.162,3.162,3.1677,3.1677,3.1507,3.1372,3.1235,3.1134,3.1415,3.1844,3.2056,3.221,3.2622,3.3145,3.3258,3.3127,3.3112,3.3321,3.3566,3.3467,3.3518,3.3389,3.3437,3.3991,3.4399,3.4609,3.4752,3.475,3.5081,3.5424,3.441,3.3339,3.3212,3.2744,3.1871,3.1291,3.1219,3.1151,3.119,3.119,3.119,3.1055,3.0975,3.1015,3.1031,3.0055,2.9567,2.9653,3.0188,2.9895,2.9779,2.9779,2.9792,3.0355,3.1328,3.1829,3.2464,3.3449,3.3808,3.4163,3.5207,3.6917,3.7903,3.8952,4.0352,4.1642,4.2507,4.3092,4.2193,4.1148,3.9295,3.7367,3.5765,3.5507,3.5554,3.5489,3.5554,3.5703,3.6073,3.5492,3.497,3.4659,3.4129,3.4058,3.439,3.4233,3.4479,3.4941,3.5061,3.4918,3.5172,3.4996,3.4996,3.4752,3.3855,3.2754,3.1918,3.141,3.1224,3.119,3.119,3.119,3.119,3.119,3.119,3.119,3.119,3.1291,3.1252,3.123,3.1372,3.1585,3.1696,3.1677,3.1896,3.195,3.177,3.1733,3.149,3.1257,3.0982,3.074,3.0477,3.0264,3.0553,3.0619,3.0838,3.1249,3.1792,3.2351,3.2158,3.219,3.2309,3.2226,3.2118,3.2186,3.2139,3.2745,3.3675,3.3903,3.3953,3.4037,3.412,3.4284,3.4414,3.3653,3.3015,3.2773,3.2302,3.1458,3.1041,3.0945,3.1112,3.1151,3.119,3.119,3.1015,3.0878,3.0975,2.9465,2.8777,2.853,2.8622,2.8961,2.934,2.9611,2.9767,2.9704,2.9729,2.996,3.0654,3.1443,3.2437,3.3171,3.3656,3.4467,3.5789,3.6835,3.8025,3.9708,4.0578,4.1166,4.1613,4.108,3.9872,3.8119,3.6799,3.5544,3.5489,3.5489,3.5489,3.5489,3.5489,3.528,3.4775,3.418,3.3653,3.3122,3.257,3.2748,3.313,3.3786,3.4235,3.4528,3.4783,3.5144,3.5316,3.5316,3.4884,3.4117,3.3049,3.2144,3.1427,3.1292,3.119,3.119,3.119,3.119,3.119,3.119,3.119,3.119,3.1173,3.1134,3.1235,3.1376,3.1363,3.1476,3.1642,3.1825,3.1826,3.1608,3.1363,3.105,3.0781,3.0477,3.0182,2.9865,2.9451,2.9483,2.9515,2.9756,3.0124,3.0513,3.1101,3.1391,3.1426,3.1327,3.1006,3.0807,3.099,3.1155,3.2008,3.2993,3.3235,3.313,3.3391,3.3479,3.3547,3.3409,3.2886,3.2443,3.2226,3.1663,3.0822,3.0582,3.051,3.074,3.1066,3.1151,3.1151,3.0998,3.0878,3.0918,2.8196,2.8063,2.6682,2.7093,2.861,2.8563,2.8937,2.9626,2.9226,2.934,2.9605,2.9441,3.0054,3.1436,3.1609,3.2321,3.3905,3.4934,3.58,3.6899,3.8518,3.9336,4.0,4.0606,4.0435,3.9077,3.759,3.6731,3.5694,3.5489,3.5489,3.5489,3.5489,3.5444,3.528,3.4577,3.3664,3.3185,3.2452,3.1847,3.1989,3.2461,3.3093,3.3479,3.3786,3.3887,3.3987,3.4003,3.3958,3.3727,3.3352,3.2512,3.1736,3.1246,3.1185,3.1095,3.1095,3.119,3.119,3.119,3.119,3.1055,3.1038,3.0948,3.0965,3.0925,3.0897,3.0533,3.0654,3.0834,3.0937,3.0717,3.0499,3.0194,2.9876,2.9848,2.9673,2.9585,2.9406,2.9271,2.918,2.9196,2.9243,2.9454,2.9574,3.008,3.036,3.0426,3.0691,3.0187,2.9654,2.9855,3.0198,3.08,3.1637,3.2099,3.2201,3.2516,3.2841,3.2879,3.2699,3.2286,3.1903,3.1791,3.0987,3.0006,2.9939,3.057,3.0584,3.0899,3.1106,3.1134,3.0958,3.074,3.0642]}]]